[[{"header":{"parameterUnit":"m.s-1","parameterCategory":1,"la1":30.6,"la2":29.2853,"lo1":-89.7004,"lo2":-87.6739,"dy":0.0162,"dx":0.0183,"nx":112,"ny":82,"refTime":"2023-05-11T00:00:00:Z","depth":0,"parameterNumber":2,"parameterNumberName":"U-component_of_WINDS"},"data":[0.0,0.0,0.0,0.0,0.0,0.0,0.0,0.0,0.0,0.0,0.0,0.0,0.0,0.0,0.0,0.0,0.0,0.0,0.0,0.0,0.0,0.0,0.0,0.0,0.0,0.0,0.0,0.0,0.0,0.0,0.0,0.0,0.0,0.0,0.0,0.0,0.0,0.0,0.0,0.0,0.0,0.0,0.0,0.0,0.0,0.0,0.0,0.0,0.0,0.0,0.0,0.0,0.0,0.0,0.0,0.0,0.0,0.0,0.0,0.0,0.0,0.0,0.0,0.0,0.0,0.0,0.0,0.0,0.0,0.0,0.0,0.0,0.0,0.0,0.0,0.0,0.0,0.0,0.0,0.0,0.0,0.0,0.0,0.0,0.0,0.0,0.0,0.0,0.0,0.0,-0.5293,-0.6197,-0.7376,-0.8024,-0.7796,-0.7371,-0.6913,-0.6452,0.0,0.0,0.0,0.0,0.0,0.0,0.0,0.0,0.0,0.0,0.0,0.0,0.0,0.0,0.0,0.0,0.0,0.0,0.0,0.0,0.0,0.0,0.0,0.0,0.0,0.0,0.0,0.0,0.0,0.0,0.0,0.0,0.0,0.0,0.0,0.0,0.0,0.0,0.0,0.0,0.0,0.0,0.0,0.0,0.0,0.0,0.0,0.0,0.0,0.0,0.0,0.0,0.0,0.0,0.0,0.0,0.0,0.0,0.0,0.0,0.0,0.0,0.0,0.0,0.0,0.0,0.0,0.0,0.0,0.0,0.0,0.0,0.0,0.0,0.0,0.0,0.0,0.0,0.0,0.0,0.0,0.0,0.0,0.0,0.0,0.0,0.0,0.0,0.0,0.0,0.0,0.0,0.0,0.0,0.0,0.0,0.0,0.0,0.0,0.0,0.0,0.0,0.0,0.0,-0.5248,-0.6575,-0.7295,-0.769,-0.7711,-0.7383,-0.6985,-0.6511,0.0,0.0,0.0,0.0,0.0,0.0,0.0,0.0,0.0,0.0,0.0,0.0,0.0,0.0,0.0,0.0,0.0,0.0,0.0,0.0,0.0,0.0,0.0,0.0,0.0,0.0,0.0,0.0,0.0,0.0,0.0,0.0,0.0,0.0,0.0,0.0,0.0,0.0,0.0,0.0,0.0,0.0,0.0,0.0,0.0,0.0,0.0,0.0,0.0,0.0,0.0,0.0,0.0,0.0,0.0,0.0,0.0,0.0,0.0,0.0,0.0,0.0,0.0,0.0,0.0,0.0,0.0,0.0,0.0,0.0,0.0,0.0,0.0,0.0,0.0,0.0,0.0,0.0,0.0,0.0,0.0,0.0,0.0,0.0,0.0,0.0,0.0,0.0,0.0,0.0,0.0,0.0,0.0,0.0,0.0,0.0,0.0,0.0,0.0,0.0,0.0,0.0,0.0,-0.5164,-0.6007,-0.6875,-0.7475,-0.7724,-0.7497,-0.7177,-0.6735,-0.6154,-0.5413,0.0,0.0,0.0,0.0,0.0,0.0,0.0,0.0,0.0,0.0,0.0,0.0,0.0,0.0,0.0,0.0,0.0,0.0,0.0,0.0,0.0,0.0,0.0,0.0,0.0,0.0,0.0,0.0,0.0,0.0,0.0,0.0,0.0,0.0,0.0,0.0,0.0,0.0,0.0,0.0,0.0,0.0,0.0,0.0,0.0,0.0,0.0,0.0,0.0,0.0,0.0,0.0,0.0,0.0,0.0,0.0,0.0,0.0,0.0,0.0,0.0,0.0,0.0,0.0,0.0,0.0,0.0,0.0,0.0,0.0,0.0,0.0,0.0,0.0,0.0,0.0,0.0,0.0,0.0,0.0,0.0,0.0,0.0,0.0,0.0,0.0,0.0,0.0,0.0,0.0,0.0,0.0,0.0,0.0,0.0,0.0,0.0,0.0,0.0,0.0,0.0,0.0,-0.5641,-0.6418,-0.6817,-0.7345,-0.7492,-0.7037,-0.6776,-0.6358,-0.5706,-0.5198,0.0,0.0,0.0,0.0,0.0,0.0,0.0,0.0,0.0,0.0,0.0,0.0,0.0,0.0,0.0,0.0,0.0,0.0,0.0,0.0,0.0,0.0,0.0,0.0,0.0,0.0,0.0,0.0,0.0,0.0,0.0,0.0,0.0,0.0,0.0,0.0,0.0,0.0,0.0,0.0,0.0,0.0,0.0,0.0,0.0,0.0,0.0,0.0,0.0,0.0,0.0,0.0,0.0,0.0,0.0,0.0,0.0,0.0,0.0,0.0,0.0,0.0,0.0,0.0,0.0,0.0,0.0,0.0,0.0,0.0,0.0,0.0,0.0,0.0,0.0,0.0,0.0,0.0,0.0,0.0,0.0,0.0,0.0,0.0,0.0,0.0,0.0,0.0,0.0,0.0,0.0,0.0,0.0,0.0,0.0,0.0,0.0,0.0,0.0,0.0,0.0,0.0,-0.5181,-0.5717,-0.6126,-0.6486,-0.6538,-0.6133,-0.6133,-0.5893,-0.5279,-0.4919,0.0,0.0,0.0,0.0,0.0,0.0,0.0,0.0,0.0,0.0,0.0,0.0,0.0,0.0,0.0,0.0,0.0,0.0,0.0,0.0,0.0,0.0,0.0,0.0,0.0,0.0,0.0,0.0,0.0,0.0,0.0,0.0,0.0,0.0,0.0,0.0,0.0,0.0,0.0,0.0,0.0,0.0,0.0,0.0,0.0,0.0,0.0,0.0,0.0,0.0,0.0,0.0,0.0,0.0,0.0,0.0,0.0,0.0,0.0,0.0,0.0,0.0,0.0,0.0,0.0,0.0,0.0,0.0,0.0,0.0,0.0,0.0,0.0,0.0,0.0,0.0,0.0,0.0,0.0,0.0,0.0,0.0,0.0,0.0,0.0,0.0,0.0,0.0,0.0,0.0,0.0,0.0,0.0,0.0,0.0,0.0,0.0,0.0,0.0,0.0,0.0,0.0,-0.5021,-0.5606,0.0,-0.6135,-0.6205,-0.6014,-0.5755,-0.542,-0.4978,0.0,0.0,0.0,0.0,0.0,0.0,0.0,0.0,0.0,0.0,0.0,0.0,0.0,0.0,0.0,0.0,0.0,0.0,0.0,0.0,0.0,0.0,0.0,0.0,0.0,0.0,0.0,0.0,0.0,0.0,0.0,0.0,0.0,0.0,0.0,0.0,0.0,0.0,0.0,0.0,0.0,0.0,0.0,0.0,0.0,0.0,0.0,0.0,0.0,0.0,0.0,0.0,0.0,0.0,0.0,0.0,0.0,0.0,0.0,0.0,0.0,0.0,0.0,0.0,0.0,0.0,0.0,0.0,0.0,0.0,0.0,0.0,0.0,0.0,0.0,0.0,0.0,0.0,0.0,0.0,0.0,0.0,0.0,0.0,0.0,0.0,0.0,0.0,0.0,0.0,0.0,0.0,0.0,0.0,0.0,0.0,0.0,0.0,0.0,0.0,0.0,0.0,-0.4116,-0.4808,-0.5332,0.0,-0.5705,-0.5764,-0.5546,-0.5267,-0.4937,-0.4542,0.0,0.0,0.0,0.0,0.0,0.0,0.0,0.0,0.0,0.0,0.0,0.0,0.0,0.0,0.0,0.0,0.0,0.0,0.0,0.0,0.0,0.0,0.0,0.0,0.0,0.0,0.0,0.0,0.0,0.0,0.0,0.0,0.0,0.0,0.0,0.0,0.0,0.0,0.0,0.0,0.0,0.0,0.0,0.0,0.0,0.0,0.0,0.0,0.0,0.0,0.0,0.0,0.0,0.0,0.0,0.0,0.0,0.0,0.0,0.0,0.0,0.0,0.0,0.0,0.0,0.0,0.0,0.0,0.0,0.0,0.0,0.0,0.0,0.0,0.0,0.0,0.0,0.0,0.0,0.0,0.0,0.0,0.0,0.0,0.0,0.0,0.0,0.0,0.0,0.0,0.0,0.0,0.0,0.0,0.0,0.0,0.0,0.0,0.0,0.0,0.0,0.0,-0.3988,-0.4463,-0.4804,-0.48,-0.5102,-0.5081,-0.454,-0.4622,-0.4464,0.0,0.0,0.0,0.0,0.0,0.0,0.0,0.0,0.0,0.0,0.0,0.0,0.0,0.0,0.0,0.0,0.0,0.0,0.0,0.0,0.0,0.0,0.0,0.0,0.0,0.0,0.0,0.0,0.0,0.0,0.0,0.0,0.0,0.0,0.0,0.0,0.0,0.0,0.0,0.0,0.0,0.0,0.0,0.0,0.0,0.0,0.0,0.0,0.0,0.0,0.0,0.0,0.0,0.0,0.0,0.0,0.0,0.0,0.0,0.0,0.0,0.0,0.0,0.0,0.0,0.0,0.0,0.0,0.0,0.0,0.0,0.0,0.0,0.0,0.0,0.0,0.0,0.0,0.0,0.0,0.0,0.0,0.0,0.0,0.0,0.0,0.0,0.0,0.0,0.0,0.0,0.0,0.0,0.0,0.0,0.0,0.0,0.0,0.0,0.0,0.0,0.0,0.0,-0.3784,-0.4387,-0.4743,-0.4598,-0.4804,-0.482,-0.4527,-0.4277,-0.4052,-0.3841,0.0,0.0,0.0,0.0,0.0,0.0,0.0,0.0,0.0,0.0,0.0,0.0,0.0,0.0,0.0,0.0,0.0,0.0,0.0,0.0,0.0,0.0,0.0,0.0,0.0,0.0,0.0,0.0,0.0,0.0,0.0,0.0,0.0,0.0,0.0,0.0,0.0,0.0,0.0,0.0,0.0,0.0,0.0,0.0,0.0,0.0,0.0,0.0,0.0,0.0,0.0,0.0,0.0,0.0,0.0,0.0,0.0,0.0,0.0,0.0,0.0,0.0,0.0,0.0,0.0,0.0,0.0,0.0,0.0,0.0,0.0,0.0,0.0,0.0,0.0,0.0,0.0,0.0,0.0,0.0,0.0,0.0,0.0,0.0,0.0,0.0,0.0,0.0,0.0,0.0,0.0,0.0,0.0,0.0,0.0,0.0,0.0,0.0,0.0,0.0,0.0,0.0,-0.3813,-0.4488,-0.4865,-0.4607,-0.4759,-0.4757,-0.4441,-0.4052,-0.3789,-0.3721,0.0,0.0,0.0,0.0,0.0,0.0,0.0,0.0,0.0,0.0,0.0,0.0,0.0,0.0,0.0,0.0,0.0,0.0,0.0,0.0,0.0,0.0,0.0,0.0,0.0,0.0,0.0,0.0,0.0,0.0,0.0,0.0,0.0,0.0,0.0,0.0,0.0,0.0,0.0,0.0,0.0,0.0,0.0,0.0,0.0,0.0,0.0,0.0,0.0,0.0,0.0,0.0,0.0,0.0,0.0,0.0,0.0,0.0,0.0,0.0,0.0,0.0,0.0,0.0,0.0,0.0,0.0,0.0,0.0,0.0,0.0,0.0,0.0,0.0,0.0,0.0,0.0,0.0,0.0,0.0,0.0,0.0,0.0,0.0,0.0,0.0,0.0,0.0,0.0,0.0,0.0,0.0,0.0,0.0,0.0,0.0,0.0,0.0,0.0,0.0,0.0,0.0,-0.4071,-0.4749,-0.5108,-0.4804,-0.4904,-0.4809,-0.436,-0.3933,-0.3672,-0.36,0.0,0.0,0.0,0.0,0.0,0.0,0.0,0.0,0.0,0.0,0.0,0.0,0.0,0.0,0.0,0.0,0.0,0.0,0.0,0.0,0.0,0.0,0.0,0.0,0.0,0.0,0.0,0.0,0.0,0.0,0.0,0.0,0.0,0.0,0.0,0.0,0.0,0.0,0.0,0.0,0.0,0.0,0.0,0.0,0.0,0.0,0.0,0.0,0.0,0.0,0.0,0.0,0.0,0.0,0.0,0.0,0.0,0.0,0.0,0.0,-0.5367,0.0,0.0,0.0,0.0,0.0,0.0,0.0,0.0,0.0,0.0,0.0,0.0,0.0,0.0,0.0,0.0,0.0,0.0,0.0,0.0,0.0,0.0,0.0,0.0,0.0,0.0,0.0,0.0,0.0,0.0,0.0,0.0,0.0,0.0,0.0,0.0,0.0,0.0,0.0,0.0,0.0,-0.4676,-0.509,-0.5353,-0.5332,-0.5135,-0.4845,-0.4485,-0.3988,-0.3648,-0.3528,-0.3382,0.0,0.0,0.0,0.0,0.0,0.0,0.0,0.0,0.0,0.0,0.0,0.0,0.0,0.0,0.0,0.0,0.0,0.0,0.0,0.0,0.0,0.0,0.0,0.0,0.0,0.0,0.0,0.0,0.0,0.0,0.0,0.0,0.0,0.0,0.0,0.0,0.0,0.0,0.0,0.0,0.0,0.0,0.0,0.0,0.0,0.0,0.0,0.0,0.0,0.0,0.0,0.0,0.0,0.0,0.0,0.0,0.0,0.0,0.0,0.0,-0.5535,0.0,0.0,0.0,0.0,0.0,0.0,0.0,0.0,0.0,0.0,0.0,0.0,0.0,0.0,0.0,0.0,0.0,0.0,0.0,0.0,0.0,0.0,0.0,0.0,0.0,0.0,0.0,0.0,0.0,0.0,0.0,0.0,0.0,0.0,0.0,0.0,0.0,0.0,0.0,0.0,-0.519,-0.5473,-0.5674,-0.5774,-0.5456,-0.5105,-0.4771,-0.4278,-0.3876,-0.3613,-0.347,0.0,0.0,0.0,0.0,0.0,0.0,0.0,0.0,0.0,0.0,0.0,0.0,0.0,0.0,0.0,0.0,0.0,0.0,0.0,0.0,0.0,0.0,0.0,0.0,0.0,0.0,0.0,0.0,0.0,0.0,0.0,0.0,0.0,0.0,0.0,0.0,0.0,0.0,0.0,0.0,0.0,0.0,0.0,0.0,0.0,0.0,0.0,0.0,0.0,0.0,0.0,0.0,0.0,-0.6581,-0.6908,-0.7296,-0.7552,-0.7778,-0.7903,-0.6752,-0.6135,-0.5913,-0.5815,0.0,0.0,0.0,0.0,0.0,0.0,0.0,0.0,0.0,0.0,0.0,0.0,0.0,0.0,0.0,0.0,0.0,0.0,0.0,0.0,0.0,0.0,-0.5842,0.0,-0.6755,-0.6664,-0.6086,0.0,0.0,0.0,0.0,0.0,0.0,0.0,0.0,0.0,0.0,0.0,-0.5717,-0.5904,-0.6069,-0.622,-0.5795,-0.5379,-0.5071,-0.4587,-0.4144,-0.378,-0.3617,-0.3464,0.0,0.0,0.0,0.0,0.0,0.0,0.0,0.0,0.0,0.0,0.0,0.0,0.0,0.0,0.0,0.0,0.0,0.0,0.0,0.0,0.0,0.0,0.0,0.0,0.0,0.0,0.0,0.0,0.0,0.0,0.0,0.0,-0.7427,-0.7311,0.0,0.0,0.0,0.0,0.0,0.0,0.0,0.0,0.0,0.0,0.0,0.0,0.0,-0.6071,-0.6071,-0.6124,-0.6269,-0.6482,-0.7201,-0.7715,-0.8077,-0.8798,-0.9237,-0.9388,-0.8752,0.0,-0.6787,-0.627,0.0,0.0,0.0,0.0,0.0,0.0,0.0,0.0,0.0,0.0,0.0,0.0,0.0,0.0,0.0,0.0,0.0,0.0,0.0,0.0,0.0,0.0,-0.6559,-0.7278,-0.7376,-0.7398,0.0,-0.7,-0.6214,-0.6152,-0.5722,0.0,0.0,0.0,0.0,0.0,0.0,0.0,-0.641,-0.644,-0.6514,-0.6766,-0.602,-0.5438,-0.5281,-0.4674,-0.4201,-0.3971,-0.378,-0.3667,-0.3633,-0.383,0.0,0.0,0.0,0.0,0.0,0.0,0.0,0.0,0.0,0.0,0.0,0.0,0.0,0.0,0.0,0.0,0.0,0.0,0.0,0.0,0.0,0.0,0.0,0.0,0.0,0.0,0.0,0.0,0.0,-0.7335,-0.7391,-0.7709,-0.7482,-0.7312,0.0,0.0,0.0,0.0,0.0,0.0,0.0,0.0,0.0,-0.7154,-0.7272,-0.7336,-0.7336,-0.7517,-0.7699,-0.7912,-0.8454,-0.8907,-0.9292,-0.9857,-1.0223,-1.0348,-0.9963,-0.9488,-0.8859,-0.7542,-0.6837,-0.6565,0.0,0.0,0.0,0.0,-0.5428,-0.5309,-0.5268,-0.5256,-0.5242,-0.5154,0.0,0.0,0.0,0.0,0.0,0.0,0.0,-0.6165,0.0,0.0,-0.7781,-0.8401,-0.8569,-0.8664,-0.898,-0.8364,-0.7585,0.0,-0.6481,-0.6085,-0.5996,0.0,0.0,0.0,0.0,-0.6498,-0.7087,-0.6968,-0.6873,-0.6996,-0.6344,-0.5732,-0.5335,-0.4929,-0.4497,-0.403,-0.3919,-0.382,-0.3706,-0.3888,-0.3995,0.0,0.0,0.0,0.0,0.0,0.0,0.0,0.0,0.0,0.0,0.0,0.0,0.0,0.0,0.0,0.0,0.0,0.0,0.0,0.0,0.0,0.0,0.0,0.0,0.0,0.0,0.0,0.0,-0.7458,-0.7589,-0.8204,-0.7877,-0.7678,0.0,0.0,0.0,0.0,0.0,0.0,-0.8491,-0.8423,-0.8363,-0.8363,-0.8568,-0.8682,-0.8682,-0.8891,-0.9108,-0.9315,-0.9661,-1.0047,-1.0452,-1.0854,-1.112,-1.1235,-1.0974,-1.0869,-1.0706,-0.8827,-0.7918,-0.7664,-0.7155,-0.6737,-0.6395,-0.6209,-0.604,-0.5903,-0.5859,-0.5833,-0.5837,-0.5798,-0.5684,-0.5563,-0.5563,0.0,0.0,0.0,0.0,-0.7036,-0.757,-0.8209,-0.8848,-0.9338,-0.9528,-0.9638,-0.9764,-0.9392,-0.8771,0.0,-0.7246,-0.6827,-0.6747,0.0,0.0,0.0,0.0,-0.7128,-0.7727,-0.7539,-0.7353,-0.7331,-0.6743,-0.6093,-0.5458,-0.5159,-0.4752,-0.4168,-0.4099,-0.401,-0.3862,-0.3998,-0.4071,-0.4071,0.0,0.0,0.0,0.0,0.0,0.0,0.0,0.0,0.0,0.0,0.0,0.0,0.0,0.0,0.0,0.0,0.0,0.0,0.0,0.0,0.0,0.0,0.0,0.0,0.0,0.0,0.0,0.0,0.0,-0.8706,-0.8569,0.0,0.0,0.0,0.0,-0.8715,-0.8857,-0.9129,-0.9593,-0.9605,-0.9605,-0.9605,-0.9688,-0.9726,-0.9726,-0.981,-0.9939,-1.0147,-1.0544,-1.0946,-1.1347,-1.1748,-1.2037,-1.2201,-1.1951,-1.1824,-1.1675,-0.9812,-0.8941,-0.8759,-0.8158,-0.777,-0.7526,-0.7581,-0.747,-0.7298,-0.7298,-0.7298,-0.7277,-0.7144,-0.6715,-0.6252,-0.6252,-0.6337,0.0,0.0,-0.751,-0.8094,-0.8451,-0.8944,-0.9446,-0.979,-0.9873,-0.9918,-1.0048,-0.9853,-0.9431,0.0,-0.8004,-0.751,-0.7379,0.0,-0.7176,-0.7337,-0.7573,-0.7891,-0.8311,-0.8177,-0.802,-0.7959,-0.7249,-0.648,-0.5739,-0.5257,-0.4848,-0.4497,-0.4357,-0.4278,-0.4269,-0.4278,-0.4282,-0.4282,-0.429,0.0,0.0,0.0,0.0,0.0,0.0,0.0,0.0,0.0,0.0,0.0,0.0,0.0,0.0,0.0,0.0,0.0,0.0,0.0,0.0,0.0,0.0,0.0,0.0,0.0,0.0,0.0,0.0,-0.9398,-0.9423,0.0,-0.9609,-0.9365,-0.9443,-1.0044,-1.0131,-1.0413,-1.1026,-1.1051,-1.1051,-1.1051,-1.1244,-1.1334,-1.1334,-1.1366,-1.1422,-1.1496,-1.1531,-1.1652,-1.1804,-1.2074,-1.2224,-1.2291,-1.2191,-1.2163,-1.2091,-1.1246,-1.0585,-1.0069,-0.9543,-0.9193,-0.8936,-0.8879,-0.8758,-0.8623,-0.8623,-0.8623,-0.8578,-0.8316,-0.7968,-0.7624,-0.7503,-0.7492,-0.7587,-0.7857,-0.8504,-0.92,-0.9488,-1.0126,-1.0725,-1.0847,-1.0724,-1.0617,-1.0665,-1.0301,-0.9885,-0.9613,-0.8923,-0.8338,-0.819,-0.7992,-0.7922,-0.8139,-0.8429,-0.8754,-0.9066,-0.8855,-0.8545,-0.8233,-0.7661,-0.694,-0.6035,-0.5681,-0.5281,-0.4731,-0.4521,-0.4488,-0.4609,-0.4496,-0.4492,-0.4625,-0.4625,-0.4582,0.0,0.0,0.0,0.0,0.0,0.0,0.0,0.0,0.0,0.0,0.0,0.0,0.0,0.0,0.0,0.0,0.0,0.0,0.0,0.0,0.0,0.0,0.0,0.0,0.0,0.0,-0.9913,-1.0358,-1.0489,-1.0642,-1.0878,-1.0596,-1.0684,-1.1315,-1.1365,-1.1649,-1.2245,-1.2271,-1.2271,-1.2271,-1.2434,-1.2531,-1.2531,-1.2544,-1.2479,-1.2395,-1.2307,-1.2212,-1.2114,-1.2243,-1.2305,-1.2305,-1.2305,-1.2305,-1.2285,-1.2109,-1.1755,-1.1249,-1.0682,-1.0353,-1.0196,-1.0025,-0.9911,-0.9845,-0.9845,-0.9845,-0.9786,-0.9472,-0.922,-0.8997,-0.8741,-0.8641,-0.8659,-0.8936,-0.9476,-1.005,-1.0376,-1.0929,-1.1406,-1.1406,-1.1259,-1.1136,-1.1136,-1.0819,-1.0539,-1.0539,-0.9758,-0.9071,-0.8982,-0.8824,-0.8758,-0.8949,-0.9155,-0.9411,-0.9725,-0.9402,-0.8983,-0.8615,-0.8012,-0.7259,-0.6351,-0.594,-0.5507,-0.5003,-0.4743,-0.4658,-0.48,-0.467,-0.4642,-0.473,-0.4693,-0.4625,-0.4536,0.0,0.0,0.0,0.0,0.0,0.0,0.0,0.0,0.0,0.0,0.0,0.0,0.0,0.0,0.0,0.0,0.0,0.0,0.0,0.0,0.0,0.0,0.0,-1.0042,-1.0484,-1.1061,-1.1574,-1.1775,-1.1956,-1.2142,-1.1993,-1.2054,-1.253,-1.2543,-1.2745,-1.3213,-1.322,-1.324,-1.324,-1.324,-1.324,-1.324,-1.3227,-1.3073,-1.2811,-1.2823,-1.2643,-1.2331,-1.2331,-1.2331,-1.2331,-1.2318,-1.2318,-1.2318,-1.2305,-1.2305,-1.2226,-1.1508,-1.1239,-1.1205,-1.1009,-1.0946,-1.0946,-1.0946,-1.094,-1.0882,-1.0631,-1.0446,-1.0267,-0.9943,-0.9756,-0.9737,-1.0122,-1.0376,-1.0645,-1.1103,-1.1329,-1.1432,-1.1432,-1.1415,-1.1426,-1.1426,-1.1412,-1.1406,-1.1406,-1.0514,-0.9747,-0.9727,-0.9727,-0.9727,-0.9727,-0.9734,0.0,-1.0271,-0.9797,-0.9351,-0.9129,-0.827,-0.7403,-0.6675,-0.5999,-0.5534,-0.5323,-0.4997,-0.4808,-0.4808,-0.4804,-0.4742,-0.4609,-0.4485,-0.4412,-0.442,0.0,0.0,0.0,0.0,0.0,0.0,0.0,0.0,0.0,0.0,0.0,0.0,0.0,0.0,0.0,0.0,0.0,0.0,0.0,0.0,0.0,0.0,-1.1983,-1.1102,-1.1758,-1.2382,-1.2537,-1.3101,-1.3499,-1.3539,-1.3499,-1.3591,-1.3924,-1.3772,-1.3806,-1.4127,-1.3961,-1.3848,-1.3848,-1.3848,-1.3848,-1.3848,-1.3614,-1.344,-1.3373,-1.318,-1.3039,-1.2959,-1.2959,-1.2959,-1.2946,-1.2757,-1.2663,-1.2643,-1.2392,-1.2305,-1.2285,-1.2088,-1.1992,-1.1992,-1.1938,-1.1919,-1.1919,-1.1919,-1.1781,-1.1614,-1.1534,-1.1328,-1.1069,-1.0873,-1.0786,-1.0788,-1.0882,-1.1102,-1.1364,-1.1642,-1.1886,-1.2039,-1.2039,-1.1897,-1.1768,-1.1768,-1.1577,-1.1406,-1.1406,-1.1152,-1.0815,-1.0425,-1.0352,-1.0352,-1.0352,-1.0517,0.0,-1.0852,-1.0403,-0.9825,-0.9241,-0.8418,-0.7582,-0.6739,-0.6369,-0.5998,-0.5545,-0.53,-0.5122,-0.5024,-0.4925,-0.4852,-0.4816,-0.478,-0.4769,0.0,0.0,0.0,0.0,0.0,0.0,0.0,0.0,0.0,0.0,0.0,0.0,0.0,0.0,0.0,0.0,0.0,0.0,0.0,0.0,0.0,0.0,-1.2587,-1.3027,-1.2746,-1.3199,-1.3576,-1.3576,-1.4119,-1.4477,-1.4477,-1.4477,-1.4544,-1.4696,-1.4571,-1.4551,-1.4696,-1.4429,-1.4269,-1.4269,-1.4155,-1.4109,-1.4109,-1.3915,-1.3747,-1.36,-1.3433,-1.3307,-1.3193,-1.3193,-1.3193,-1.32,-1.3039,-1.2904,-1.2796,-1.2718,-1.2605,0.0,0.0,0.0,0.0,0.0,-1.2305,-1.2305,-1.2305,-1.2209,-1.2069,-1.2069,-1.1937,-1.1735,-1.1545,-1.1495,-1.1495,-1.1495,-1.1614,-1.1772,-1.1999,-1.2178,-1.2305,-1.2305,-1.2171,-1.2069,-1.2069,-1.1917,-1.1779,-1.1779,-1.1779,0.0,-1.1223,-1.1025,-1.0938,-1.0938,-1.1062,-1.1181,-1.1188,-1.0672,-0.999,-0.9194,-0.8388,-0.759,-0.6765,-0.6463,0.0,0.0,0.0,-0.5371,-0.5228,-0.5072,0.0,0.0,0.0,-0.4893,-0.4896,0.0,0.0,0.0,-0.4889,-0.4903,0.0,0.0,0.0,0.0,0.0,0.0,0.0,0.0,0.0,0.0,0.0,0.0,0.0,0.0,0.0,0.0,-1.3427,-1.3993,-1.4567,-1.4674,-1.4667,-1.4601,-1.4883,-1.5086,-1.5086,-1.5086,-1.5086,-1.5086,-1.5053,-1.5062,-1.5062,0.0,0.0,0.0,0.0,-1.4122,-1.4109,-1.4109,-1.3955,-1.3653,-1.3653,-1.354,-1.3307,-1.3307,-1.3307,-1.3307,-1.3253,-1.3106,-1.2904,-1.3113,-1.3066,-1.2811,-1.2484,-1.2351,-1.2345,-1.2311,-1.2305,-1.2305,-1.2305,0.0,0.0,-1.2305,-1.2325,-1.2305,-1.2062,-1.2027,-1.206,-1.206,-1.2015,-1.2067,-1.2285,-1.2325,-1.2305,-1.2305,-1.2305,-1.228,-1.2268,-1.2268,-1.2261,-1.2243,-1.2224,-1.217,-1.1928,-1.1635,-1.1442,-1.1425,-1.1425,-1.1392,-1.1288,-1.0704,-0.995,-0.9066,0.0,0.0,-0.6759,-0.6411,-0.6204,-0.6164,-0.5778,-0.5487,-0.5373,-0.5184,-0.5074,-0.5074,-0.4977,-0.493,-0.493,-0.5072,-0.5139,-0.5136,-0.5011,-0.4953,0.0,0.0,0.0,0.0,0.0,0.0,0.0,0.0,0.0,0.0,0.0,0.0,0.0,0.0,0.0,-1.3755,-1.4522,-1.5177,-1.5501,-1.5778,-1.5782,-1.5284,-1.5461,-1.5641,-1.5641,-1.5641,-1.5641,-1.5641,-1.5444,-1.5311,-1.5311,-1.5059,-1.4792,-1.4507,-1.4447,-1.4322,-1.4088,-1.4109,-1.4076,-1.4001,0.0,0.0,-1.3921,-1.3921,-1.3921,-1.3901,-1.364,-1.3487,-1.3433,-1.326,-1.3173,-1.3086,-1.2817,-1.2697,-1.267,-1.2392,-1.2305,-1.2305,-1.2305,-1.2305,-1.2305,-1.2305,-1.2484,-1.269,-1.2649,-1.2771,0.0,-1.2953,-1.2791,-1.2649,-1.2683,-1.2504,-1.2305,-1.2305,-1.2305,-1.2261,-1.2095,-1.2058,-1.2003,-1.1855,-1.1818,-1.1798,-1.1747,-1.1773,-1.1748,-1.1589,-1.1554,-1.1455,-1.1187,-1.0602,-0.9836,-0.8865,-0.8188,-0.7503,-0.677,-0.6484,-0.6241,-0.5978,-0.547,-0.5181,-0.5154,-0.5021,-0.4933,-0.4933,-0.5014,-0.5059,-0.5059,-0.5243,-0.5351,-0.5347,-0.532,-0.531,0.0,0.0,0.0,0.0,0.0,0.0,0.0,0.0,0.0,0.0,0.0,-1.2999,0.0,0.0,-1.4235,-1.4669,-1.538,-1.5909,-1.6032,-1.6179,-1.613,-1.5665,-1.5721,-1.5808,-1.5808,-1.5808,-1.5808,-1.5808,-1.5675,-1.5588,-1.5588,-1.5337,-1.5066,-1.475,-1.4596,-1.4427,-1.4302,-1.4302,-1.4302,-1.4302,-1.4302,-1.4229,-1.4109,-1.4109,-1.4109,-1.4082,-1.3907,-1.376,-1.3593,-1.3467,-1.3494,-1.3621,-1.3313,-1.3032,-1.2783,-1.2616,-1.2432,-1.2305,-1.2305,-1.2417,-1.2544,-1.2544,-1.2751,-1.2999,-1.2999,-1.3086,-1.3193,-1.3193,-1.31,-1.2965,-1.2824,-1.2677,-1.2504,-1.2338,-1.2231,-1.2114,-1.2021,-1.191,-1.1818,-1.1725,-1.1706,-1.1706,-1.1706,-1.1757,-1.1776,-1.1667,-1.1558,-1.1371,-1.1,-1.0425,-0.9662,-0.8659,-0.801,-0.7384,-0.671,-0.6468,-0.6256,-0.6009,-0.5753,-0.5557,-0.5455,-0.5392,-0.5342,-0.5342,-0.5413,-0.545,-0.545,-0.5545,-0.56,-0.56,-0.56,-0.5535,0.0,0.0,0.0,0.0,0.0,0.0,0.0,0.0,-1.4344,-1.4124,-1.4222,-1.4342,-1.4342,-1.4845,-1.5334,-1.5605,-1.6123,-1.6444,-1.6391,-1.6384,-1.6226,-1.5848,-1.5808,-1.5808,-1.5808,-1.5808,-1.5808,-1.5808,-1.5808,-1.5808,-1.5808,-1.5611,-1.5344,-1.5079,-1.4816,-1.4641,-1.4603,-1.4603,-1.4603,-1.4603,-1.4603,-1.4456,-1.4168,-1.4168,-1.4142,-1.4109,-1.4109,-1.3948,-1.3707,-1.3707,-1.3854,-1.4062,-1.38,-1.3394,-1.2951,-1.2898,-1.2704,-1.2478,-1.2478,-1.2651,-1.2878,-1.2878,-1.3066,-1.3273,-1.3273,-1.3313,-1.336,-1.336,-1.334,-1.324,-1.3006,-1.2871,-1.2723,-1.2464,-1.2215,-1.204,-1.1966,-1.1818,-1.1688,-1.1595,-1.1577,-1.1577,-1.1577,-1.1577,-1.1577,-1.1577,-1.1446,-1.1149,-1.0625,-1.0067,-0.9359,-0.8384,-0.7772,-0.72,-0.6588,-0.6359,-0.6197,-0.6043,-0.6043,-0.5968,-0.5803,-0.58,-0.58,-0.58,-0.58,-0.58,-0.58,-0.58,-0.58,-0.58,-0.58,-0.5692,-1.149,-1.1865,-1.2378,-1.2742,-1.3421,-1.3991,0.0,0.0,-1.4746,-1.471,-1.4997,-1.5251,-1.5251,-1.5755,-1.6244,-1.6513,-1.6859,-1.7012,-1.6693,-1.666,-1.6453,-1.5868,-1.5808,-1.5808,-1.5808,-1.5808,-1.5808,-1.5808,-1.5808,-1.5808,-1.5808,-1.5775,-1.5628,-1.5357,-1.5317,-1.5177,-1.4961,-1.4939,-1.4939,-1.4939,-1.4939,-1.4778,-1.4454,-1.4454,-1.4335,-1.4109,-1.4109,-1.4089,-1.4041,-1.4041,-1.4076,-1.4103,-1.4048,-1.3834,-1.3487,-1.3233,-1.314,-1.3106,-1.3106,-1.3113,-1.316,-1.316,-1.3333,-1.3553,-1.3553,-1.3754,-1.4009,-1.4009,-1.378,-1.3547,-1.3513,-1.3166,-1.2796,-1.2744,-1.2498,-1.2169,-1.1818,-1.1725,-1.1595,-1.1242,-1.1167,-1.1167,-1.1167,-1.1167,-1.1167,-1.1167,-1.1149,-1.0794,-0.9846,-0.9368,-0.8784,-0.7963,-0.7494,-0.6984,-0.6381,-0.6208,-0.604,-0.5839,-0.5839,-0.5821,-0.58,-0.58,-0.58,-0.58,-0.58,-0.58,-0.58,-0.58,-0.58,-0.58,-0.58,-0.5783,-1.191,-1.2445,-1.317,-1.3492,-1.4365,-1.5122,-1.5,-1.5704,-1.6239,-1.5765,-1.6077,-1.6391,-1.6192,-1.6524,-1.6852,0.0,-1.7234,-1.726,-1.6774,-1.6707,-1.6426,-1.5665,-1.5578,-1.5621,-1.5788,-1.5808,-1.5808,-1.5808,-1.5808,-1.5808,-1.5808,-1.5808,-1.5675,-1.5404,-1.5398,-1.5337,-1.524,-1.524,-1.524,-1.524,-1.524,-1.5086,-1.477,-1.4596,-1.4341,-1.4109,-1.4109,-1.4109,-1.4109,-1.4109,-1.4109,-1.4109,-1.4109,-1.4008,-1.3847,-1.3554,-1.3333,-1.3193,-1.3193,-1.33,-1.342,-1.342,-1.364,-1.388,-1.388,-1.3988,-1.4109,-1.4109,-1.4001,-1.384,-1.3646,-1.3433,-1.318,-1.2864,-1.2602,-1.2281,-1.18,-1.1614,-1.1446,-1.1167,-1.1093,-1.1093,-1.1093,-1.1093,-1.1055,-1.0943,-1.0831,-1.055,-1.0011,-0.9287,-0.8432,-0.738,-0.7022,-0.6711,-0.6337,-0.6259,-0.6184,-0.6086,-0.6086,-0.6086,-0.6086,-0.6086,-0.6086,-0.6086,-0.6086,-0.6086,-0.6086,-0.6086,-0.6086,-0.6086,-0.6086,-0.6086,-1.2397,-1.313,0.0,-1.4414,-1.5492,-1.639,-1.6158,-1.6922,-1.7475,-1.6805,-1.6958,-1.7132,-1.6867,-1.6966,-1.708,-1.7186,-1.7354,-1.7307,-1.678,-1.664,-1.6293,-1.5491,-1.5324,-1.5357,-1.5571,-1.5641,-1.5721,-1.5795,-1.5808,-1.5808,-1.5808,-1.5808,-1.5708,-1.5524,-1.5518,-1.5518,-1.5518,-1.5518,-1.5518,-1.5518,-1.5518,-1.5364,-1.5093,-1.4696,-1.4341,-1.4109,-1.4109,-1.4109,-1.4109,-1.4109,-1.4109,-1.4109,-1.4109,-1.4109,-1.4062,-1.3827,-1.3614,-1.3454,-1.3454,-1.3587,-1.3747,-1.3747,-1.3894,-1.4109,-1.4109,-1.4109,-1.4109,-1.4109,-1.4109,-1.4041,-1.38,-1.3666,-1.3493,-1.3119,-1.2842,-1.2563,-1.205,-1.1834,-1.1639,-1.1373,-1.1316,-1.1316,-1.1316,-1.1316,-1.1254,-1.103,-1.0816,-1.0523,-1.0097,-0.9098,-0.805,-0.7019,-0.6714,-0.6525,-0.6319,-0.63,-0.63,-0.63,-0.63,-0.63,-0.63,-0.63,-0.63,-0.63,-0.63,-0.63,-0.63,-0.63,-0.63,-0.63,-0.63,-0.63,-1.3192,-1.4138,-1.5009,-1.5673,-1.6855,-1.7771,-1.7499,-1.7775,-1.797,-1.7627,-1.7361,-1.7199,-1.7192,-1.6933,-1.6814,-1.7152,-1.7206,-1.708,-1.6747,-1.6491,-1.609,-1.5464,-1.5173,-1.5028,0.0,-1.5267,-1.5524,-1.5781,-1.5808,-1.5808,-1.5808,-1.5808,-1.5801,-1.5788,-1.5788,-1.5788,-1.5788,-1.5788,-1.5788,-1.5788,-1.5788,-1.5641,-1.5364,-1.4761,-1.4341,-1.4109,-1.4109,-1.4109,-1.4109,-1.4109,-1.4109,-1.4109,-1.4109,-1.4109,-1.4109,-1.4096,-1.4089,-1.4062,-1.4062,-1.4089,-1.4075,-1.4075,-1.4082,-1.4109,-1.4109,-1.4109,-1.4109,-1.4109,-1.4109,-1.4103,-1.4096,-1.3834,-1.36,-1.358,-1.336,-1.3074,-1.2665,-1.2566,-1.2426,-1.1982,-1.1876,-1.1876,-1.1876,-1.1876,-1.1792,-1.1519,-1.1309,-1.081,-0.9746,-0.8566,-0.7591,-0.6961,-0.6714,-0.6525,-0.6319,-0.63,-0.63,-0.63,-0.63,-0.63,-0.63,-0.63,-0.63,-0.63,-0.63,-0.63,-0.63,-0.63,-0.63,-0.63,-0.63,-0.63,-1.3616,-1.4684,-1.5717,-1.6404,-1.7381,-1.8116,-1.7865,-1.8244,-1.838,-1.7505,-1.7266,-1.7079,-1.669,-1.6326,-1.6219,-1.6545,-1.6591,-1.6558,-1.6458,-1.6166,-1.5765,-1.52,-1.4872,0.0,0.0,0.0,0.0,-1.5531,-1.5695,-1.5808,-1.5808,-1.5808,-1.5808,-1.5808,-1.5808,-1.5808,-1.5808,-1.5808,-1.5808,-1.5808,-1.5808,-1.5578,-1.5126,-1.4926,-1.4549,-1.4109,-1.4109,-1.4109,-1.4109,-1.4109,-1.4109,-1.4109,-1.4109,-1.4109,-1.4109,-1.4109,-1.4109,-1.4109,-1.4109,-1.4109,-1.4109,-1.4109,-1.4109,-1.4109,-1.4109,-1.4109,-1.4109,-1.4109,-1.4109,-1.4109,-1.4109,-1.4015,-1.3888,-1.3646,-1.3527,-1.3306,-1.2736,-1.2591,-1.2472,-1.198,-1.19,-1.19,-1.19,-1.19,-1.1816,-1.1531,-1.118,-1.0616,-0.9725,-0.9008,-0.8313,-0.7572,-0.7076,-0.6714,-0.6505,-0.6374,-0.63,-0.63,-0.63,-0.63,-0.63,-0.63,-0.63,-0.63,-0.63,-0.63,-0.63,-0.63,-0.63,-0.63,-0.63,-0.63,-1.4674,-1.5798,-1.6825,-1.7394,-1.8272,-1.8865,-1.8397,-1.8522,-1.8443,-1.7371,-1.6847,-1.6397,-1.5916,-1.5478,-1.5337,-1.5769,-1.5916,-1.6016,-1.6099,-1.5952,-1.5628,-1.52,-1.4879,-1.4676,0.0,0.0,0.0,-1.5398,-1.5641,-1.5808,-1.5808,-1.5808,-1.5808,-1.5808,-1.5808,-1.5808,-1.5808,-1.5808,-1.5808,-1.5808,-1.5701,-1.5424,-1.5008,-1.4879,-1.4564,-1.4109,-1.4109,-1.4109,-1.4109,-1.4109,-1.4109,-1.4096,-1.3968,-1.3928,-1.3915,-1.3814,-1.3841,-1.3941,-1.4048,-1.4109,-1.4109,-1.4109,-1.4109,-1.4109,-1.4109,-1.4109,-1.4109,-1.4109,-1.4109,-1.4109,-1.4109,-1.4109,-1.4041,-1.3827,-1.378,-1.3624,-1.3113,-1.2945,-1.2782,-1.2408,-1.2245,-1.2183,-1.2183,-1.2105,-1.1954,-1.167,-1.1303,-1.0754,-0.9914,-0.9463,-0.8908,-0.8108,-0.7533,-0.7076,-0.6733,-0.6528,-0.6374,-0.63,-0.63,-0.63,-0.63,-0.63,-0.63,-0.63,-0.63,-0.63,-0.63,-0.63,-0.63,-0.63,-0.63,-0.63,-1.6346,-1.7421,-1.8269,-1.8673,-1.9477,-1.994,-1.9002,-1.8622,-1.8191,-1.725,-1.6136,-1.526,0.0,0.0,-1.4236,-1.4845,-1.5173,-1.5444,-1.5735,-1.5768,-1.5668,0.0,0.0,0.0,0.0,0.0,0.0,-1.5398,0.0,-1.5808,-1.5808,-1.5808,-1.5808,-1.5808,-1.5808,-1.5808,-1.5808,-1.5808,-1.5808,-1.5801,-1.5531,-1.5267,-1.4995,-1.4656,-1.4341,-1.4109,-1.4109,-1.4109,-1.4109,-1.4109,-1.4109,-1.4076,-1.374,-1.36,-1.3567,-1.33,-1.3373,-1.3646,-1.3968,-1.4096,-1.4109,-1.4109,-1.4109,-1.4109,-1.4109,-1.4109,-1.4109,-1.4109,-1.4109,-1.4109,-1.4109,-1.4109,-1.4109,-1.4109,-1.4109,-1.4025,-1.3758,-1.354,-1.3334,-1.3143,-1.2875,-1.2705,-1.2705,-1.2499,-1.2225,-1.196,-1.1682,-1.1213,-1.0345,-0.9879,-0.9335,-0.8556,-0.8093,-0.7591,-0.6976,-0.6733,-0.6525,-0.6319,-0.63,-0.63,-0.63,-0.63,-0.63,-0.63,-0.63,-0.63,-0.63,-0.63,-0.63,-0.63,-0.63,-0.63,-1.7735,-1.8673,-1.9492,-1.9634,-1.9701,-1.9589,-1.8953,-1.8214,-1.7428,-1.6532,-1.5444,-1.4551,0.0,0.0,0.0,-1.4196,-1.439,0.0,-1.5404,-1.5317,0.0,-1.5378,0.0,-1.5008,-1.5008,-1.5247,0.0,0.0,-1.5641,-1.5808,-1.5808,-1.5808,-1.5808,-1.5808,-1.5808,-1.5808,-1.5808,-1.5808,-1.5808,-1.5801,-1.5531,-1.5267,-1.4995,-1.4656,-1.4341,-1.4109,-1.4109,-1.4109,-1.4109,-1.4109,-1.4109,-1.4076,-1.374,-1.36,-1.3567,-1.33,-1.3373,-1.3613,-1.3707,-1.388,-1.4109,-1.4109,-1.4109,-1.4109,-1.4109,-1.4109,-1.4109,-1.4109,-1.4109,-1.4109,-1.4109,-1.4109,-1.4109,-1.4109,-1.4109,-1.4025,-1.3758,-1.354,-1.3334,-1.3143,-1.2875,-1.2705,-1.2705,-1.265,-1.2518,-1.2231,-1.1972,-1.1512,-1.0745,-1.0419,-1.003,-0.9354,-0.8799,-0.8169,-0.7403,-0.7019,-0.6676,-0.6319,-0.63,-0.63,-0.63,-0.63,-0.63,-0.63,-0.63,-0.63,-0.63,-0.63,-0.63,-0.63,-0.63,-0.63,-1.9575,-2.0281,-2.0769,-2.0594,-2.0334,-1.986,-1.8837,-1.7884,-1.6881,-1.5812,-1.4678,-1.3814,-1.3525,-1.3001,-1.2917,0.0,0.0,0.0,-1.5549,-1.5812,-1.6018,0.0,-1.5972,0.0,-1.5754,-1.5641,-1.5585,0.0,-1.5708,-1.5808,-1.5808,-1.5808,-1.5808,-1.5808,-1.5808,-1.5808,-1.5808,-1.5808,-1.5808,-1.5801,-1.5404,-1.5146,-1.4972,-1.4522,-1.4242,-1.4109,-1.4109,-1.4109,-1.4109,-1.4109,-1.4109,-1.4041,-1.36,-1.3413,-1.336,-1.2953,-1.3067,-1.3413,-1.3413,-1.3714,-1.4109,-1.4109,-1.4109,-1.4109,-1.4109,-1.4109,-1.4109,-1.4109,-1.4109,-1.4109,-1.4109,-1.4109,-1.4109,-1.4109,-1.4109,-1.4067,-1.3913,-1.3631,-1.3307,-1.2988,-1.279,-1.2705,-1.2705,-1.2705,-1.2614,-1.2334,-1.2171,-1.1878,-1.1348,-1.0902,-1.04,-0.979,-0.9349,-0.8723,-0.7829,-0.7388,-0.6965,-0.647,-0.6354,-0.63,-0.63,-0.63,-0.63,-0.63,-0.63,-0.63,-0.63,-0.63,-0.63,-0.63,-0.63,-0.63,-2.1596,-2.2023,-2.2144,-2.1584,-2.1147,-2.0443,-1.8847,-1.7606,-1.6433,-1.5126,-1.3983,-1.3163,-1.2914,-1.261,-1.2662,-1.3609,0.0,-1.4993,-1.5892,-1.6673,-1.7248,-1.7479,-1.713,-1.6846,-1.6822,-1.6269,-1.5903,-1.5903,-1.5903,-1.5879,-1.5808,-1.5808,-1.5808,-1.5808,-1.5808,-1.5808,-1.5808,-1.5808,-1.5808,-1.5795,-1.5267,-1.5008,-1.4988,-1.4377,-1.4109,-1.4109,-1.4109,-1.4109,-1.4109,-1.4109,-1.4109,-1.4035,-1.346,-1.3247,-1.32,-1.2632,-1.276,-1.3247,-1.3247,-1.3627,-1.4109,-1.4109,-1.4109,-1.4109,-1.4109,-1.4109,-1.4109,-1.4109,-1.4109,-1.4109,-1.4109,-1.4136,-1.4142,-1.4142,-1.4196,-1.4223,-1.4223,-1.3822,-1.3321,-1.2845,-1.2729,-1.2705,-1.2705,-1.2705,-1.2626,-1.2397,-1.2316,-1.2213,-1.1984,-1.1359,-1.0718,-1.0141,-0.9875,-0.9328,-0.835,-0.7848,-0.733,-0.6718,-0.647,-0.6338,-0.63,-0.63,-0.63,-0.63,-0.63,-0.63,-0.63,-0.63,-0.63,-0.63,-0.63,-0.63,-2.319,-2.3477,-2.3572,-2.293,-2.1946,-2.0736,-1.9243,-1.7565,0.0,0.0,-1.3672,-1.2856,-1.2746,-1.2465,-1.2514,-1.3334,-1.4072,-1.4926,-1.6019,-1.6937,-1.7656,0.0,-1.7849,-1.7585,-1.7382,-1.6811,0.0,0.0,-1.6464,-1.6275,-1.5825,-1.5808,-1.5808,-1.5808,-1.5808,-1.5808,-1.5808,-1.5808,-1.5808,-1.5795,-1.5267,-1.5008,-1.4988,-1.4377,-1.4109,-1.4109,-1.4109,0.0,-1.4109,-1.4109,-1.4109,-1.4055,-1.368,-1.3527,-1.3487,-1.316,-1.3253,-1.3527,-1.3527,-1.3774,-1.4109,-1.4109,-1.4109,-1.4109,-1.4109,-1.4109,-1.4109,-1.4109,-1.4109,-1.4109,-1.4109,-1.4262,-1.4421,-1.4421,-1.4629,-1.4832,-1.4832,-1.4258,-1.3589,-1.3114,-1.284,-1.2705,-1.2705,-1.2705,-1.2687,-1.2644,-1.243,-1.2274,-1.2231,-1.1934,-1.152,-1.1022,-1.0659,-1.0063,-0.9165,-0.8418,-0.7738,-0.7142,-0.6756,-0.647,-0.63,-0.63,-0.63,-0.63,-0.63,-0.63,-0.63,-0.63,-0.63,-0.63,-0.63,-0.63,-2.4223,-2.438,-2.4306,-2.3411,-2.2478,-2.1309,-1.9557,0.0,0.0,-1.4854,-1.3712,-1.288,-1.2864,-1.2902,0.0,-1.3914,-1.4793,-1.5673,-1.6495,-1.7502,0.0,-1.8918,-1.8824,-1.8689,0.0,-1.7892,-1.7397,-1.72,-1.6941,-1.6572,-1.6052,-1.5879,-1.5808,-1.5808,-1.5808,-1.5808,-1.5808,-1.5808,-1.5808,-1.5795,-1.5267,-1.5008,-1.4988,-1.4377,-1.4109,-1.4109,-1.4109,-1.4109,-1.4109,-1.4109,-1.4109,-1.4076,-1.374,-1.36,-1.3567,-1.33,-1.3373,-1.36,-1.36,-1.382,-1.4109,-1.4109,-1.4109,-1.4109,-1.4109,-1.4109,-1.4109,-1.4109,-1.4109,-1.4122,-1.4275,-1.4394,-1.4541,-1.471,-1.479,-1.4755,-1.4613,-1.4196,-1.3751,-1.3371,-1.3087,-1.29,-1.29,-1.2801,-1.2705,-1.2705,-1.2596,-1.2518,-1.2518,-1.2409,-1.2077,-1.1464,-1.1234,-1.0732,-0.975,-0.9213,-0.8532,-0.7565,-0.7138,-0.6776,-0.647,-0.6354,-0.63,-0.63,-0.63,-0.63,-0.63,-0.63,-0.63,-0.63,-0.63,-0.63,-2.4831,-2.5012,-2.483,-2.3787,-2.2907,-2.176,-1.9726,-1.7823,0.0,-1.4874,-1.3811,-1.3099,-1.3099,-1.3445,-1.3885,0.0,-1.5469,-1.6411,-1.7017,-1.8154,-1.916,0.0,-1.9902,0.0,-1.9716,-1.9048,0.0,-1.804,-1.752,-1.6925,-1.6248,-1.595,-1.5808,-1.5808,-1.5808,-1.5808,-1.5808,-1.5808,-1.5808,-1.5795,-1.5267,-1.5008,-1.4988,-1.4377,-1.4109,-1.4109,-1.4109,-1.4109,-1.4109,-1.4109,-1.4109,-1.4062,-1.3807,-1.372,-1.3687,-1.346,-1.352,-1.372,-1.372,-1.3874,-1.4109,-1.4109,-1.4109,-1.4109,-1.4109,-1.4109,-1.4109,-1.4109,-1.4128,-1.4229,-1.4441,-1.4594,-1.4761,-1.5099,-1.4985,-1.4728,-1.4448,-1.4182,-1.3907,-1.3644,-1.3322,-1.3105,-1.3105,-1.287,-1.2705,-1.2705,-1.2705,-1.2705,-1.2705,-1.2705,-1.2485,-1.1907,-1.1757,-1.1298,-1.0338,-0.9959,-0.9277,-0.8121,-0.7599,-0.7119,-0.6676,-0.647,-0.6338,-0.63,-0.63,-0.63,-0.63,-0.63,-0.63,-0.63,-0.63,-0.63,-2.4962,-2.5348,-2.5397,-2.4522,-2.3248,-2.1661,-1.9593,0.0,-1.5802,-1.4599,-1.3877,-1.3456,-1.3456,-1.378,-1.4131,-1.4372,-1.5376,-1.6425,-1.7326,-1.8764,-1.9887,-2.0456,0.0,0.0,-2.0369,-1.9911,-1.9498,-1.9097,-1.8404,-1.7457,-1.6265,-1.595,-1.5808,-1.5808,-1.5808,-1.5808,-1.5808,-1.5808,-1.5808,-1.5795,-1.5267,-1.5008,-1.4988,-1.4377,-1.4109,-1.4109,-1.4109,-1.4109,0.0,-1.4109,-1.4109,-1.4103,-1.4076,-1.4048,-1.4041,-1.4036,-1.4021,-1.4048,-1.4048,-1.4062,-1.4109,-1.4109,-1.4109,-1.4109,-1.4109,-1.4109,-1.4109,-1.4109,-1.4282,-1.4467,-1.4487,-1.4917,-1.5391,-1.5655,-1.5556,-1.5343,-1.5072,-1.4615,-1.4178,-1.3922,-1.3443,-1.3105,-1.3105,-1.287,-1.2705,-1.2705,-1.2705,-1.2705,-1.2705,-1.2705,-1.2665,-1.2617,-1.2212,-1.1732,-1.1148,-1.0394,-0.9666,-0.8937,-0.8165,-0.748,-0.6903,-0.6676,-0.649,-0.63,-0.63,-0.63,-0.63,-0.63,-0.63,-0.63,-0.63,-0.63,-2.4424,-2.4805,-2.4771,-2.4189,-2.3011,-2.1505,-1.9497,0.0,-1.6253,-1.5132,-1.4474,-1.4097,-1.4097,-1.4631,-1.5041,-1.5001,-1.5991,-1.6851,-1.7093,-1.8261,-1.9244,-1.9697,-2.0596,0.0,0.0,0.0,-2.0114,-1.9258,-1.8781,-1.8218,-1.7559,-1.6894,-1.6454,-1.6282,-1.6275,-1.6275,-1.6275,-1.6275,-1.6211,-1.6045,-1.5655,-1.5318,-1.4995,-1.4536,-1.4255,-1.4109,-1.4109,-1.4109,0.0,-1.4109,-1.4109,-1.4109,-1.4109,-1.4109,-1.4109,-1.4109,-1.4109,-1.4109,-1.4109,-1.4109,-1.4109,-1.4109,-1.4109,-1.4109,-1.4109,-1.4109,-1.4109,-1.4109,-1.4295,-1.4541,-1.4743,-1.5224,-1.5661,-1.5775,-1.5523,-1.522,-1.5131,-1.4679,-1.426,-1.4165,-1.3845,-1.3569,-1.3569,-1.3242,-1.2936,-1.2936,-1.2792,-1.2705,-1.2705,-1.2705,-1.2705,-1.2705,-1.2529,-1.215,-1.1494,-1.1149,-1.0502,-0.9427,-0.8832,-0.8146,-0.7288,-0.6961,-0.6618,-0.63,-0.63,-0.63,-0.63,-0.63,-0.63,-0.63,-0.63,-0.63,-2.335,-2.3825,-2.3913,-2.3516,-2.2463,-2.1054,0.0,0.0,-1.649,-1.5478,-1.4945,-1.4656,-1.4656,-1.5155,-1.5576,-1.5551,-1.6361,-1.7034,-1.7162,-1.8098,-1.8926,0.0,0.0,-2.1248,0.0,-2.1028,-2.066,-1.9708,-1.9463,-1.9202,-1.8865,-1.821,-1.7613,-1.7052,-1.7028,-1.7028,-1.7028,-1.6958,-1.684,-1.6629,-1.6218,-1.5752,-1.5286,-1.4891,-1.4549,-1.4292,-1.4292,-1.4292,0.0,-1.4201,-1.4187,-1.418,-1.4124,-1.4109,-1.4109,-1.4109,-1.4109,-1.4109,-1.4109,-1.4109,-1.4109,-1.4109,-1.4109,-1.4109,-1.4109,-1.4109,-1.4109,-1.4109,-1.4355,-1.4736,-1.5124,-1.5524,-1.5808,-1.5808,-1.5434,-1.5107,-1.5107,-1.4694,-1.4298,-1.4298,-1.4087,-1.3906,-1.3906,-1.3515,-1.3214,-1.3214,-1.2985,-1.2825,-1.2825,-1.2753,-1.2705,-1.2705,-1.2705,-1.2461,-1.1854,-1.1687,-1.1149,-1.0076,-0.9483,-0.8746,-0.7809,-0.7316,-0.6868,-0.6393,-0.6338,-0.63,-0.63,-0.63,-0.63,-0.63,-0.63,-0.63,-2.169,-2.2519,-2.3013,-2.2606,-2.1563,-2.0253,-1.89,-1.7513,-1.625,-1.5383,-1.5098,-1.4985,-1.4985,-1.517,-1.5427,-1.5833,-1.6241,-1.6816,-1.7671,-1.8666,-1.9362,0.0,0.0,-2.1819,-2.1154,-2.129,-2.119,-2.0722,-2.0677,0.0,-1.9917,-1.9872,-1.9332,-1.8133,-1.8087,-1.8087,-1.8087,-1.7816,-1.7692,-1.7661,-1.6873,-1.6312,-1.5976,-1.543,-1.5006,-1.4692,-1.4692,-1.4692,0.0,-1.4482,-1.4398,-1.4377,-1.4187,-1.4109,-1.4109,-1.4109,-1.4109,-1.4109,-1.4109,-1.4109,-1.4109,-1.4109,-1.4109,-1.4109,-1.4109,-1.4109,-1.4109,-1.4109,-1.4531,-1.512,-1.5648,-1.5801,-1.5808,-1.5808,-1.5434,-1.5107,-1.5107,-1.4694,-1.4298,-1.4298,-1.4087,-1.3906,-1.3906,-1.3688,-1.3491,-1.3491,-1.3268,-1.3099,-1.3099,-1.2852,-1.2705,-1.2705,-1.2705,-1.2596,-1.231,-1.1868,-1.1419,-1.1016,-1.0108,-0.924,-0.8429,-0.7811,-0.7215,-0.6602,-0.6393,-0.63,-0.63,-0.63,-0.63,-0.63,-0.63,-0.63,-2.0684,-2.1406,-2.1765,-2.1649,-2.0849,-1.9785,-1.8479,-1.7375,-1.6484,-1.5926,-1.5531,-1.5274,-1.5274,-1.5592,-1.5934,-1.6189,-1.6624,-1.717,0.0,0.0,0.0,-1.9542,-2.0692,-2.1497,0.0,0.0,-2.1387,-2.1327,-2.1066,-2.084,-2.0673,-2.065,-2.0167,-1.908,-1.9057,-1.9057,-1.9057,-1.8835,-1.8619,-1.8442,-1.7781,-1.7206,-1.6734,-1.6282,-1.5927,-1.5664,-1.5664,-1.5539,-1.538,-1.5318,-1.5138,-1.4873,-1.4818,-1.4664,-1.4489,-1.4363,-1.4442,-1.4633,-1.4447,-1.4361,-1.4361,-1.4361,-1.4249,-1.4109,-1.4109,-1.4109,-1.419,-1.4598,-1.4986,-1.5344,-1.5708,-1.5808,-1.5808,-1.5808,-1.5594,-1.5309,-1.5131,-1.4814,-1.452,-1.4346,-1.4226,-1.4171,-1.4171,-1.3954,-1.3756,-1.3756,-1.3562,-1.3304,-1.3123,-1.3027,-1.2894,-1.2723,-1.2705,-1.2596,-1.2316,-1.2158,-1.1812,-1.1168,-1.0595,-0.9904,-0.9043,-0.8301,-0.7622,-0.7026,-0.6679,-0.6432,-0.63,-0.63,-0.63,-0.63,-0.63,-0.63,-1.9266,-1.9903,-2.0255,-2.044,-1.9942,0.0,-1.8215,-1.7454,-1.683,-1.6406,-1.5967,-1.5654,-1.5654,-1.5894,-1.6196,-1.6467,-1.6918,-1.7449,0.0,0.0,0.0,-2.0175,0.0,0.0,0.0,-2.1753,-2.1622,-2.185,-2.15,-2.1253,-2.1253,-2.1253,-2.0975,-2.0357,-2.0153,-2.0062,-2.0062,-1.9866,-1.9683,-1.9507,-1.877,-1.8201,-1.7725,-1.724,-1.6865,-1.6583,-1.6583,-1.644,0.0,-1.6118,-1.5871,-1.5582,-1.5513,-1.5305,-1.5061,-1.4986,-1.4992,-1.4999,-1.4862,-1.4675,-1.4501,-1.4501,-1.4322,-1.4109,-1.4109,-1.4162,-1.437,-1.4852,-1.5193,-1.5464,-1.5728,-1.5808,-1.5808,-1.5808,-1.5659,-1.5428,-1.5155,-1.4885,-1.4616,-1.4346,-1.4298,-1.4298,-1.4298,-1.4159,-1.4051,-1.4051,-1.3833,-1.3581,-1.3418,-1.331,-1.3147,-1.287,-1.284,-1.2732,-1.246,-1.2367,-1.2071,-1.1549,-1.1082,-1.0454,-0.9611,-0.8913,-0.8189,-0.7446,-0.7026,-0.6683,-0.6412,-0.6338,-0.63,-0.63,-0.63,-0.63,0.0,-1.8205,-1.8666,-1.9131,-1.8918,-1.849,-1.8088,-1.7686,0.0,-1.6849,-1.6396,-1.6095,-1.6095,-1.6095,-1.6226,-1.6629,-1.7083,0.0,0.0,-1.9113,0.0,0.0,-2.1213,0.0,-2.2222,-2.1947,-2.1883,-2.2268,-2.1938,-2.1696,-2.1696,-2.1696,-2.1696,-2.1696,-2.1275,-2.1042,-2.1042,-2.0848,-2.0736,-2.0701,-1.9766,-1.9164,-1.8807,-1.8225,-1.7784,0.0,-1.7501,-1.7338,-1.7094,-1.6903,-1.6686,-1.6476,-1.6283,-1.6036,-1.5812,-1.5951,-1.5705,-1.5338,-1.5396,-1.5062,-1.4598,-1.4507,-1.4322,-1.4088,-1.4115,-1.4322,-1.4609,-1.4905,-1.5213,-1.5491,-1.5735,-1.5808,-1.5808,-1.5808,-1.5666,-1.5452,-1.5202,-1.4909,-1.464,-1.437,-1.4322,-1.4298,-1.4298,-1.4298,-1.4298,-1.4298,-1.4087,-1.3924,-1.3912,-1.3672,-1.3412,-1.3129,-1.3105,-1.2991,-1.2729,-1.246,-1.2233,-1.2023,-1.1523,-1.0885,-1.0115,-0.9595,-0.8865,-0.7897,-0.7419,-0.7007,-0.6616,-0.6421,-0.6327,-0.6317,-0.6317,-0.631,-1.6378,0.0,-1.8244,-1.8664,-1.8676,-1.849,0.0,-1.7686,-1.737,-1.7256,-1.6627,-1.6095,-1.6095,-1.6095,-1.6226,-1.6629,0.0,-1.7564,-1.8669,0.0,0.0,-2.0697,-2.1209,-2.1755,-2.2249,-2.1947,-2.1883,-2.2268,-2.1938,-2.1696,-2.1696,-2.1696,-2.1696,-2.1696,-2.1597,-2.153,-2.153,-2.1338,-2.1074,-2.076,-2.0021,-1.9476,-1.9096,-1.8687,-1.8469,-1.8382,-1.8382,-1.8273,-1.8063,-1.8023,-1.776,-1.7387,-1.7347,-1.7062,-1.6713,-1.6902,-1.6806,-1.6572,-1.6533,-1.617,-1.5585,-1.4773,-1.4322,-1.415,-1.4349,-1.4623,-1.4899,-1.4988,-1.5331,-1.5721,-1.5788,-1.5808,-1.5808,-1.5808,-1.5754,-1.5666,-1.5452,-1.5196,-1.4933,-1.4664,-1.4442,-1.4298,-1.4298,-1.4298,-1.4298,-1.4298,-1.4244,-1.4135,-1.393,-1.3851,-1.3611,-1.3153,-1.3105,-1.2991,-1.2729,-1.265,-1.2503,-1.2242,-1.1768,-1.1324,-1.0932,-1.0027,-0.9268,-0.8732,-0.7673,-0.6999,-0.6745,-0.6664,-0.6556,-0.6463,-0.6463,-0.6405,-1.6191,-1.6885,-1.7513,-1.7942,-1.8186,-1.8274,-1.804,-1.7832,-1.7683,-1.7683,0.0,-1.6383,-1.6383,-1.6383,-1.6445,-1.6658,-1.7231,0.0,0.0,0.0,-2.0681,-2.0769,-2.1324,-2.1874,0.0,-2.1947,-2.1883,-2.2268,-2.1938,-2.1696,-2.1696,-2.1696,-2.1696,-2.1696,-2.1696,-2.1696,-2.1696,-2.1584,-2.1331,-2.0934,-2.0373,-1.9913,-1.9518,-1.9142,-1.8982,-1.8982,-1.8982,-1.8862,-1.8683,-1.8683,-1.8474,-1.8161,-1.8161,-1.8062,-1.792,-1.798,-1.7902,-1.7761,-1.753,-1.6788,-1.5788,-1.4948,-1.4429,-1.4142,-1.4414,-1.473,-1.5035,-1.5146,-1.5484,-1.5808,-1.5808,-1.5808,-1.5808,-1.5808,-1.5808,-1.573,-1.554,-1.5291,-1.5011,-1.4742,-1.449,-1.4298,-1.4298,-1.4298,-1.4298,-1.4298,-1.4298,-1.4244,-1.4105,-1.4087,-1.3882,-1.3334,-1.328,-1.3117,-1.2741,-1.2705,-1.2596,-1.233,-1.1949,-1.1587,-1.121,-1.0522,-0.9784,-0.9022,-0.8047,-0.7354,-0.6938,-0.6893,-0.6781,-0.6597,-0.6597,-0.6556,-1.6297,-1.6599,-1.684,-1.7353,-1.7695,-1.791,-1.791,0.0,0.0,0.0,0.0,0.0,0.0,-1.6763,0.0,0.0,0.0,0.0,-1.9448,-2.0145,-2.0711,-2.1071,-2.1508,0.0,-2.2185,-2.1966,-2.192,-2.2195,-2.1901,-2.1696,-2.1696,-2.1696,-2.1696,-2.1696,-2.1696,-2.1696,-2.1696,-2.1696,-2.1471,-2.1007,-2.0656,-2.0262,-1.9804,-1.9467,-1.9301,-1.9301,0.0,0.0,-1.9062,-1.9062,-1.8942,-1.8792,-1.8792,-1.8875,-1.9003,-1.9016,-1.8911,-1.8696,-1.8249,-1.7076,-1.5667,-1.5138,-1.4564,-1.417,-1.4482,-1.4763,-1.5089,-1.5447,-1.5648,-1.5808,-1.5808,-1.5808,-1.5808,-1.5808,-1.5808,-1.5761,-1.5588,-1.5315,-1.5035,-1.4814,-1.452,-1.4298,-1.4298,-1.4298,-1.4298,-1.4298,-1.4298,-1.4298,-1.4298,-1.4298,-1.4111,-1.3605,-1.3515,-1.3292,-1.2813,-1.2729,-1.2608,-1.2391,-1.2105,-1.1728,-1.1216,-1.0883,-1.0194,-0.9117,-0.8482,-0.7871,-0.7234,-0.7178,-0.7009,-0.6743,-0.6743,-0.6722,-1.5561,-1.6132,-1.6892,-1.7715,-1.7695,-1.7497,-1.7497,-1.7497,0.0,0.0,0.0,0.0,0.0,-1.7043,-1.7093,0.0,0.0,-1.9402,0.0,0.0,-2.1034,-2.1099,0.0,-2.2103,-2.1806,-2.2048,-2.2094,-2.1806,-2.1723,-2.1696,-2.1696,-2.1696,-2.1696,-2.1696,-2.1696,-2.1696,-2.1696,-2.1696,-2.1333,-2.0592,-2.0527,-2.0106,-1.9393,-1.9329,-1.9301,-1.9301,0.0,-1.9282,-1.9242,-1.9242,-1.9242,-1.9202,-1.9202,-1.9129,-1.9082,-1.9734,-1.959,-1.8951,-1.8323,-1.7205,-1.5954,-1.5417,-1.4733,-1.421,-1.4758,-1.4952,-1.5153,-1.5942,-1.5992,-1.5808,-1.5808,-1.5808,-1.5808,-1.5808,-1.5808,-1.5778,-1.5754,-1.541,-1.5083,-1.5059,-1.464,-1.4298,-1.4298,-1.4298,-1.4298,-1.4298,-1.4298,-1.4298,-1.4298,-1.4298,-1.4177,-1.3876,-1.3646,-1.337,-1.3063,-1.2837,-1.2687,-1.2644,-1.2397,-1.1934,-1.1222,-1.0618,-1.0048,-0.9525,-0.8858,-0.8308,-0.7867,-0.7579,-0.728,-0.6943,-0.6894,-0.6803,-1.5966,-1.6395,-1.6902,-1.7776,-1.7871,-1.7715,-1.7715,-1.7715,-1.7715,0.0,0.0,0.0,0.0,0.0,-1.7237,-1.8113,0.0,-1.9675,-1.9918,-2.0793,-2.1425,0.0,0.0,-2.2478,-2.2075,-2.2195,-2.214,-2.1723,-2.1696,-2.1696,-2.1696,-2.1696,-2.1696,-2.1696,-2.1696,-2.1608,-2.1379,-2.137,-2.1077,-2.05,-2.05,-2.0069,-1.9301,-1.9301,-1.9301,-1.9301,0.0,-1.9301,-1.9301,-1.9301,-1.9301,-1.9301,-1.9301,-1.9379,-1.9539,-2.0105,-1.9992,-1.9387,-1.8395,-1.7372,-1.637,-1.5407,-1.4855,-1.4631,-1.4928,-1.5093,-1.534,-1.5879,-1.6052,-1.6106,-1.6259,-1.6186,-1.6112,-1.6242,-1.6035,-1.5848,-1.6032,-1.5569,-1.5107,-1.5107,-1.4664,-1.4298,-1.4298,-1.4298,-1.4298,-1.4298,-1.4298,-1.4298,-1.4298,-1.4298,-1.4195,-1.3936,-1.3797,-1.3539,-1.3135,-1.2985,-1.2786,-1.2491,-1.2379,-1.2016,-1.1397,-1.0972,-1.0528,-1.0092,-0.9568,-0.9035,-0.8486,-0.8115,-0.766,-0.7154,-0.7021,-0.6871,-1.6492,-1.6775,-1.7025,-1.7679,-1.7861,-1.7844,-1.7801,-1.7794,-1.7784,-1.7726,0.0,0.0,0.0,-1.7198,0.0,-1.8871,-1.9649,-2.0243,-2.0723,-2.1467,-2.198,-2.198,-2.2611,-2.284,-2.235,-2.2396,-2.2227,-2.1733,-2.1696,-2.1696,-2.1696,-2.1696,-2.1696,-2.1696,-2.1696,-2.1553,-2.1233,-2.1154,-2.0839,-2.0363,-2.0363,-1.9987,-1.9301,-1.9301,-1.9301,-1.9301,-1.9301,-1.9301,-1.9301,-1.9301,-1.9301,-1.9301,-1.9301,-1.9558,-1.9925,-2.0061,-1.9965,-1.9566,-1.8308,-1.734,-1.6476,-1.5284,-1.4857,-1.4827,-1.4968,-1.514,-1.5384,-1.5788,-1.6146,-1.6438,-1.6567,-1.6486,-1.6458,-1.6653,-1.6335,-1.6075,-1.6351,-1.5865,-1.5333,-1.5215,-1.4811,-1.4443,-1.4334,-1.4298,-1.4298,-1.4298,-1.4298,-1.4298,-1.4298,-1.4298,-1.422,-1.402,-1.3942,-1.3672,-1.3147,-1.3105,-1.29,-1.2418,-1.2322,-1.2111,-1.1688,-1.1419,-1.1115,-1.0753,-1.0359,-0.9859,-0.9245,-0.8765,-0.8168,-0.7484,-0.7195,-0.6944,-1.6586,-1.7015,-1.7353,-1.7429,-1.7448,-1.7389,-1.7205,-1.7172,-1.7106,-1.6916,0.0,0.0,0.0,-1.7934,-1.8715,-1.9202,-2.0558,-2.1562,-2.1617,0.0,-2.2821,-2.2821,-2.3197,-2.3142,-2.2378,-2.2638,-2.2538,-2.1751,-2.1696,-2.1696,-2.1696,-2.1696,-2.1696,-2.1696,-2.1696,-2.17,-2.1672,-2.1279,-2.0701,-1.993,-1.993,-1.9721,-1.9301,-1.9301,-1.9301,-1.9301,-1.9301,-1.9301,-1.9301,-1.9301,-1.9301,-1.9301,-1.9301,-1.9558,-1.9852,-1.9445,-1.9272,-1.9075,-1.787,-1.6795,-1.5857,-1.5123,-1.4578,-1.427,-1.4819,-1.4999,-1.5193,-1.6029,-1.6446,-1.662,-1.6397,-1.6486,-1.668,-1.67,-1.6673,-1.6647,-1.6667,-1.6417,-1.6082,-1.5564,-1.5238,-1.4881,-1.4388,-1.4298,-1.4298,-1.4298,-1.4298,-1.4298,-1.4298,-1.4298,-1.4292,-1.4268,-1.4051,-1.3672,-1.3147,-1.3105,-1.2973,-1.2693,-1.2445,-1.2274,-1.2237,-1.18,-1.157,-1.1527,-1.1123,-1.0706,-1.0292,-0.9582,-0.8812,-0.8041,-0.7525,-0.7132,-1.6216,-1.6451,-1.6721,-1.7262,-1.7307,-1.7318,-1.7747,-1.7776,-1.7765,-1.7953,-1.8026,0.0,0.0,0.0,-1.8906,-1.9566,-2.0601,-2.1498,-2.2011,-2.2547,-2.2995,-2.3242,-2.3675,-2.3602,-2.2748,-2.2812,-2.2574,-2.1751,-2.1696,-2.1696,-2.1696,-2.1696,-2.1696,-2.1696,-2.1696,-2.159,-2.1324,-2.0921,-2.0445,-1.9914,-1.9914,-1.9694,-1.9301,-1.9301,-1.9301,-1.9301,-1.9301,-1.9301,-1.9301,-1.9301,-1.9301,-1.9301,-1.9301,-1.9558,-1.9843,-1.9374,-1.9193,-1.8986,-1.7618,-1.6733,-1.6031,-1.4942,-1.4625,-1.4698,-1.4919,-1.5113,-1.5401,-1.6103,-1.648,-1.6727,-1.6826,-1.6926,-1.7053,-1.7234,-1.6974,-1.676,-1.6966,-1.6645,-1.6186,-1.582,-1.5413,-1.4986,-1.4625,-1.4413,-1.4298,-1.4298,-1.4298,-1.4298,-1.4298,-1.4298,-1.4298,-1.4298,-1.4063,-1.3827,-1.3605,-1.3292,-1.3057,-1.2948,-1.2705,-1.246,-1.2318,-1.2134,-1.1967,-1.1786,-1.1384,-1.1062,-1.0774,-0.9958,-0.9184,-0.8452,-0.7839,-0.7352,-1.6168,-1.6295,-1.6445,-1.7139,-1.715,-1.7233,-1.8128,-1.8162,-1.8101,-1.8451,-1.8397,-1.8304,-1.8284,0.0,0.0,0.0,-2.0866,-2.1663,-2.2222,-2.2638,-2.3004,-2.3279,-2.3578,-2.351,-2.2776,-2.2712,-2.2428,-2.1742,-2.1696,-2.1632,-2.1526,-2.1517,-2.1453,-2.1333,-2.1324,-2.1196,-2.0903,-2.0509,-2.0179,-1.9914,-1.9776,-1.9577,-1.9301,-1.9301,-1.9301,-1.9301,-1.9301,-1.9301,-1.9301,-1.9301,-1.9301,-1.9301,-1.9301,-1.9476,-1.9672,-1.9277,-1.9065,-1.8755,-1.7448,-1.6696,-1.6109,-1.4888,-1.4643,-1.482,-1.4948,-1.5126,-1.5427,-1.611,-1.648,-1.6774,-1.71,-1.7266,-1.7361,-1.7561,-1.7275,-1.7041,-1.7267,-1.7006,-1.6585,-1.6107,-1.5727,-1.532,-1.4794,-1.4558,-1.4401,-1.431,-1.4298,-1.4298,-1.4298,-1.4298,-1.4298,-1.4298,-1.4135,-1.3996,-1.3912,-1.3551,-1.328,-1.3111,-1.2924,-1.2717,-1.2445,-1.2439,-1.2334,-1.2153,-1.1826,-1.1538,-1.1318,-1.0511,-0.9735,-0.8993,-0.8416,-0.7862,-1.6586,-1.6687,-1.6753,-1.7017,-1.6942,-1.7083,-1.8145,-1.808,-1.7868,-1.8082,-1.8118,-1.8237,-1.8631,-1.9364,0.0,-2.0436,-2.1508,-2.2295,-2.2304,-2.2638,-2.2904,-2.2904,-2.2904,-2.2739,-2.2341,-2.2304,-2.214,-2.1714,-2.1687,-2.1526,-2.1126,-2.1099,-2.0924,-2.0509,-2.05,-2.05,-2.05,-2.0106,-1.9914,-1.9905,-1.9483,-1.9301,-1.9301,-1.9301,-1.9301,-1.9301,-1.9301,-1.9301,-1.9301,-1.9301,-1.9301,-1.9301,-1.9301,-1.9301,-1.9282,-1.9073,-1.8743,-1.8273,-1.7326,-1.6607,-1.5942,-1.5013,-1.4566,-1.4486,-1.4887,-1.5008,-1.5189,-1.6043,-1.648,-1.6774,-1.71,-1.7394,-1.7608,-1.7608,-1.7608,-1.7608,-1.7608,-1.7608,-1.7338,-1.6484,-1.6291,-1.5966,-1.4886,-1.4721,-1.4599,-1.434,-1.4298,-1.4298,-1.4298,-1.4298,-1.4298,-1.4298,-1.4298,-1.4189,-1.393,-1.3906,-1.3659,-1.3141,-1.3105,-1.2979,-1.2717,-1.2705,-1.2705,-1.2705,-1.2491,-1.2262,-1.2,-1.1338,-1.0543,-0.9688,-0.9287,-0.872,-1.5642,-1.565,-1.5769,-1.6338,0.0,0.0,-1.8126,-1.8425,-1.8689,0.0,-1.9327,-1.9062,-1.9474,-1.9749,0.0,-2.0436,-2.1279,-2.1984,-2.2268,-2.2414,-2.2574,-2.2876,-2.2904,-2.2739,-2.2341,-2.2304,-2.202,-2.1324,-2.1269,-2.1095,-2.0692,-2.0674,-2.0619,-2.05,-2.05,-2.05,-2.05,-2.0106,-1.9914,-1.9905,-1.9483,-1.9301,-1.9301,-1.9301,-1.9301,-1.9301,-1.9301,-1.9301,-1.9301,-1.9301,-1.9301,-1.9301,-1.9301,-1.9301,-1.9282,-1.9073,-1.8743,-1.8313,-1.77,-1.6968,-1.6216,-1.5609,-1.5047,-1.4642,-1.4869,-1.4958,-1.5126,-1.5772,-1.6319,-1.6774,-1.71,-1.7394,-1.7608,-1.7608,-1.7608,-1.7608,-1.7608,-1.7608,-1.7476,-1.7009,-1.6587,-1.6143,-1.5633,-1.5062,-1.4666,-1.4581,-1.4425,-1.4298,-1.4298,-1.4298,-1.4298,-1.4298,-1.4298,-1.4262,-1.4183,-1.4014,-1.3839,-1.3659,-1.331,-1.2979,-1.2717,-1.2705,-1.2705,-1.2705,-1.2332,-1.208,-1.2,-1.1321,-1.07,-1.011,-0.9666,-0.916,-1.5268,-1.5271,-1.5483,-1.5968,-1.6407,-1.7127,-1.8647,0.0,0.0,0.0,-2.0106,-1.984,-2.0097,-2.0271,0.0,-2.0692,-2.1288,-2.1778,-2.2039,-2.192,-2.1911,-2.2167,-2.2034,-2.1842,-2.1608,-2.1581,-2.1379,-2.0906,-2.0848,-2.0683,-2.028,-2.0262,-2.0189,-2.0024,-2.0014,-2.0014,-2.0014,-1.9776,-1.9657,-1.9657,-1.9421,-1.9301,-1.9301,-1.9301,-1.9301,-1.9301,-1.9301,-1.9301,-1.9301,-1.9301,-1.9301,-1.9301,-1.9301,-1.9301,-1.9282,-1.9172,-1.8913,-1.8583,-1.8213,-1.7578,-1.6825,-1.627,-1.565,-1.5091,-1.5033,-1.506,-1.5219,-1.5665,-1.6228,-1.6774,-1.71,-1.7394,-1.7608,-1.7608,-1.7608,-1.7608,-1.7608,-1.7608,-1.7536,-1.7252,-1.6793,-1.6346,-1.5966,-1.5419,-1.4956,-1.4726,-1.4479,-1.4298,-1.4298,-1.4298,-1.4298,-1.4298,-1.4298,-1.4298,-1.4298,-1.4153,-1.4014,-1.3912,-1.3491,-1.3135,-1.2858,-1.2765,-1.2705,-1.2705,-1.2332,-1.2102,-1.2,-1.1505,-1.1003,-1.0446,-1.0164,-0.9733,-1.5339,-1.5407,-1.5628,-1.5874,-1.6607,0.0,-1.954,-1.9941,-2.0021,-2.0509,0.0,-2.0546,-2.0546,-2.0811,-2.1053,-2.1053,-2.1352,-2.1577,-2.1577,-2.1269,-2.1053,-2.1053,-2.072,-2.05,-2.05,-2.05,-2.0482,-2.0445,-2.0445,-2.0271,-1.9877,-1.985,-1.9657,-1.9265,-1.9246,-1.9228,-1.9191,-1.9228,-1.9246,-1.9246,-1.9283,-1.9301,-1.9301,-1.9301,-1.9301,-1.9301,-1.9301,-1.9301,-1.9301,-1.9301,-1.9301,-1.9301,-1.9301,-1.9301,-1.9301,-1.9301,-1.9163,-1.8962,-1.8792,-1.8302,-1.7659,-1.6996,-1.6332,-1.571,-1.5326,-1.5231,-1.5336,-1.5645,-1.6148,-1.6693,-1.7045,-1.7327,-1.7568,-1.7568,-1.7588,-1.7608,-1.7608,-1.7608,-1.7536,-1.7279,-1.6981,-1.6574,-1.6054,-1.5725,-1.5356,-1.4829,-1.4515,-1.4334,-1.4334,-1.4316,-1.4298,-1.4298,-1.4298,-1.4298,-1.4298,-1.4298,-1.4195,-1.396,-1.3672,-1.3412,-1.3147,-1.2868,-1.2705,-1.2705,-1.2491,-1.2283,-1.2037,-1.1807,-1.1381,-1.078,-1.0758,-1.0382,-1.5573,-1.5443,0.0,-1.6066,-1.7301,-1.8706,-2.0051,-2.0134,-2.0177,-2.1242,-2.1187,-2.0979,-2.0979,-2.0775,-2.0628,-2.0628,-2.0701,-2.0756,-2.0756,-2.0683,-2.0628,-2.0628,-2.0546,-2.05,-2.05,-2.05,-2.0372,-2.006,-2.0042,-1.985,-1.9457,-1.9439,-1.9227,-1.8833,-1.8824,-1.8668,-1.8366,-1.8668,-1.8824,-1.8824,-1.9155,-1.9301,-1.9301,-1.9301,-1.9301,-1.9301,-1.9301,-1.9301,-1.9301,-1.9301,-1.9301,-1.9301,-1.9301,-1.9301,-1.9301,-1.9301,-1.9163,-1.9002,-1.8942,-1.8634,-1.8172,-1.7659,-1.6927,-1.6141,-1.5544,-1.5191,-1.5011,-1.514,-1.5571,-1.6061,-1.6411,-1.6898,-1.7293,-1.7293,-1.7441,-1.7608,-1.7608,-1.7608,-1.7582,-1.7536,-1.7298,-1.6962,-1.6581,-1.6136,-1.5629,-1.5096,-1.4799,-1.4599,-1.4599,-1.4431,-1.4298,-1.4298,-1.4298,-1.4298,-1.4298,-1.4298,-1.4274,-1.4214,-1.3966,-1.3684,-1.3418,-1.2942,-1.2705,-1.2705,-1.2491,-1.2363,-1.2305,-1.1909,-1.1619,-1.149,-1.1114,-1.0848,-1.5974,-1.5895,0.0,-1.6944,0.0,-1.8732,-1.9941,-2.006,-2.0122,-2.0967,-2.1104,-2.1108,-2.1108,-2.0921,-2.072,-2.0527,-2.05,-2.05,-2.05,-2.0335,-2.0216,-2.0216,-2.0033,-1.9934,-1.9934,-1.9934,-1.9831,-1.9621,-1.9611,-1.9428,-1.9036,-1.9017,-1.8824,-1.843,-1.8411,-1.8311,-1.8109,-1.8311,-1.8411,-1.8421,-1.8815,-1.9118,-1.9301,-1.9301,-1.9301,-1.9301,-1.9301,-1.9301,-1.9301,-1.9301,-1.9301,-1.9301,-1.9301,-1.9301,-1.9301,-1.9301,-1.9222,-1.9152,-1.9152,-1.8933,-1.8623,-1.8193,-1.7505,-1.671,-1.5816,-1.5382,-1.5121,-1.4842,-1.5271,-1.5841,-1.6019,-1.6524,-1.6966,-1.6966,-1.7294,-1.7608,-1.7608,-1.7608,-1.7608,-1.7608,-1.7378,-1.7093,-1.6763,-1.6141,-1.5612,-1.5338,-1.4937,-1.469,-1.469,-1.4473,-1.4298,-1.4298,-1.4298,-1.4298,-1.4298,-1.4298,-1.4298,-1.4298,-1.4051,-1.3845,-1.3707,-1.3308,-1.297,-1.2711,-1.2598,-1.2491,-1.2406,-1.2287,-1.2047,-1.1682,-1.1452,-1.1156,-1.6465,-1.6487,-1.6865,-1.7761,-1.81,0.0,-1.9556,-1.9804,-1.9932,-2.0399,-2.0756,-2.1007,-2.1007,-2.093,-2.0775,-2.0445,-2.0335,-2.0289,-2.0289,-2.0005,-1.9804,-1.9804,-1.9492,-1.9301,-1.9301,-1.9301,-1.9274,-1.9201,-1.9201,-1.9026,-1.8613,-1.8595,-1.8411,-1.8008,-1.7999,-1.7963,-1.7889,-1.7963,-1.7999,-1.7999,-1.8402,-1.876,-1.91,-1.91,-1.9173,-1.9301,-1.9301,-1.9301,-1.9301,-1.9301,-1.9301,-1.9301,-1.9301,-1.9301,-1.9301,-1.9301,-1.9301,-1.9301,-1.9262,-1.9132,-1.8922,-1.8482,-1.7919,-1.7208,-1.6105,-1.562,-1.5312,-1.472,-1.5066,-1.5601,-1.5701,-1.6152,-1.6567,-1.662,-1.7041,-1.7468,-1.7521,-1.7535,-1.7548,-1.7595,-1.7351,-1.7034,-1.6756,-1.6073,-1.5565,-1.5565,-1.5119,-1.4762,-1.4762,-1.4497,-1.4298,-1.4298,-1.4298,-1.4298,-1.4298,-1.4298,-1.4298,-1.4298,-1.4093,-1.3954,-1.3912,-1.3701,-1.335,-1.2856,-1.2801,-1.2667,-1.2448,-1.2683,-1.2504,-1.1942,-1.1863,-1.1482,-1.6861,0.0,-1.698,0.0,-1.8109,-1.8741,0.0,0.0,-1.9584,0.0,-2.0537,-2.0573,-2.0573,-2.0298,-2.0051,-1.9996,-1.9685,-1.9467,-1.9467,-1.9421,-1.9384,-1.9384,-1.9338,-1.9301,-1.9301,-1.9301,-1.9164,-1.8815,-1.8769,-1.8595,-1.821,-1.8182,-1.799,-1.7596,-1.7578,-1.7413,-1.7056,-1.7413,-1.7578,-1.7587,-1.799,-1.821,-1.8265,-1.8265,-1.8631,-1.9301,-1.9301,-1.9301,-1.9301,-1.9301,-1.9301,-1.9301,-1.9301,-1.9301,-1.9301,-1.9301,-1.9301,-1.9282,-1.9092,-1.9022,-1.8902,-1.8262,-1.7757,-1.7229,-1.6314,-1.564,-1.5106,-1.4888,-1.4762,-1.4788,-1.5324,-1.5698,-1.5988,-1.629,-1.6587,-1.6894,-1.718,-1.7259,-1.7307,-1.7555,-1.716,-1.6756,-1.6703,-1.6227,-1.5837,-1.5837,-1.539,-1.5059,-1.5059,-1.4612,-1.4298,-1.4298,-1.4298,-1.4298,-1.4298,-1.4298,-1.4298,-1.4298,-1.4262,-1.4141,-1.3918,-1.3876,-1.369,-1.3388,-1.3159,-1.2924,-1.2662,-1.2748,-1.2835,-1.2893,-1.2509,-1.226,-1.7364,-1.7157,-1.713,0.0,-1.7761,-1.8137,-1.855,-1.8622,-1.8787,-1.9364,-1.9483,-1.963,-2.0079,-2.0024,-1.9831,-1.9593,-1.9237,-1.8971,-1.8971,-1.876,-1.8622,-1.8622,-1.8622,-1.8622,-1.8622,-1.8622,-1.8549,-1.8375,-1.8366,-1.8192,-1.7798,-1.7752,-1.7587,-1.7183,-1.7165,-1.7082,-1.6908,-1.7082,-1.7275,-1.7495,-1.7458,-1.766,-1.8091,-1.788,-1.8073,-1.8631,-1.8871,-1.8971,-1.897,-1.921,-1.9301,-1.9301,-1.9301,-1.9301,-1.9301,-1.9301,-1.9301,-1.9262,-1.9073,-1.9002,-1.8882,-1.8221,-1.7737,-1.7237,-1.6355,-1.5631,-1.5034,-1.4703,-1.4561,-1.4554,-1.4836,-1.5124,-1.5401,-1.5534,-1.5789,-1.6052,-1.6346,-1.6826,-1.7286,-1.7548,-1.7265,-1.6928,-1.673,-1.6371,-1.6078,-1.5918,-1.5445,-1.5107,-1.5107,-1.4636,-1.4298,-1.4298,-1.4298,-1.4298,-1.4298,-1.4298,-1.4298,-1.4298,-1.4298,-1.4244,-1.4129,-1.4123,-1.4002,-1.3743,-1.331,-1.3039,-1.2918,-1.3101,-1.3151,-1.311,-1.2879,-1.2662,0.0,0.0,-1.7241,-1.739,-1.7457,-1.7578,0.0,0.0,-1.8192,0.0,-1.8549,-1.8732,-1.9337,-1.9538,-1.9465,-1.9072,-1.8732,-1.8549,-1.8549,-1.8292,-1.8109,-1.8109,-1.8109,-1.8109,-1.8109,-1.8109,-1.8063,-1.7953,-1.7944,-1.7761,-1.7367,-1.7348,-1.7211,-1.6917,-1.6908,-1.6908,-1.6908,-1.6908,-1.7055,-1.7339,-1.7046,-1.7202,-1.7789,-1.7486,-1.7513,-1.7825,-1.8329,-1.8549,-1.8576,-1.897,-1.9155,-1.9164,-1.9265,-1.9301,-1.9301,-1.9301,-1.9301,-1.9262,-1.9022,-1.8922,-1.8803,-1.8011,-1.7566,-1.7147,-1.6203,-1.5541,-1.4999,-1.4524,-1.4399,-1.4407,-1.4481,-1.4689,-1.4892,-1.4988,-1.5153,-1.5404,-1.5845,-1.6605,-1.7266,-1.7454,-1.7331,-1.7093,-1.6763,-1.6477,-1.6217,-1.5945,-1.5445,-1.5107,-1.5107,-1.4636,-1.4298,-1.4298,-1.4298,-1.4298,-1.4298,-1.4298,-1.4298,-1.4298,-1.4298,-1.4298,-1.4298,-1.4298,-1.4208,-1.4008,-1.3533,-1.3268,-1.3202,-1.3461,-1.3496,-1.3302,-1.3304,-1.305,0.0,-1.7449,0.0,-1.7212,-1.7352,-1.7504,0.0,0.0,-1.8109,-1.8137,-1.8137,-1.8146,-1.8192,-1.8503,-1.8631,-1.8228,-1.8146,-1.8137,-1.8137,-1.8118,-1.8109,-1.8109,-1.8109,-1.8109,-1.8109,-1.8109,-1.7935,-1.7559,-1.7523,-1.7358,-1.6946,-1.6936,-1.6927,-1.6908,-1.6908,-1.6908,-1.6908,-1.6908,-1.6917,-1.6936,-1.6917,-1.6927,-1.6955,-1.6945,-1.6945,-1.7009,-1.7798,-1.8137,-1.8164,-1.8558,-1.8723,-1.876,-1.9155,-1.9301,-1.9301,-1.9301,-1.9301,-1.9242,-1.8851,-1.872,-1.8531,-1.7485,-1.7139,-1.6906,-1.5767,-1.5284,-1.4999,-1.4524,-1.4271,-1.4175,-1.4427,-1.4507,-1.4616,-1.4919,-1.5022,-1.524,-1.609,-1.677,-1.7206,-1.7219,-1.7219,-1.7093,-1.6763,-1.6477,-1.6217,-1.5945,-1.5445,-1.5107,-1.5107,-1.4636,-1.4298,-1.4298,-1.4298,-1.4298,-1.4298,-1.4298,-1.4298,-1.4298,-1.4298,-1.4298,-1.4298,-1.4298,-1.4292,-1.428,-1.4008,-1.372,-1.3473,-1.3761,-1.3864,-1.387,-1.3874,-1.3563,0.0,0.0,0.0,-1.7218,-1.7166,-1.711,-1.711,-1.7238,-1.7395,-1.7669,-1.7697,-1.7697,-1.7697,-1.8036,-1.8274,-1.8128,-1.788,-1.7697,-1.7697,-1.7486,-1.7321,-1.7321,-1.7321,-1.7321,-1.7321,-1.7321,-1.7275,-1.7128,-1.711,-1.7055,-1.6908,-1.6908,-1.6908,-1.6908,-1.6908,-1.6908,-1.6908,-1.6908,-1.6908,-1.6908,-1.6908,-1.6908,-1.6908,-1.6908,-1.6908,-1.6927,-1.7193,-1.7486,-1.7752,-1.8146,-1.8311,-1.8357,-1.875,-1.8897,-1.8953,-1.921,-1.9301,-1.9262,-1.8982,-1.8812,-1.86,-1.7899,-1.7302,-1.673,-1.6051,-1.5374,-1.4783,-1.4482,-1.4265,-1.4115,-1.4215,-1.4242,-1.4315,-1.4609,-1.4676,-1.487,-1.5558,-1.6197,-1.675,-1.7125,-1.7209,-1.7082,-1.6751,-1.663,-1.6418,-1.5971,-1.5445,-1.5107,-1.5107,-1.4636,-1.4298,-1.4298,-1.4298,-1.4298,-1.4298,-1.4298,-1.4298,-1.4298,-1.4298,-1.4298,-1.4298,-1.4298,-1.4298,-1.4298,-1.4208,-1.4026,-1.3767,-1.3857,-1.3906,-1.3888,-1.3903,-1.3811,-1.7874,0.0,0.0,0.0,0.0,-1.6986,-1.6926,0.0,-1.6982,-1.7238,-1.7293,-1.7293,-1.7293,-1.7532,-1.7697,-1.7697,-1.7459,-1.7293,-1.7293,-1.7073,-1.6908,-1.6908,-1.6908,-1.6908,-1.6908,-1.6908,-1.6908,-1.6908,-1.6908,0.0,-1.6908,-1.6908,-1.6908,-1.6908,-1.6908,-1.6844,-1.6689,-1.6689,-1.6689,-1.6689,-1.6689,-1.678,-1.6908,-1.6908,-1.6908,-1.6908,-1.6908,-1.7055,-1.733,-1.7724,-1.7899,-1.7935,-1.8338,-1.8576,-1.8723,-1.9008,-1.9191,-1.9262,-1.9073,-1.8902,-1.8692,-1.81,-1.7465,-1.6812,-1.6162,-1.5437,-1.4762,-1.4482,-1.4265,-1.4109,-1.4109,-1.4109,-1.4135,-1.4329,-1.4427,-1.4601,-1.5017,-1.5638,-1.629,-1.6811,-1.7065,-1.7079,-1.6748,-1.6699,-1.6519,-1.5988,-1.5436,-1.5077,-1.4986,-1.4582,-1.4298,-1.4298,-1.4298,-1.4298,-1.4298,-1.4298,-1.4298,-1.4298,-1.4298,-1.4298,-1.4298,-1.4298,-1.4298,-1.4298,-1.4298,-1.4214,-1.4039,-1.4039,-1.4039,-1.4045,-1.4034,-1.4003,0.0,0.0,0.0,0.0,0.0,0.0,-1.6942,0.0,-1.6873,-1.6873,-1.6873,-1.689,-1.6908,-1.6908,-1.6908,-1.6908,-1.6908,-1.6908,-1.6908,-1.6908,-1.6908,-1.6908,-1.6908,-1.6908,-1.6908,-1.6908,-1.6908,-1.6908,-1.6908,-1.6908,-1.6908,-1.6908,-1.6908,-1.6908,-1.6908,-1.6708,-1.6323,-1.6314,-1.6314,-1.6314,-1.6314,-1.6515,-1.6908,-1.6908,-1.6908,-1.6908,-1.6908,-1.6908,-1.6936,-1.7321,-1.7477,-1.7523,-1.7926,-1.832,-1.8659,-1.8686,-1.8953,-1.9273,-1.9073,-1.9002,-1.8854,-1.8003,-1.7587,-1.7208,-1.6085,-1.5429,-1.4999,-1.4545,-1.4265,-1.4109,-1.4109,-1.4109,-1.4109,-1.4109,-1.4302,-1.4487,-1.4494,-1.5168,-1.5861,-1.6223,-1.6777,-1.7083,-1.6742,-1.6703,-1.6503,-1.599,-1.543,-1.4985,-1.4726,-1.4473,-1.4298,-1.4298,-1.4298,-1.4298,-1.4298,-1.4298,-1.4298,-1.4298,-1.4298,-1.4298,-1.4298,-1.4298,-1.4298,-1.4298,-1.4298,-1.4298,-1.4298,-1.4298,-1.4298,-1.4298,-1.4298,-1.416,-1.803,0.0,0.0,0.0,0.0,0.0,0.0,0.0,-1.646,-1.646,-1.646,-1.6552,-1.6853,-1.6908,-1.6908,-1.6908,-1.6908,-1.6908,-1.6908,-1.6908,-1.6908,-1.6908,-1.6908,-1.6908,-1.6908,-1.6908,-1.6908,0.0,-1.6908,-1.6908,-1.6908,-1.6908,-1.6908,-1.6908,-1.6908,-1.6853,-1.6743,-1.6726,-1.6726,-1.6726,-1.6726,-1.6781,-1.6908,-1.6908,-1.6908,-1.6908,-1.6908,-1.6908,-1.6917,-1.7027,-1.7064,-1.711,-1.7513,-1.7734,-1.7899,-1.8495,-1.876,-1.8897,-1.9151,-1.9112,-1.8962,-1.8714,-1.8193,-1.7497,-1.6837,-1.6015,-1.5214,-1.4755,-1.437,-1.4109,-1.4109,-1.4109,-1.4109,-1.4109,-1.417,-1.4262,-1.4454,-1.4687,-1.5074,-1.5788,-1.6284,-1.6579,-1.6671,-1.6542,-1.6282,-1.5959,-1.543,-1.4985,-1.4726,-1.4473,-1.4298,-1.4298,-1.4298,-1.4298,-1.4298,-1.4298,-1.4298,-1.4298,-1.4298,-1.4298,-1.4298,-1.4298,-1.4298,-1.4298,-1.4298,-1.4298,-1.4298,-1.4298,-1.4298,-1.4298,-1.4298,-1.416,0.0,0.0,0.0,0.0,0.0,0.0,-1.6945,-1.6624,-1.6442,0.0,-1.6415,-1.6424,-1.6835,-1.6908,-1.6908,-1.6908,-1.6908,-1.6908,-1.6908,-1.6771,-1.6644,-1.6644,-1.6505,-1.6395,-1.6395,-1.6395,-1.6395,-1.6395,-1.6395,-1.6395,-1.6395,-1.6395,-1.6477,-1.6634,-1.6644,-1.6644,-1.6644,-1.6644,-1.6644,-1.6644,-1.6644,-1.6743,-1.6908,-1.6908,-1.6908,-1.6908,-1.6908,-1.6908,-1.6908,-1.6908,-1.6908,-1.6927,-1.7156,-1.7348,-1.7578,-1.821,-1.8558,-1.875,-1.9164,-1.9222,-1.9112,-1.9042,-1.8534,-1.7902,-1.7428,-1.653,-1.5588,-1.5131,-1.4552,-1.4109,-1.4109,-1.4109,-1.4109,-1.4109,-1.4109,-1.4135,-1.4302,-1.4414,-1.4721,-1.5481,-1.5885,-1.6191,-1.6481,-1.6503,-1.6298,-1.5815,-1.5461,-1.5087,-1.4588,-1.4395,-1.4298,-1.4298,-1.4298,-1.4298,-1.4298,-1.4298,-1.4298,-1.4298,-1.4407,-1.4419,-1.4304,-1.4413,-1.4419,-1.4298,-1.4298,-1.4298,-1.4298,-1.4298,-1.4298,-1.4298,-1.4298,-1.4226,0.0,0.0,0.0,0.0,0.0,0.0,-1.7265,-1.6872,-1.6656,0.0,-1.656,-1.6424,-1.6835,-1.6908,-1.6908,-1.6908,-1.6908,-1.6908,-1.6908,-1.6589,-1.635,-1.6305,-1.5982,-1.576,-1.5689,-1.5705,-1.5705,-1.5705,-1.5705,-1.5705,-1.5705,-1.5705,-1.5863,-1.6213,-1.6277,-1.6305,-1.6305,-1.6341,-1.6369,-1.6369,-1.6369,-1.6552,-1.6908,-1.6908,-1.6908,-1.6908,-1.6908,-1.6908,-1.6908,-1.6908,-1.6908,-1.6908,-1.6908,-1.7119,-1.7477,-1.788,-1.8292,-1.8686,-1.91,-1.9265,-1.9262,-1.9092,-1.8783,-1.8373,-1.7922,-1.7037,-1.6079,-1.5484,-1.4741,-1.4124,-1.4109,-1.4109,-1.4109,-1.4109,-1.4109,-1.4109,-1.4109,-1.4289,-1.4614,-1.519,-1.5541,-1.5848,-1.6197,-1.6437,-1.6348,-1.5622,-1.5476,-1.5189,-1.4413,-1.4298,-1.431,-1.434,-1.434,-1.434,-1.434,-1.437,-1.4377,-1.4346,-1.4606,-1.4611,-1.4358,-1.4557,-1.4557,-1.4304,-1.4298,-1.4298,-1.4298,-1.4298,-1.4298,-1.4298,-1.4298,-1.4298,0.0,0.0,0.0,0.0,0.0,0.0,-1.7209,-1.6859,-1.6605,0.0,-1.6468,-1.6424,-1.6835,-1.6908,-1.6908,-1.6908,-1.6908,-1.6908,-1.6908,-1.6827,-1.6662,-1.6341,-1.6231,-1.6065,-1.5732,-1.5705,-1.5705,-1.5705,-1.5705,-1.5705,-1.5705,-1.5705,-1.5742,-1.5808,-1.6121,-1.6305,-1.6305,-1.6616,-1.6772,-1.6772,-1.6772,-1.6818,-1.6908,-1.6908,-1.6908,-1.6908,-1.6908,-1.6908,-1.6908,-1.6908,-1.6908,-1.6908,-1.6908,-1.6954,-1.7073,-1.7468,-1.7862,-1.8274,-1.8668,-1.9036,-1.9301,-1.9242,-1.9073,-1.8803,-1.8393,-1.7598,-1.655,-1.5207,-1.4608,-1.43,-1.4145,-1.4109,-1.4109,-1.4109,-1.4109,-1.4109,-1.4109,-1.4128,-1.4275,-1.4601,-1.5117,-1.5571,-1.5841,-1.6,-1.5927,-1.5564,-1.5313,-1.498,-1.4388,-1.4298,-1.4383,-1.4612,-1.4611,-1.4611,-1.4611,-1.4829,-1.4859,-1.4648,-1.4858,-1.4914,-1.4624,-1.4666,-1.4557,-1.4304,-1.4298,-1.4298,-1.4298,-1.4298,-1.4298,-1.4298,-1.4298,-1.4298,0.0,0.0,0.0,-1.7991,0.0,0.0,0.0,-1.7102,-1.6893,-1.7026,-1.6736,-1.6566,-1.6981,-1.6968,-1.6908,-1.6908,-1.6908,-1.6835,-1.6625,-1.6431,-1.6156,-1.5762,-1.5517,-1.5315,-1.512,-1.5285,-1.5478,-1.5686,-1.5505,-1.5395,-1.5395,-1.5212,-1.5194,-1.5386,-1.5597,-1.5808,-1.6001,-1.6202,-1.6404,-1.6598,-1.6598,-1.6716,-1.6908,-1.6908,-1.6908,-1.6908,-1.6908,-1.6908,-1.6908,-1.6908,-1.6908,-1.6908,-1.6908,-1.6908,-1.6954,-1.7348,-1.7743,-1.8164,-1.8558,-1.8971,-1.9301,-1.9301,-1.9172,-1.8962,-1.8763,-1.7893,-1.6727,-1.5415,-1.4817,-1.4489,-1.4187,-1.4109,-1.4109,-1.4109,-1.4109,-1.4109,-1.4109,-1.4109,-1.4128,-1.4275,-1.4798,-1.53,-1.5541,-1.589,-1.5965,-1.5565,-1.5401,-1.5145,-1.4759,-1.4576,-1.4612,-1.4858,-1.4914,-1.4859,-1.4702,-1.4956,-1.4998,-1.4708,-1.5083,-1.5125,-1.4708,-1.4816,-1.4721,-1.4304,-1.4298,-1.4298,-1.4298,-1.4298,-1.4298,-1.4298,-1.4298,-1.4298,0.0,0.0,0.0,0.0,0.0,-1.7957,0.0,0.0,0.0,-1.7497,-1.7101,0.0,0.0,0.0,0.0,0.0,0.0,0.0,0.0,-1.5973,0.0,-1.5157,-1.4882,-1.4665,-1.4519,-1.4857,-1.523,-1.5567,-1.5285,-1.5102,-1.5102,-1.4726,-1.4653,-1.4974,-1.5065,-1.5258,-1.5586,-1.5668,-1.5863,-1.6186,-1.6268,-1.647,-1.6798,-1.6854,-1.6908,-1.6908,-1.6908,-1.6908,-1.6908,-1.6908,-1.6908,-1.6908,-1.6908,-1.6908,-1.6945,-1.7266,-1.7697,-1.8155,-1.8466,-1.8907,-1.9301,-1.9301,-1.9132,-1.8922,-1.8794,-1.7893,-1.6735,-1.5684,-1.5061,-1.4615,-1.4208,-1.4109,-1.4109,-1.4109,-1.4109,-1.4109,-1.4109,-1.4109,-1.4129,-1.4162,-1.4625,-1.5059,-1.53,-1.5822,-1.6033,-1.558,-1.5509,-1.5433,-1.5207,-1.493,-1.491,-1.5225,-1.5211,-1.5077,-1.4792,-1.5077,-1.5125,-1.4811,-1.5282,-1.5342,-1.4792,-1.4896,-1.4745,-1.4304,-1.4298,-1.4298,-1.4298,-1.4298,-1.4298,-1.4298,-1.4298,-1.4298,0.0,0.0,0.0,0.0,-1.7991,0.0,0.0,0.0,-1.7631,-1.7662,0.0,0.0,0.0,0.0,0.0,0.0,0.0,0.0,-1.5863,-1.6037,-1.5947,-1.5194,-1.5368,-1.5285,-1.4564,-1.4857,-1.512,-1.5166,-1.5129,-1.5102,-1.5102,-1.4726,-1.4519,-1.4579,-1.4919,-1.512,-1.5166,-1.5515,-1.5716,-1.5762,-1.6121,-1.6323,-1.6378,-1.6743,-1.6908,-1.6908,-1.6908,-1.6908,-1.6908,-1.6908,-1.6908,-1.6908,-1.6908,-1.6908,-1.6908,-1.6954,-1.7441,-1.8109,-1.8155,-1.8659,-1.9301,-1.9301,-1.9033,-1.8612,-1.8031,-1.7335,-1.6546,-1.5643,-1.5061,-1.4615,-1.4208,-1.4109,-1.4109,-1.4109,-1.4109,-1.4109,-1.4109,-1.4109,-1.4162,-1.4401,-1.4758,-1.5022,-1.5033,-1.5498,-1.577,-1.5547,-1.5501,-1.5492,-1.5458,-1.522,-1.5245,-1.577,-1.5587,-1.5348,-1.5083,-1.5517,-1.559,-1.5095,-1.5553,-1.5608,-1.5083,-1.463,-1.4358,-1.4298,-1.4298,-1.4298,-1.4298,-1.4298,-1.4298,-1.4298,-1.4298,-1.4298,0.0,0.0,0.0,0.0,0.0,0.0,-1.7991,0.0,-1.7879,0.0,0.0,0.0,0.0,0.0,0.0,0.0,-1.6968,0.0,0.0,0.0,-1.6184,0.0,0.0,0.0,-1.5212,-1.5139,-1.5395,-1.6092,-1.5496,-1.5203,-1.5432,-1.4854,-1.45,-1.45,-1.4656,-1.4738,-1.4738,-1.4928,-1.512,-1.5349,-1.5524,-1.5735,-1.5964,-1.636,-1.6543,-1.6561,-1.6807,-1.6908,-1.6908,-1.6908,-1.6908,-1.6908,-1.6908,-1.6908,-1.6908,-1.6908,-1.7404,-1.8109,-1.8109,-1.8622,-1.9282,-1.9172,-1.9022,-1.8743,-1.8072,-1.7505,-1.6894,-1.5858,-1.5263,-1.479,-1.4229,-1.4109,-1.4109,-1.4109,-1.4109,-1.4109,-1.4109,-1.4109,-1.4175,-1.4441,-1.4763,-1.5039,-1.5213,-1.5558,-1.5784,-1.5689,-1.5564,-1.5556,-1.5709,-1.5636,-1.5657,-1.5884,-1.5933,-1.5783,-1.538,-1.5674,-1.5728,-1.536,-1.5396,-1.5336,-1.5119,-1.4588,-1.4298,-1.4298,-1.4298,-1.4298,-1.4298,-1.4298,-1.4298,-1.4298,-1.4298,-1.4298,-1.7991,0.0,0.0,0.0,0.0,0.0,0.0,0.0,0.0,0.0,0.0,0.0,0.0,0.0,0.0,0.0,0.0,-1.683,0.0,-1.6586,0.0,0.0,0.0,0.0,0.0,-1.5212,-1.5469,-1.634,-1.5597,-1.5221,-1.5515,-1.4882,-1.45,-1.45,-1.45,-1.45,-1.45,-1.45,-1.4653,-1.4937,-1.5047,-1.5249,-1.5542,-1.6074,-1.6305,-1.6323,-1.6734,-1.6908,-1.6908,-1.6908,-1.6908,-1.6908,-1.6908,-1.6908,-1.6908,-1.6908,-1.7404,-1.8109,-1.8109,-1.8622,-1.9262,-1.9002,-1.8922,-1.8783,-1.806,-1.7534,-1.6996,-1.592,-1.5305,-1.4852,-1.4257,-1.4109,-1.4109,-1.4109,-1.4109,-1.4109,-1.4109,-1.417,-1.4295,-1.4583,-1.4883,-1.5193,-1.5464,-1.5668,-1.5808,-1.5808,-1.5683,-1.57,-1.5978,-1.5947,-1.5935,-1.6007,-1.6121,-1.6,-1.5543,-1.5741,-1.5807,-1.562,-1.5294,-1.5107,-1.5107,-1.4588,-1.4298,-1.4298,-1.4298,-1.4298,-1.4298,-1.4298,-1.4298,-1.4298,-1.4298,-1.4298,0.0,0.0,0.0,-1.7991,0.0,0.0,0.0,0.0,-1.7991,0.0,0.0,0.0,0.0,0.0,0.0,-1.7487,0.0,0.0,0.0,0.0,0.0,0.0,0.0,0.0,0.0,-1.4882,-1.512,0.0,-1.512,-1.5111,-1.512,-1.4735,-1.45,-1.45,-1.45,-1.45,-1.45,-1.45,-1.45,-1.4519,-1.4919,-1.5111,-1.5148,-1.5938,-1.6305,-1.6323,-1.6734,-1.6908,-1.6908,-1.6908,-1.6908,-1.6908,-1.6908,-1.6908,-1.6908,-1.6908,-1.7404,-1.8109,-1.8109,-1.8622,-1.9222,-1.8832,-1.872,-1.856,-1.7676,-1.7086,-1.6546,-1.5664,-1.5061,-1.4615,-1.4208,-1.4109,-1.4109,-1.4109,-1.4109,-1.4109,-1.4109,-1.4309,-1.4596,-1.4919,-1.5207,-1.5478,-1.5741,-1.5795,-1.5808,-1.5808,-1.5778,-1.5908,-1.6233,-1.6073,-1.5999,-1.6259,-1.6057,-1.5803,-1.5525,-1.5741,-1.5885,-1.5879,-1.5396,-1.5107,-1.5107,-1.4588,-1.4298,-1.4298,-1.4298,-1.4298,-1.4298,-1.4298,-1.4298,-1.4298,-1.4298,-1.4298,0.0,0.0,-1.7991,-1.7991,0.0,0.0,0.0,0.0,0.0,0.0,0.0,0.0,0.0,0.0,0.0,-1.763,0.0,0.0,0.0,0.0,0.0,0.0,0.0,0.0,0.0,0.0,0.0,0.0,-1.5001,-1.4827,-1.5084,-1.4726,-1.45,-1.45,-1.4763,-1.4772,-1.45,-1.4757,-1.4757,-1.45,-1.4643,-1.4693,-1.4735,-1.5533,-1.59,-1.5936,-1.6615,-1.6908,-1.6908,-1.6908,-1.6908,-1.6908,-1.6908,-1.6908,-1.6908,-1.6908,-1.7404,-1.8182,-1.8705,-1.8907,-1.8858,-1.8595,-1.8318,-1.796,-1.7276,-1.6937,-1.6553,-1.5546,-1.5117,-1.4831,-1.4257,-1.4109,-1.4109,-1.4109,-1.4109,-1.4142,-1.4335,-1.4427,-1.4641,-1.518,-1.5354,-1.5491,-1.5755,-1.5808,-1.5808,-1.5808,-1.5808,-1.5841,-1.5941,-1.608,-1.6139,-1.6038,-1.6107,-1.607,-1.5791,-1.5846,-1.5891,-1.5891,-1.5396,-1.5107,-1.5107,-1.4588,-1.4298,-1.4298,-1.4298,-1.4298,-1.4298,-1.4298,-1.4298,-1.4298,-1.4298,-1.4298,-1.7991,-1.7991,0.0,-1.7991,-1.7991,0.0,-1.7991,0.0,0.0,0.0,0.0,0.0,0.0,0.0,0.0,-1.7801,0.0,0.0,0.0,-1.5993,0.0,0.0,0.0,0.0,0.0,0.0,0.0,-1.523,-1.4784,-1.461,0.0,-1.4638,-1.4579,-1.4717,-1.4964,-1.4983,-1.4726,-1.4974,-1.49,-1.45,-1.45,-1.45,-1.4528,-1.5331,-1.5705,-1.5735,-1.6551,-1.6908,-1.6908,-1.6908,-1.6908,-1.6908,-1.6908,-1.6908,-1.6908,-1.6908,-1.7404,-1.8192,-1.8871,-1.8926,-1.8649,-1.8302,-1.8,-1.7691,-1.7088,-1.6906,-1.6673,-1.562,-1.5255,-1.5054,-1.437,-1.4145,-1.4109,-1.4109,-1.4109,-1.4168,-1.4434,-1.4581,-1.4823,-1.5304,-1.5478,-1.5611,-1.5775,-1.5808,-1.5808,-1.5808,-1.5808,-1.5808,-1.5808,-1.5999,-1.6062,-1.5913,-1.6046,-1.6043,-1.5786,-1.5673,-1.5614,-1.5614,-1.5203,-1.4968,-1.4968,-1.4533,-1.4298,-1.4298,-1.4298,-1.4298,-1.4298,-1.4298,-1.4298,-1.4298,-1.4298,-1.4298]},{"header":{"parameterUnit":"m.s-1","parameterCategory":1,"la1":30.6,"la2":29.2853,"lo1":-89.7004,"lo2":-87.6739,"dy":0.0162,"dx":0.0183,"nx":112,"ny":82,"refTime":"2023-05-11T00:00:00:Z","depth":0,"parameterNumber":3,"parameterNumberName":"V-component_of_WINDS"},"data":[0.0,0.0,0.0,0.0,0.0,0.0,0.0,0.0,0.0,0.0,0.0,0.0,0.0,0.0,0.0,0.0,0.0,0.0,0.0,0.0,0.0,0.0,0.0,0.0,0.0,0.0,0.0,0.0,0.0,0.0,0.0,0.0,0.0,0.0,0.0,0.0,0.0,0.0,0.0,0.0,0.0,0.0,0.0,0.0,0.0,0.0,0.0,0.0,0.0,0.0,0.0,0.0,0.0,0.0,0.0,0.0,0.0,0.0,0.0,0.0,0.0,0.0,0.0,0.0,0.0,0.0,0.0,0.0,0.0,0.0,0.0,0.0,0.0,0.0,0.0,0.0,0.0,0.0,0.0,0.0,0.0,0.0,0.0,0.0,0.0,0.0,0.0,0.0,0.0,0.0,1.9712,2.2583,2.6208,2.8156,2.747,2.5865,2.4208,2.2593,0.0,0.0,0.0,0.0,0.0,0.0,0.0,0.0,0.0,0.0,0.0,0.0,0.0,0.0,0.0,0.0,0.0,0.0,0.0,0.0,0.0,0.0,0.0,0.0,0.0,0.0,0.0,0.0,0.0,0.0,0.0,0.0,0.0,0.0,0.0,0.0,0.0,0.0,0.0,0.0,0.0,0.0,0.0,0.0,0.0,0.0,0.0,0.0,0.0,0.0,0.0,0.0,0.0,0.0,0.0,0.0,0.0,0.0,0.0,0.0,0.0,0.0,0.0,0.0,0.0,0.0,0.0,0.0,0.0,0.0,0.0,0.0,0.0,0.0,0.0,0.0,0.0,0.0,0.0,0.0,0.0,0.0,0.0,0.0,0.0,0.0,0.0,0.0,0.0,0.0,0.0,0.0,0.0,0.0,0.0,0.0,0.0,0.0,0.0,0.0,0.0,0.0,0.0,0.0,2.043,2.503,2.7344,2.8512,2.8406,2.6794,2.5081,2.3428,0.0,0.0,0.0,0.0,0.0,0.0,0.0,0.0,0.0,0.0,0.0,0.0,0.0,0.0,0.0,0.0,0.0,0.0,0.0,0.0,0.0,0.0,0.0,0.0,0.0,0.0,0.0,0.0,0.0,0.0,0.0,0.0,0.0,0.0,0.0,0.0,0.0,0.0,0.0,0.0,0.0,0.0,0.0,0.0,0.0,0.0,0.0,0.0,0.0,0.0,0.0,0.0,0.0,0.0,0.0,0.0,0.0,0.0,0.0,0.0,0.0,0.0,0.0,0.0,0.0,0.0,0.0,0.0,0.0,0.0,0.0,0.0,0.0,0.0,0.0,0.0,0.0,0.0,0.0,0.0,0.0,0.0,0.0,0.0,0.0,0.0,0.0,0.0,0.0,0.0,0.0,0.0,0.0,0.0,0.0,0.0,0.0,0.0,0.0,0.0,0.0,0.0,0.0,2.0472,2.328,2.6465,2.8267,2.8888,2.7978,2.6324,2.4441,2.2332,1.9112,0.0,0.0,0.0,0.0,0.0,0.0,0.0,0.0,0.0,0.0,0.0,0.0,0.0,0.0,0.0,0.0,0.0,0.0,0.0,0.0,0.0,0.0,0.0,0.0,0.0,0.0,0.0,0.0,0.0,0.0,0.0,0.0,0.0,0.0,0.0,0.0,0.0,0.0,0.0,0.0,0.0,0.0,0.0,0.0,0.0,0.0,0.0,0.0,0.0,0.0,0.0,0.0,0.0,0.0,0.0,0.0,0.0,0.0,0.0,0.0,0.0,0.0,0.0,0.0,0.0,0.0,0.0,0.0,0.0,0.0,0.0,0.0,0.0,0.0,0.0,0.0,0.0,0.0,0.0,0.0,0.0,0.0,0.0,0.0,0.0,0.0,0.0,0.0,0.0,0.0,0.0,0.0,0.0,0.0,0.0,0.0,0.0,0.0,0.0,0.0,0.0,0.0,2.2728,2.5272,2.6964,2.8401,2.8585,2.6907,2.5401,2.3471,2.0976,1.8624,0.0,0.0,0.0,0.0,0.0,0.0,0.0,0.0,0.0,0.0,0.0,0.0,0.0,0.0,0.0,0.0,0.0,0.0,0.0,0.0,0.0,0.0,0.0,0.0,0.0,0.0,0.0,0.0,0.0,0.0,0.0,0.0,0.0,0.0,0.0,0.0,0.0,0.0,0.0,0.0,0.0,0.0,0.0,0.0,0.0,0.0,0.0,0.0,0.0,0.0,0.0,0.0,0.0,0.0,0.0,0.0,0.0,0.0,0.0,0.0,0.0,0.0,0.0,0.0,0.0,0.0,0.0,0.0,0.0,0.0,0.0,0.0,0.0,0.0,0.0,0.0,0.0,0.0,0.0,0.0,0.0,0.0,0.0,0.0,0.0,0.0,0.0,0.0,0.0,0.0,0.0,0.0,0.0,0.0,0.0,0.0,0.0,0.0,0.0,0.0,0.0,0.0,2.2276,2.4518,2.6208,2.7146,2.6973,2.5302,2.4317,2.2684,2.014,1.8356,0.0,0.0,0.0,0.0,0.0,0.0,0.0,0.0,0.0,0.0,0.0,0.0,0.0,0.0,0.0,0.0,0.0,0.0,0.0,0.0,0.0,0.0,0.0,0.0,0.0,0.0,0.0,0.0,0.0,0.0,0.0,0.0,0.0,0.0,0.0,0.0,0.0,0.0,0.0,0.0,0.0,0.0,0.0,0.0,0.0,0.0,0.0,0.0,0.0,0.0,0.0,0.0,0.0,0.0,0.0,0.0,0.0,0.0,0.0,0.0,0.0,0.0,0.0,0.0,0.0,0.0,0.0,0.0,0.0,0.0,0.0,0.0,0.0,0.0,0.0,0.0,0.0,0.0,0.0,0.0,0.0,0.0,0.0,0.0,0.0,0.0,0.0,0.0,0.0,0.0,0.0,0.0,0.0,0.0,0.0,0.0,0.0,0.0,0.0,0.0,0.0,0.0,2.1912,2.4223,0.0,2.6246,2.6289,2.511,2.3243,2.1294,1.929,0.0,0.0,0.0,0.0,0.0,0.0,0.0,0.0,0.0,0.0,0.0,0.0,0.0,0.0,0.0,0.0,0.0,0.0,0.0,0.0,0.0,0.0,0.0,0.0,0.0,0.0,0.0,0.0,0.0,0.0,0.0,0.0,0.0,0.0,0.0,0.0,0.0,0.0,0.0,0.0,0.0,0.0,0.0,0.0,0.0,0.0,0.0,0.0,0.0,0.0,0.0,0.0,0.0,0.0,0.0,0.0,0.0,0.0,0.0,0.0,0.0,0.0,0.0,0.0,0.0,0.0,0.0,0.0,0.0,0.0,0.0,0.0,0.0,0.0,0.0,0.0,0.0,0.0,0.0,0.0,0.0,0.0,0.0,0.0,0.0,0.0,0.0,0.0,0.0,0.0,0.0,0.0,0.0,0.0,0.0,0.0,0.0,0.0,0.0,0.0,0.0,0.0,1.8713,2.152,2.3624,0.0,2.5022,2.4968,2.3555,2.1835,1.9985,1.805,0.0,0.0,0.0,0.0,0.0,0.0,0.0,0.0,0.0,0.0,0.0,0.0,0.0,0.0,0.0,0.0,0.0,0.0,0.0,0.0,0.0,0.0,0.0,0.0,0.0,0.0,0.0,0.0,0.0,0.0,0.0,0.0,0.0,0.0,0.0,0.0,0.0,0.0,0.0,0.0,0.0,0.0,0.0,0.0,0.0,0.0,0.0,0.0,0.0,0.0,0.0,0.0,0.0,0.0,0.0,0.0,0.0,0.0,0.0,0.0,0.0,0.0,0.0,0.0,0.0,0.0,0.0,0.0,0.0,0.0,0.0,0.0,0.0,0.0,0.0,0.0,0.0,0.0,0.0,0.0,0.0,0.0,0.0,0.0,0.0,0.0,0.0,0.0,0.0,0.0,0.0,0.0,0.0,0.0,0.0,0.0,0.0,0.0,0.0,0.0,0.0,0.0,1.8761,2.1055,2.2601,2.2581,2.3375,2.286,2.0319,2.002,1.8914,0.0,0.0,0.0,0.0,0.0,0.0,0.0,0.0,0.0,0.0,0.0,0.0,0.0,0.0,0.0,0.0,0.0,0.0,0.0,0.0,0.0,0.0,0.0,0.0,0.0,0.0,0.0,0.0,0.0,0.0,0.0,0.0,0.0,0.0,0.0,0.0,0.0,0.0,0.0,0.0,0.0,0.0,0.0,0.0,0.0,0.0,0.0,0.0,0.0,0.0,0.0,0.0,0.0,0.0,0.0,0.0,0.0,0.0,0.0,0.0,0.0,0.0,0.0,0.0,0.0,0.0,0.0,0.0,0.0,0.0,0.0,0.0,0.0,0.0,0.0,0.0,0.0,0.0,0.0,0.0,0.0,0.0,0.0,0.0,0.0,0.0,0.0,0.0,0.0,0.0,0.0,0.0,0.0,0.0,0.0,0.0,0.0,0.0,0.0,0.0,0.0,0.0,0.0,1.7945,2.0692,2.2374,2.1806,2.2481,2.2198,2.0262,1.8997,1.7726,1.6392,0.0,0.0,0.0,0.0,0.0,0.0,0.0,0.0,0.0,0.0,0.0,0.0,0.0,0.0,0.0,0.0,0.0,0.0,0.0,0.0,0.0,0.0,0.0,0.0,0.0,0.0,0.0,0.0,0.0,0.0,0.0,0.0,0.0,0.0,0.0,0.0,0.0,0.0,0.0,0.0,0.0,0.0,0.0,0.0,0.0,0.0,0.0,0.0,0.0,0.0,0.0,0.0,0.0,0.0,0.0,0.0,0.0,0.0,0.0,0.0,0.0,0.0,0.0,0.0,0.0,0.0,0.0,0.0,0.0,0.0,0.0,0.0,0.0,0.0,0.0,0.0,0.0,0.0,0.0,0.0,0.0,0.0,0.0,0.0,0.0,0.0,0.0,0.0,0.0,0.0,0.0,0.0,0.0,0.0,0.0,0.0,0.0,0.0,0.0,0.0,0.0,0.0,1.756,2.0511,2.2288,2.1444,2.2091,2.1911,2.0241,1.8567,1.7225,1.636,0.0,0.0,0.0,0.0,0.0,0.0,0.0,0.0,0.0,0.0,0.0,0.0,0.0,0.0,0.0,0.0,0.0,0.0,0.0,0.0,0.0,0.0,0.0,0.0,0.0,0.0,0.0,0.0,0.0,0.0,0.0,0.0,0.0,0.0,0.0,0.0,0.0,0.0,0.0,0.0,0.0,0.0,0.0,0.0,0.0,0.0,0.0,0.0,0.0,0.0,0.0,0.0,0.0,0.0,0.0,0.0,0.0,0.0,0.0,0.0,0.0,0.0,0.0,0.0,0.0,0.0,0.0,0.0,0.0,0.0,0.0,0.0,0.0,0.0,0.0,0.0,0.0,0.0,0.0,0.0,0.0,0.0,0.0,0.0,0.0,0.0,0.0,0.0,0.0,0.0,0.0,0.0,0.0,0.0,0.0,0.0,0.0,0.0,0.0,0.0,0.0,0.0,1.7722,2.0572,2.2293,2.1501,2.2119,2.192,2.0239,1.8553,1.723,1.6366,0.0,0.0,0.0,0.0,0.0,0.0,0.0,0.0,0.0,0.0,0.0,0.0,0.0,0.0,0.0,0.0,0.0,0.0,0.0,0.0,0.0,0.0,0.0,0.0,0.0,0.0,0.0,0.0,0.0,0.0,0.0,0.0,0.0,0.0,0.0,0.0,0.0,0.0,0.0,0.0,0.0,0.0,0.0,0.0,0.0,0.0,0.0,0.0,0.0,0.0,0.0,0.0,0.0,0.0,0.0,0.0,0.0,0.0,0.0,0.0,1.8718,0.0,0.0,0.0,0.0,0.0,0.0,0.0,0.0,0.0,0.0,0.0,0.0,0.0,0.0,0.0,0.0,0.0,0.0,0.0,0.0,0.0,0.0,0.0,0.0,0.0,0.0,0.0,0.0,0.0,0.0,0.0,0.0,0.0,0.0,0.0,0.0,0.0,0.0,0.0,0.0,0.0,1.9385,2.1254,2.2457,2.2261,2.2467,2.1912,2.0231,1.8561,1.7255,1.6422,1.5575,0.0,0.0,0.0,0.0,0.0,0.0,0.0,0.0,0.0,0.0,0.0,0.0,0.0,0.0,0.0,0.0,0.0,0.0,0.0,0.0,0.0,0.0,0.0,0.0,0.0,0.0,0.0,0.0,0.0,0.0,0.0,0.0,0.0,0.0,0.0,0.0,0.0,0.0,0.0,0.0,0.0,0.0,0.0,0.0,0.0,0.0,0.0,0.0,0.0,0.0,0.0,0.0,0.0,0.0,0.0,0.0,0.0,0.0,0.0,0.0,1.9381,0.0,0.0,0.0,0.0,0.0,0.0,0.0,0.0,0.0,0.0,0.0,0.0,0.0,0.0,0.0,0.0,0.0,0.0,0.0,0.0,0.0,0.0,0.0,0.0,0.0,0.0,0.0,0.0,0.0,0.0,0.0,0.0,0.0,0.0,0.0,0.0,0.0,0.0,0.0,0.0,1.98,2.1401,2.2599,2.2997,2.3115,2.2675,2.1408,1.9757,1.8285,1.7043,1.6195,0.0,0.0,0.0,0.0,0.0,0.0,0.0,0.0,0.0,0.0,0.0,0.0,0.0,0.0,0.0,0.0,0.0,0.0,0.0,0.0,0.0,0.0,0.0,0.0,0.0,0.0,0.0,0.0,0.0,0.0,0.0,0.0,0.0,0.0,0.0,0.0,0.0,0.0,0.0,0.0,0.0,0.0,0.0,0.0,0.0,0.0,0.0,0.0,0.0,0.0,0.0,0.0,0.0,2.4037,2.4494,2.5134,2.5344,2.5439,2.5257,2.2301,2.0794,2.0411,2.0114,0.0,0.0,0.0,0.0,0.0,0.0,0.0,0.0,0.0,0.0,0.0,0.0,0.0,0.0,0.0,0.0,0.0,0.0,0.0,0.0,0.0,0.0,2.1708,0.0,2.2443,2.2185,2.1763,0.0,0.0,0.0,0.0,0.0,0.0,0.0,0.0,0.0,0.0,0.0,2.0101,2.161,2.2901,2.373,2.3797,2.3474,2.2642,2.1069,1.9446,1.7926,1.7062,1.6296,0.0,0.0,0.0,0.0,0.0,0.0,0.0,0.0,0.0,0.0,0.0,0.0,0.0,0.0,0.0,0.0,0.0,0.0,0.0,0.0,0.0,0.0,0.0,0.0,0.0,0.0,0.0,0.0,0.0,0.0,0.0,0.0,2.4627,2.4682,0.0,0.0,0.0,0.0,0.0,0.0,0.0,0.0,0.0,0.0,0.0,0.0,0.0,2.3526,2.3526,2.4279,2.4685,2.4731,2.6075,2.6741,2.6838,2.817,2.8748,2.8575,2.6687,0.0,2.2821,2.1425,0.0,0.0,0.0,0.0,0.0,0.0,0.0,0.0,0.0,0.0,0.0,0.0,0.0,0.0,0.0,0.0,0.0,0.0,0.0,0.0,0.0,0.0,2.3354,2.404,2.3662,2.3287,0.0,2.2286,2.077,2.0768,2.0161,0.0,0.0,0.0,0.0,0.0,0.0,0.0,2.1771,2.2738,2.3691,2.4554,2.4144,2.344,2.2594,2.103,1.9713,1.8784,1.7926,1.7391,1.7278,1.8115,0.0,0.0,0.0,0.0,0.0,0.0,0.0,0.0,0.0,0.0,0.0,0.0,0.0,0.0,0.0,0.0,0.0,0.0,0.0,0.0,0.0,0.0,0.0,0.0,0.0,0.0,0.0,0.0,0.0,2.4226,2.4271,2.5215,2.4957,2.4885,0.0,0.0,0.0,0.0,0.0,0.0,0.0,0.0,0.0,2.5053,2.5893,2.6341,2.6341,2.7163,2.7821,2.8289,2.8886,2.9362,2.9755,3.0395,3.0665,3.054,2.9351,2.8254,2.7063,2.3651,2.2275,2.2296,0.0,0.0,0.0,0.0,2.2499,2.2547,2.2537,2.254,2.2483,2.2102,0.0,0.0,0.0,0.0,0.0,0.0,0.0,2.3158,0.0,0.0,2.4866,2.5569,2.5472,2.5296,2.5579,2.4118,2.2506,0.0,2.0872,2.038,2.0447,0.0,0.0,0.0,0.0,2.1337,2.2606,2.3154,2.3772,2.4651,2.4585,2.3932,2.2601,2.1893,2.0769,1.9011,1.8536,1.8117,1.7622,1.8442,1.8899,0.0,0.0,0.0,0.0,0.0,0.0,0.0,0.0,0.0,0.0,0.0,0.0,0.0,0.0,0.0,0.0,0.0,0.0,0.0,0.0,0.0,0.0,0.0,0.0,0.0,0.0,0.0,0.0,2.4393,2.4537,2.592,2.5613,2.551,0.0,0.0,0.0,0.0,0.0,0.0,2.7611,2.7713,2.7731,2.7731,2.8526,2.8961,2.8961,2.9775,3.0505,3.1136,3.1235,3.1565,3.205,3.2205,3.2238,3.2115,3.1316,3.096,3.0603,2.6004,2.4145,2.4124,2.3403,2.3161,2.3258,2.3531,2.3675,2.373,2.3721,2.3727,2.3686,2.3474,2.312,2.2788,2.2788,0.0,0.0,0.0,0.0,2.4538,2.5053,2.5693,2.6347,2.6881,2.7001,2.6983,2.6917,2.5805,2.4347,0.0,2.1734,2.109,2.1157,0.0,0.0,0.0,0.0,2.1896,2.3303,2.3775,2.4241,2.49,2.5167,2.4608,2.2954,2.2682,2.1713,1.9661,1.9336,1.8916,1.8268,1.8858,1.9202,1.9202,0.0,0.0,0.0,0.0,0.0,0.0,0.0,0.0,0.0,0.0,0.0,0.0,0.0,0.0,0.0,0.0,0.0,0.0,0.0,0.0,0.0,0.0,0.0,0.0,0.0,0.0,0.0,0.0,0.0,2.6744,2.687,0.0,0.0,0.0,0.0,2.8012,2.809,2.8413,2.9145,2.9182,2.9182,2.9182,3.0039,3.0498,3.0498,3.1352,3.1763,3.1758,3.2512,3.2833,3.2779,3.3466,3.3758,3.3637,3.2834,3.2485,3.2186,2.8247,2.6625,2.6562,2.5873,2.5666,2.582,2.6658,2.6993,2.706,2.706,2.706,2.6924,2.609,2.479,2.3539,2.3539,2.4123,0.0,0.0,2.6353,2.6894,2.6805,2.7323,2.7877,2.784,2.7832,2.7816,2.7748,2.7071,2.5999,0.0,2.2879,2.1851,2.1854,0.0,2.1881,2.1848,2.251,2.3289,2.4137,2.5026,2.563,2.5731,2.5919,2.5397,2.379,2.3001,2.2211,2.1328,2.0499,2.0017,1.9979,2.0017,2.0036,2.0036,2.0074,0.0,0.0,0.0,0.0,0.0,0.0,0.0,0.0,0.0,0.0,0.0,0.0,0.0,0.0,0.0,0.0,0.0,0.0,0.0,0.0,0.0,0.0,0.0,0.0,0.0,0.0,0.0,0.0,2.8346,2.842,0.0,2.914,2.8768,2.9009,3.0292,3.0387,3.0952,3.2249,3.2323,3.2323,3.2323,3.3124,3.3568,3.3568,3.3907,3.4074,3.4049,3.3728,3.3542,3.3509,3.3745,3.3815,3.377,3.3495,3.336,3.322,3.1323,2.9942,2.8984,2.8215,2.7982,2.8126,2.8431,2.8591,2.8652,2.8652,2.8652,2.8503,2.7684,2.6687,2.5791,2.5847,2.6074,2.6351,2.6578,2.7545,2.8472,2.8357,2.9254,3.0182,3.0159,2.9768,2.937,2.9353,2.8301,2.7205,2.6639,2.4811,2.3382,2.3372,2.2966,2.2804,2.3307,2.4054,2.4892,2.5735,2.618,2.6447,2.6566,2.6716,2.6186,2.4663,2.4306,2.3576,2.2257,2.1383,2.117,2.1683,2.1208,2.1189,2.17,2.17,2.1729,0.0,0.0,0.0,0.0,0.0,0.0,0.0,0.0,0.0,0.0,0.0,0.0,0.0,0.0,0.0,0.0,0.0,0.0,0.0,0.0,0.0,0.0,0.0,0.0,0.0,0.0,2.9574,3.0351,3.0678,3.1018,3.1536,3.1158,3.1417,3.2687,3.2773,3.3357,3.47,3.4773,3.4773,3.4773,3.5296,3.5572,3.5572,3.5609,3.5487,3.5185,3.4574,3.4131,3.3855,3.3809,3.3807,3.3807,3.3807,3.3807,3.3752,3.3213,3.2406,3.1385,3.0322,2.9961,3.0035,3.0072,3.011,3.0132,3.0132,3.0132,3.0007,2.9206,2.8589,2.8107,2.7881,2.783,2.7886,2.8126,2.8896,2.9713,2.987,3.0649,3.139,3.139,3.0987,3.0595,3.0595,2.9775,2.9004,2.9004,2.6856,2.5007,2.5018,2.4577,2.4393,2.4926,2.5454,2.6213,2.7366,2.7355,2.7393,2.7797,2.7713,2.7152,2.5953,2.5349,2.4586,2.3537,2.2434,2.2032,2.2581,2.209,2.2076,2.2616,2.2624,2.2797,2.3134,0.0,0.0,0.0,0.0,0.0,0.0,0.0,0.0,0.0,0.0,0.0,0.0,0.0,0.0,0.0,0.0,0.0,0.0,0.0,0.0,0.0,0.0,0.0,2.9531,3.0721,3.201,3.2741,3.3602,3.4118,3.4052,3.4105,3.4456,3.52,3.5236,3.5558,3.6365,3.6384,3.6376,3.6376,3.6376,3.6376,3.6376,3.634,3.5917,3.5078,3.5052,3.4619,3.388,3.388,3.388,3.388,3.3844,3.3844,3.3844,3.3807,3.3807,3.3648,3.2163,3.1575,3.1587,3.1635,3.1678,3.1678,3.1678,3.1659,3.1493,3.0712,3.0445,3.03,2.9502,2.9318,2.953,3.0307,3.0511,3.0645,3.1354,3.1501,3.1464,3.1464,3.147,3.1445,3.1445,3.1409,3.139,3.139,2.8888,2.6735,2.668,2.668,2.668,2.668,2.6699,0.0,2.8955,2.8603,2.8567,2.9458,2.8959,2.8306,2.7603,2.6117,2.522,2.5246,2.3638,2.268,2.268,2.266,2.2673,2.2781,2.2805,2.3237,2.407,0.0,0.0,0.0,0.0,0.0,0.0,0.0,0.0,0.0,0.0,0.0,0.0,0.0,0.0,0.0,0.0,0.0,0.0,0.0,0.0,0.0,0.0,3.3549,3.2016,3.367,3.5086,3.528,3.6551,3.7404,3.739,3.7404,3.7724,3.8517,3.8032,3.8062,3.888,3.8358,3.8046,3.8046,3.8046,3.8046,3.8046,3.7467,3.7052,3.6806,3.6211,3.5826,3.5605,3.5605,3.5605,3.5569,3.4931,3.4674,3.4619,3.4045,3.3807,3.3752,3.3324,3.3172,3.3172,3.3192,3.3198,3.3198,3.3198,3.2812,3.2291,3.2071,3.1605,3.1096,3.0917,3.0886,3.0947,3.1162,3.1624,3.209,3.226,3.2712,3.3134,3.3134,3.2687,3.2277,3.2277,3.1806,3.139,3.139,3.0693,2.9714,2.8546,2.8345,2.8345,2.8345,2.8846,0.0,3.0697,3.0811,3.0692,3.0465,3.0419,2.9853,2.8551,2.8076,2.7338,2.6157,2.5071,2.449,2.449,2.3872,2.3847,2.4492,2.5175,2.5654,0.0,0.0,0.0,0.0,0.0,0.0,0.0,0.0,0.0,0.0,0.0,0.0,0.0,0.0,0.0,0.0,0.0,0.0,0.0,0.0,0.0,0.0,3.4702,3.5976,3.5807,3.6952,3.7812,3.7812,3.8924,3.9709,3.9709,3.9709,3.9892,4.0377,3.9966,3.9911,4.0377,3.9643,3.9203,3.9203,3.8891,3.8699,3.8699,3.823,3.7834,3.7492,3.7033,3.6622,3.631,3.631,3.631,3.6266,3.5764,3.5334,3.4979,3.4883,3.4633,0.0,0.0,0.0,0.0,0.0,3.3807,3.3807,3.3807,3.3488,3.3103,3.3103,3.2797,3.2351,3.2046,3.1961,3.1961,3.1961,3.2291,3.2732,3.3024,3.3458,3.3807,3.3807,3.344,3.3103,3.3103,3.2742,3.2418,3.2418,3.2418,0.0,3.073,3.024,3.0002,3.0002,3.0393,3.1036,3.1925,3.1895,3.1685,3.1417,3.1237,3.0656,2.9448,2.9076,0.0,0.0,0.0,2.6253,2.6282,2.5795,0.0,0.0,0.0,2.7141,2.716,0.0,0.0,0.0,2.7816,2.7893,0.0,0.0,0.0,0.0,0.0,0.0,0.0,0.0,0.0,0.0,0.0,0.0,0.0,0.0,0.0,0.0,3.689,3.8576,4.0092,4.0385,4.0367,4.0183,4.0891,4.1379,4.1379,4.1379,4.1379,4.1379,4.1287,4.1242,4.1242,0.0,0.0,0.0,0.0,3.8799,3.8699,3.8699,3.834,3.7639,3.7639,3.7265,3.656,3.656,3.656,3.656,3.6475,3.6009,3.5334,3.6028,3.5837,3.5078,3.4241,3.3935,3.3917,3.3825,3.3807,3.3807,3.3807,0.0,0.0,3.3807,3.3862,3.3807,3.3084,3.2931,3.3023,3.3023,3.2956,3.3041,3.3752,3.3862,3.3807,3.3807,3.3807,3.3795,3.382,3.382,3.3802,3.3809,3.3815,3.3607,3.2884,3.2076,3.1544,3.155,3.155,3.1894,3.2841,3.246,3.2168,3.2347,0.0,0.0,3.033,2.9607,2.9112,2.8921,2.8163,2.7744,2.7806,2.7802,2.7802,2.7802,2.7959,2.8047,2.8047,2.8854,2.9239,2.922,2.8508,2.8181,0.0,0.0,0.0,0.0,0.0,0.0,0.0,0.0,0.0,0.0,0.0,0.0,0.0,0.0,0.0,3.7727,3.99,4.1699,4.2662,4.3351,4.3287,4.1992,4.2551,4.3047,4.3047,4.3047,4.3047,4.3047,4.2433,4.2066,4.2066,4.1305,4.0571,3.9926,3.9761,3.935,3.8707,3.8699,3.8608,3.8469,0.0,0.0,3.8248,3.8248,3.8248,3.8193,3.754,3.718,3.6971,3.6494,3.6193,3.5954,3.5096,3.4766,3.4692,3.4045,3.3807,3.3807,3.3807,3.3807,3.3807,3.3807,3.4241,3.4747,3.4575,3.503,0.0,3.5587,3.5085,3.4575,3.4729,3.4296,3.3807,3.3807,3.3807,3.3802,3.3862,3.3875,3.3895,3.3947,3.3959,3.3904,3.3757,3.296,3.2388,3.2445,3.2458,3.2803,3.3802,3.3949,3.3813,3.3374,3.3305,3.2745,3.1347,3.1089,3.0421,2.9059,2.8225,2.7783,2.7808,2.7852,2.7887,2.7887,2.8527,2.8876,2.8876,2.9737,3.0154,3.0135,2.9981,2.9923,0.0,0.0,0.0,0.0,0.0,0.0,0.0,0.0,0.0,0.0,0.0,3.5653,0.0,0.0,3.9111,4.0304,4.2186,4.3636,4.4048,4.4452,4.4241,4.3039,4.3267,4.3506,4.3506,4.3506,4.3506,4.3506,4.3139,4.29,4.29,4.2139,4.1323,4.0524,4.0102,3.9706,3.9294,3.9294,3.9294,3.9294,3.9294,3.9093,3.8699,3.8699,3.8699,3.8689,3.8274,3.787,3.7474,3.7063,3.7136,3.7422,3.6578,3.5745,3.4942,3.4546,3.4156,3.3807,3.3807,3.4057,3.4406,3.4406,3.4974,3.5653,3.5653,3.5954,3.631,3.631,3.5991,3.5562,3.5114,3.4711,3.4296,3.3899,3.3834,3.3855,3.3888,3.3927,3.3959,3.3992,3.3998,3.3998,3.3998,3.3608,3.3312,3.335,3.3388,3.3617,3.4171,3.4433,3.433,3.371,3.377,3.3393,3.2259,3.2149,3.1813,3.1005,3.0577,3.0355,3.0354,3.0385,3.0393,3.0393,3.0797,3.1009,3.1009,3.1448,3.1657,3.1657,3.1657,3.1192,0.0,0.0,0.0,0.0,0.0,0.0,0.0,0.0,3.7737,3.784,3.8679,3.9405,3.9405,4.0718,4.2057,4.2873,4.4223,4.5104,4.4957,4.4938,4.458,4.3616,4.3506,4.3506,4.3506,4.3506,4.3506,4.3506,4.3506,4.3506,4.3506,4.2892,4.2158,4.136,4.0708,4.0294,4.012,4.012,4.012,4.012,4.012,3.9717,3.8927,3.8927,3.8854,3.8699,3.8699,3.8322,3.7724,3.7724,3.8127,3.8634,3.7981,3.6798,3.5463,3.5316,3.4846,3.4284,3.4284,3.4699,3.5261,3.5261,3.5837,3.653,3.653,3.6641,3.6769,3.6769,3.6652,3.6376,3.5672,3.5243,3.4839,3.4185,3.3964,3.3881,3.3908,3.3959,3.4004,3.4036,3.4042,3.4042,3.4042,3.4042,3.4042,3.4042,3.4086,3.4185,3.4351,3.4539,3.4475,3.4021,3.4086,3.3872,3.3121,3.2907,3.2838,3.2907,3.2907,3.2901,3.291,3.2891,3.2891,3.2891,3.2891,3.2891,3.2891,3.2891,3.2891,3.2891,3.2891,3.2176,2.8619,2.9458,3.0831,3.1737,3.38,3.5633,0.0,0.0,3.9506,3.954,4.0787,4.1901,4.1901,4.3214,4.4553,4.5369,4.6241,4.6581,4.5865,4.5773,4.5204,4.3671,4.3506,4.3506,4.3506,4.3506,4.3506,4.3506,4.3506,4.3506,4.3506,4.3414,4.301,4.2194,4.2084,4.1699,4.0967,4.0975,4.0975,4.0975,4.0975,4.0534,3.978,3.978,3.9386,3.8699,3.8699,3.8644,3.8579,3.8579,3.8608,3.8681,3.8597,3.801,3.7118,3.642,3.6101,3.6009,3.6009,3.609,3.6156,3.6156,3.6696,3.7364,3.7364,3.7852,3.8424,3.8424,3.7925,3.7345,3.7254,3.6112,3.4979,3.4894,3.4339,3.3835,3.3959,3.3992,3.4036,3.4154,3.4179,3.4179,3.4179,3.4179,3.4179,3.4179,3.4185,3.4299,3.4623,3.4735,3.4827,3.4924,3.5068,3.4814,3.4016,3.3293,3.2887,3.2904,3.2904,3.2907,3.2891,3.2891,3.2891,3.2891,3.2891,3.2891,3.2891,3.2891,3.2891,3.2891,3.2891,3.2795,2.9524,3.0803,3.2596,3.3393,3.5779,3.8084,3.8635,4.1044,4.3076,4.2732,4.3948,4.4957,4.4488,4.5324,4.6223,0.0,4.7269,4.7342,4.6085,4.5902,4.5131,4.3039,4.28,4.2992,4.3451,4.3506,4.3506,4.3506,4.3506,4.3506,4.3506,4.3506,4.3139,4.2323,4.2304,4.2139,4.1801,4.1801,4.1801,4.1801,4.1801,4.1379,4.0579,4.0102,3.9467,3.8699,3.8699,3.8699,3.8699,3.8699,3.8699,3.8699,3.8699,3.8487,3.8109,3.7301,3.6696,3.631,3.631,3.6604,3.6997,3.6997,3.754,3.8201,3.8201,3.8432,3.8699,3.8699,3.8469,3.8091,3.7621,3.6971,3.6211,3.5224,3.48,3.45,3.409,3.403,3.4086,3.4179,3.4203,3.4203,3.4203,3.4203,3.4215,3.4251,3.4287,3.4374,3.4556,3.4737,3.4954,3.5191,3.5304,3.5246,3.4938,3.4614,3.441,3.4407,3.4407,3.4407,3.4407,3.4407,3.4407,3.4407,3.4407,3.4407,3.4407,3.4407,3.4407,3.4407,3.4407,3.4407,3.0781,3.2549,0.0,3.5675,3.8525,4.1279,4.1957,4.43,4.62,4.5783,4.6434,4.6911,4.6342,4.6535,4.6847,4.7058,4.7599,4.7471,4.6104,4.5718,4.4764,4.2561,4.2103,4.2194,4.2782,4.3047,4.3267,4.3469,4.3506,4.3506,4.3506,4.3506,4.3231,4.2653,4.2635,4.2635,4.2635,4.2635,4.2635,4.2635,4.2635,4.2213,4.1397,4.0377,3.9467,3.8699,3.8699,3.8699,3.8699,3.8699,3.8699,3.8699,3.8699,3.8699,3.8634,3.8054,3.7467,3.6964,3.6964,3.7331,3.7834,3.7834,3.8238,3.8699,3.8699,3.8699,3.8699,3.8699,3.8699,3.8579,3.7981,3.7676,3.7199,3.5984,3.5586,3.5354,3.4809,3.4739,3.4784,3.4872,3.4891,3.4891,3.4891,3.4891,3.4829,3.4654,3.4701,3.4689,3.4571,3.4787,3.5044,3.5285,3.5364,3.542,3.5497,3.55,3.55,3.55,3.55,3.55,3.55,3.55,3.55,3.55,3.55,3.55,3.55,3.55,3.55,3.55,3.55,3.55,3.2651,3.5049,3.7267,3.8852,4.2313,4.5332,4.5438,4.6838,4.8142,4.8185,4.7617,4.7094,4.7076,4.6443,4.6195,4.6966,4.7113,4.6847,4.6012,4.5232,4.4131,4.2488,4.1617,4.115,0.0,4.1874,4.2653,4.3433,4.3506,4.3506,4.3506,4.3506,4.3488,4.3451,4.3451,4.3451,4.3451,4.3451,4.3451,4.3451,4.3451,4.3047,4.2213,4.0624,3.9467,3.8699,3.8699,3.8699,3.8699,3.8699,3.8699,3.8699,3.8699,3.8699,3.8699,3.8663,3.8644,3.8634,3.8634,3.8644,3.867,3.867,3.8689,3.8699,3.8699,3.8699,3.8699,3.8699,3.8699,3.8681,3.8663,3.8072,3.7492,3.7437,3.6831,3.6291,3.6394,3.6429,3.6476,3.6604,3.6618,3.6618,3.6618,3.6618,3.6358,3.5584,3.5529,3.5357,3.4773,3.4922,3.5147,3.5297,3.5364,3.542,3.5497,3.55,3.55,3.55,3.55,3.55,3.55,3.55,3.55,3.55,3.55,3.55,3.55,3.55,3.55,3.55,3.55,3.55,3.3701,3.6345,3.8961,4.0537,4.3155,4.5553,4.6239,4.7683,4.8593,4.7689,4.7278,4.6764,4.57,4.4856,4.4562,4.5379,4.5507,4.5415,4.514,4.4415,4.3314,4.169,4.0791,0.0,0.0,0.0,0.0,4.2671,4.3194,4.3506,4.3506,4.3506,4.3506,4.3506,4.3506,4.3506,4.3506,4.3506,4.3506,4.3506,4.3506,4.28,4.1489,4.0938,3.9974,3.8699,3.8699,3.8699,3.8699,3.8699,3.8699,3.8699,3.8699,3.8699,3.8699,3.8699,3.8699,3.8699,3.8699,3.8699,3.8699,3.8699,3.8699,3.8699,3.8699,3.8699,3.8699,3.8699,3.8699,3.8699,3.8699,3.8505,3.8157,3.7621,3.729,3.6996,3.6597,3.6503,3.6544,3.6667,3.6693,3.6693,3.6693,3.6693,3.6433,3.5621,3.5057,3.4722,3.4698,3.4831,3.4963,3.5151,3.5274,3.5364,3.5423,3.5467,3.55,3.55,3.55,3.55,3.55,3.55,3.55,3.55,3.55,3.55,3.55,3.55,3.55,3.55,3.55,3.55,3.559,3.8316,4.0935,4.2517,4.4732,4.662,4.708,4.8016,4.836,4.6927,4.5975,4.4975,4.3654,4.2525,4.2139,4.325,4.3654,4.3929,4.4232,4.3828,4.301,4.169,4.081,4.0322,0.0,0.0,0.0,4.2304,4.3047,4.3506,4.3506,4.3506,4.3506,4.3506,4.3506,4.3506,4.3506,4.3506,4.3506,4.3506,4.3212,4.2378,4.1095,4.081,3.9947,3.8699,3.8699,3.8699,3.8699,3.8699,3.8699,3.8663,3.8377,3.8267,3.823,3.7955,3.8028,3.8303,3.8597,3.8699,3.8699,3.8699,3.8699,3.8699,3.8699,3.8699,3.8699,3.8699,3.8699,3.8699,3.8699,3.8699,3.8579,3.8054,3.7925,3.7816,3.7417,3.7331,3.7387,3.7492,3.7546,3.7566,3.7566,3.7324,3.686,3.6049,3.5244,3.47,3.4645,3.471,3.4836,3.5031,3.5159,3.5274,3.5361,3.5439,3.5467,3.55,3.55,3.55,3.55,3.55,3.55,3.55,3.55,3.55,3.55,3.55,3.55,3.55,3.55,3.55,3.8277,4.0855,4.3105,4.4736,4.6876,4.8439,4.7933,4.781,4.739,4.5909,4.3739,4.1856,0.0,0.0,3.9048,4.0718,4.1617,4.2433,4.3304,4.3396,4.3121,0.0,0.0,0.0,0.0,0.0,0.0,4.2304,0.0,4.3506,4.3506,4.3506,4.3506,4.3506,4.3506,4.3506,4.3506,4.3506,4.3506,4.3488,4.2671,4.1874,4.1058,4.0267,3.9467,3.8699,3.8699,3.8699,3.8699,3.8699,3.8699,3.8608,3.7815,3.7492,3.7401,3.6604,3.6806,3.7621,3.8377,3.8663,3.8699,3.8699,3.8699,3.8699,3.8699,3.8699,3.8699,3.8699,3.8699,3.8699,3.8699,3.8699,3.8699,3.8699,3.8699,3.873,3.8784,3.884,3.8932,3.8997,3.9045,3.9101,3.9101,3.8469,3.7696,3.6878,3.6086,3.5293,3.4579,3.4594,3.4764,3.4964,3.5054,3.5147,3.5274,3.5361,3.542,3.5497,3.55,3.55,3.55,3.55,3.55,3.55,3.55,3.55,3.55,3.55,3.55,3.55,3.55,3.55,3.9951,4.2249,4.4364,4.5495,4.6273,4.6787,4.6838,4.6019,4.4816,4.3278,4.11,3.9245,0.0,0.0,0.0,3.8938,3.947,0.0,4.2323,4.2084,0.0,4.2249,0.0,4.1095,4.1095,4.1819,0.0,0.0,4.3047,4.3506,4.3506,4.3506,4.3506,4.3506,4.3506,4.3506,4.3506,4.3506,4.3506,4.3488,4.2671,4.1874,4.1058,4.0267,3.9467,3.8699,3.8699,3.8699,3.8699,3.8699,3.8699,3.8608,3.7815,3.7492,3.7401,3.6604,3.6806,3.7529,3.7724,3.8201,3.8699,3.8699,3.8699,3.8699,3.8699,3.8699,3.8699,3.8699,3.8699,3.8699,3.8699,3.8699,3.8699,3.8699,3.8699,3.873,3.8784,3.884,3.8932,3.8997,3.9045,3.9101,3.9101,3.8934,3.8525,3.7714,3.6916,3.5894,3.4539,3.4414,3.455,3.4759,3.4884,3.5037,3.5207,3.5285,3.5372,3.5497,3.55,3.55,3.55,3.55,3.55,3.55,3.55,3.55,3.55,3.55,3.55,3.55,3.55,3.55,4.186,4.3492,4.4923,4.5583,4.5806,4.5674,4.4921,4.392,4.2513,4.0269,3.8237,3.6643,3.5875,3.4716,3.4664,0.0,0.0,0.0,4.1311,4.2151,4.27,0.0,4.2863,0.0,4.2631,4.2756,4.2818,0.0,4.3231,4.3506,4.3506,4.3506,4.3506,4.3506,4.3506,4.3506,4.3506,4.3506,4.3506,4.3488,4.2323,4.1544,4.1067,3.99,3.9129,3.8699,3.8699,3.8699,3.8699,3.8699,3.8699,3.8579,3.743,3.6978,3.6831,3.5649,3.5961,3.6978,3.6978,3.7742,3.8699,3.8699,3.8699,3.8699,3.8699,3.8699,3.8699,3.8699,3.8699,3.8699,3.8699,3.8699,3.8699,3.8699,3.8699,3.8715,3.875,3.8829,3.8921,3.9028,3.9073,3.9101,3.9101,3.9101,3.8822,3.803,3.7529,3.6761,3.5516,3.4776,3.442,3.4639,3.474,3.4903,3.5134,3.523,3.5316,3.5449,3.547,3.55,3.55,3.55,3.55,3.55,3.55,3.55,3.55,3.55,3.55,3.55,3.55,3.55,4.3553,4.4475,4.509,4.5253,4.5221,4.4665,4.2706,4.1604,4.0167,3.7262,3.5384,3.4069,3.337,3.2691,3.2985,3.5279,0.0,3.8617,4.0279,4.2532,4.4069,4.423,4.4408,4.4538,4.4547,4.3878,4.3471,4.3471,4.3471,4.348,4.3506,4.3506,4.3506,4.3506,4.3506,4.3506,4.3506,4.3506,4.3506,4.3469,4.1874,4.1095,4.104,3.9433,3.8699,3.8699,3.8699,3.8699,3.8699,3.8699,3.8699,3.856,3.7044,3.6457,3.6266,3.4706,3.5117,3.6457,3.6457,3.7441,3.8699,3.8699,3.8699,3.8699,3.8699,3.8699,3.8699,3.8699,3.8699,3.8699,3.8699,3.8773,3.8854,3.8854,3.8938,3.9011,3.9011,3.9031,3.9102,3.924,3.9175,3.9101,3.9101,3.9101,3.8859,3.8154,3.7975,3.7659,3.6953,3.5554,3.465,3.4721,3.4798,3.4888,3.5034,3.513,3.5242,3.5383,3.5449,3.5493,3.55,3.55,3.55,3.55,3.55,3.55,3.55,3.55,3.55,3.55,3.55,3.55,4.4076,4.4742,4.5221,4.4761,4.3837,4.2691,4.1325,3.9107,0.0,0.0,3.3109,3.1522,3.1398,3.1343,3.1869,3.3582,3.516,3.6942,3.9155,4.0889,4.243,0.0,4.404,4.4146,4.4268,4.3652,0.0,0.0,4.3241,4.3313,4.3479,4.3506,4.3506,4.3506,4.3506,4.3506,4.3506,4.3506,4.3506,4.3469,4.1874,4.1095,4.104,3.9433,3.8699,3.8699,3.8699,0.0,3.8699,3.8699,3.8699,3.8615,3.765,3.729,3.718,3.6218,3.6475,3.729,3.729,3.7907,3.8699,3.8699,3.8699,3.8699,3.8699,3.8699,3.8699,3.8699,3.8699,3.8699,3.8699,3.9184,3.9688,3.9688,4.0194,4.0681,4.0681,4.0265,3.996,4.0138,3.9591,3.9101,3.9101,3.9101,3.9045,3.8915,3.8328,3.7845,3.7714,3.6866,3.6056,3.5496,3.5485,3.5313,3.481,3.4978,3.5175,3.53,3.5376,3.5449,3.55,3.55,3.55,3.55,3.55,3.55,3.55,3.55,3.55,3.55,3.55,3.55,4.4498,4.4902,4.4942,4.3915,4.295,4.1708,3.9659,0.0,0.0,3.3217,3.1394,3.0115,3.0122,3.0488,0.0,3.288,3.4798,3.6589,3.8106,4.0373,0.0,4.3442,4.4078,4.4433,0.0,4.3938,4.3401,4.2975,4.3077,4.3242,4.3437,4.348,4.3506,4.3506,4.3506,4.3506,4.3506,4.3506,4.3506,4.3469,4.1874,4.1095,4.104,3.9433,3.8699,3.8699,3.8699,3.8699,3.8699,3.8699,3.8699,3.8608,3.7815,3.7492,3.7401,3.6604,3.6806,3.7492,3.7492,3.8036,3.8699,3.8699,3.8699,3.8699,3.8699,3.8699,3.8699,3.8699,3.8699,3.8799,3.9221,3.9614,4.0018,4.0414,4.0842,4.1166,4.1196,4.1011,4.0874,4.1,4.0353,3.9777,3.9777,3.9398,3.9101,3.9101,3.8767,3.8525,3.8525,3.8191,3.7518,3.636,3.6248,3.6013,3.538,3.5463,3.5453,3.5212,3.5281,3.5372,3.5449,3.547,3.55,3.55,3.55,3.55,3.55,3.55,3.55,3.55,3.55,3.55,4.4453,4.4777,4.4565,4.3134,4.2079,4.0656,3.7843,3.5504,0.0,3.1272,2.9872,2.9037,2.9037,2.9803,3.0869,0.0,3.4289,3.6114,3.7018,3.972,4.1923,0.0,4.3924,0.0,4.4414,4.4003,0.0,4.2629,4.2824,4.3105,4.3385,4.3454,4.3506,4.3506,4.3506,4.3506,4.3506,4.3506,4.3506,4.3469,4.1874,4.1095,4.104,3.9433,3.8699,3.8699,3.8699,3.8699,3.8699,3.8699,3.8699,3.8634,3.7999,3.776,3.7669,3.7044,3.721,3.776,3.776,3.8182,3.8699,3.8699,3.8699,3.8699,3.8699,3.8699,3.8699,3.8699,3.8817,3.9093,3.9743,4.0165,4.0624,4.1415,4.1665,4.1735,4.1812,4.1779,4.179,4.1835,4.1077,4.0408,4.0408,3.9684,3.9101,3.9101,3.9101,3.9101,3.9101,3.9101,3.8638,3.7408,3.7149,3.6739,3.5905,3.591,3.5709,3.5088,3.5185,3.5285,3.5372,3.5449,3.5493,3.55,3.55,3.55,3.55,3.55,3.55,3.55,3.55,3.55,4.3345,4.407,4.4267,4.2742,4.0883,3.8729,3.59,0.0,3.0681,2.932,2.8413,2.7858,2.7858,2.9218,3.0348,3.0429,3.2374,3.434,3.5771,3.7894,3.9887,4.148,0.0,0.0,4.3127,4.319,4.2971,4.2209,4.2452,4.2871,4.3358,4.3454,4.3506,4.3506,4.3506,4.3506,4.3506,4.3506,4.3506,4.3469,4.1874,4.1095,4.104,3.9433,3.8699,3.8699,3.8699,3.8699,0.0,3.8699,3.8699,3.8681,3.8608,3.8597,3.8579,3.8498,3.8524,3.8597,3.8597,3.8634,3.8699,3.8699,3.8699,3.8699,3.8699,3.8699,3.8699,3.8699,3.9239,3.9816,3.9871,4.0983,4.2286,4.3084,4.3327,4.3403,4.3539,4.3056,4.2605,4.2689,4.1449,4.0408,4.0408,3.9684,3.9101,3.9101,3.9101,3.9101,3.9101,3.9101,3.9052,3.8904,3.8295,3.728,3.5764,3.5807,3.5606,3.4869,3.5018,3.519,3.5308,3.5372,3.5446,3.55,3.55,3.55,3.55,3.55,3.55,3.55,3.55,3.55,4.2303,4.2963,4.2959,4.1897,4.0007,3.7673,3.4815,0.0,3.009,2.8762,2.7916,2.7407,2.7407,2.8714,2.9841,2.9884,3.1812,3.3522,3.4144,3.618,3.8025,3.9131,4.1084,0.0,0.0,0.0,4.2708,4.2136,4.2308,4.2532,4.2787,4.3096,4.3287,4.3331,4.3313,4.3313,4.3313,4.3313,4.3358,4.3419,4.2293,4.1522,4.1058,3.9937,3.9166,3.8699,3.8699,3.8699,0.0,3.8699,3.8699,3.8699,3.8699,3.8699,3.8699,3.8699,3.8699,3.8699,3.8699,3.8699,3.8699,3.8699,3.8699,3.8699,3.8699,3.8699,3.8699,3.8699,3.9276,4.0018,4.0506,4.1827,4.3102,4.3414,4.3609,4.3736,4.3788,4.3632,4.3483,4.3514,4.2612,4.1839,4.1839,4.0754,3.9888,3.9888,3.9442,3.9101,3.9101,3.9101,3.9101,3.9101,3.885,3.8028,3.6454,3.6397,3.5959,3.48,3.4855,3.5022,3.5231,3.5297,3.5382,3.55,3.55,3.55,3.55,3.55,3.55,3.55,3.55,3.55,4.0443,4.1318,4.1471,4.073,3.8857,3.6513,0.0,0.0,2.9559,2.8177,2.7489,2.7135,2.7135,2.8241,2.9256,2.9557,3.1139,3.2506,3.3012,3.4859,3.6454,0.0,0.0,4.1036,0.0,4.1719,4.2185,4.1905,4.1977,4.2075,4.2185,4.2514,4.2786,4.3013,4.3022,4.3022,4.3022,4.305,4.3096,4.3178,4.2457,4.1715,4.0951,4.016,3.937,3.8611,3.8611,3.8611,0.0,3.8624,3.865,3.8632,3.8673,3.8699,3.8699,3.8699,3.8699,3.8699,3.8699,3.8699,3.8699,3.8699,3.8699,3.8699,3.8699,3.8699,3.8699,3.8699,3.9441,4.0487,4.1552,4.2653,4.3506,4.3506,4.3661,4.3796,4.3796,4.3915,4.4005,4.4005,4.3355,4.2797,4.2797,4.1672,4.0743,4.0743,4.0037,3.9472,3.9472,3.925,3.9101,3.9101,3.9101,3.8564,3.7241,3.6925,3.6397,3.5431,3.5008,3.4998,3.5499,3.5364,3.5335,3.5463,3.5493,3.55,3.55,3.55,3.55,3.55,3.55,3.55,3.7521,3.9005,3.996,3.9203,3.7302,3.5036,3.2818,3.0641,2.8686,2.7224,2.6959,2.6999,2.6999,2.7722,2.8561,2.9274,3.003,3.1052,3.2588,3.4024,3.5247,0.0,0.0,4.0447,3.9784,4.0574,4.1198,4.1392,4.1414,0.0,4.1698,4.172,4.1994,4.2589,4.2609,4.2609,4.2609,4.2681,4.2711,4.2703,4.2159,4.1478,4.0687,3.9935,3.9156,3.8399,3.8399,3.8399,0.0,3.8478,3.851,3.8517,3.865,3.8699,3.8699,3.8699,3.8699,3.8699,3.8699,3.8699,3.8699,3.8699,3.8699,3.8699,3.8699,3.8699,3.8699,3.8699,3.9856,4.147,4.3065,4.3488,4.3506,4.3506,4.3661,4.3796,4.3796,4.3915,4.4005,4.4005,4.3355,4.2797,4.2797,4.2129,4.1597,4.1597,4.091,4.039,4.039,3.9628,3.9101,3.9101,3.9101,3.8767,3.7956,3.7216,3.6845,3.6968,3.5544,3.5174,3.624,3.5598,3.5266,3.5405,3.5463,3.55,3.55,3.55,3.55,3.55,3.55,3.55,3.578,3.7077,3.7794,3.7545,3.6158,3.4269,3.2046,3.0247,2.8732,2.7724,2.714,2.6792,2.6792,2.742,2.8236,2.9056,2.9798,3.0857,0.0,0.0,0.0,3.6039,3.8459,4.0376,0.0,0.0,4.136,4.2027,4.1568,4.1289,4.1351,4.1362,4.1578,4.211,4.212,4.212,4.212,4.2241,4.2315,4.235,4.1763,4.1094,4.0338,3.9553,3.8749,3.7991,3.7991,3.8042,3.8128,3.8153,3.8246,3.837,3.8413,3.8451,3.8496,3.8544,3.8952,3.9464,3.9491,3.9523,3.9523,3.9523,3.9148,3.8699,3.8699,3.8699,3.892,4.0039,4.1103,4.2158,4.3231,4.3506,4.3506,4.3506,4.3583,4.3684,4.3788,4.3875,4.3953,4.3989,4.3782,4.3615,4.3615,4.2946,4.2415,4.2415,4.1739,4.1021,4.0464,4.0167,3.9758,3.9157,3.9101,3.8767,3.7975,3.7697,3.7111,3.6105,3.5626,3.5338,3.5205,3.5166,3.52,3.5324,3.5391,3.5456,3.55,3.55,3.55,3.55,3.55,3.55,3.3328,3.4516,3.517,3.5447,3.4584,0.0,3.1589,3.027,2.9187,2.8416,2.7655,2.7114,2.7114,2.7494,2.8087,2.8922,2.9676,3.0723,0.0,0.0,0.0,3.7206,0.0,0.0,0.0,4.1456,4.137,4.2198,4.1522,4.11,4.11,4.11,4.122,4.1507,4.1607,4.1651,4.1651,4.1766,4.1852,4.1892,4.1306,4.0642,3.987,3.9124,3.8329,3.7578,3.7578,3.7641,0.0,3.7801,3.7905,3.8088,3.8095,3.8179,3.8297,3.8662,3.9183,3.9786,4.015,4.0115,3.9908,3.9908,3.935,3.8699,3.8699,3.8909,3.9415,4.0736,4.1672,4.2488,4.3286,4.3506,4.3506,4.3506,4.3539,4.3642,4.3779,4.3851,4.3921,4.3989,4.4005,4.4005,4.4005,4.3578,4.3243,4.3243,4.2575,4.1876,4.1374,4.104,4.0538,3.9684,3.9591,3.9257,3.842,3.8061,3.7499,3.6559,3.5968,3.5505,3.5175,3.5016,3.5032,3.5218,3.5324,3.541,3.546,3.5493,3.55,3.55,3.55,3.55,0.0,3.1572,3.2412,3.3136,3.2808,3.2107,3.1369,3.0632,0.0,2.9221,2.8399,2.7807,2.7807,2.7807,2.8069,2.8874,2.9627,0.0,0.0,3.3955,0.0,0.0,3.9686,0.0,4.1849,4.1331,4.121,4.1935,4.1314,4.0912,4.0912,4.0912,4.0912,4.0912,4.1088,4.1186,4.1186,4.1306,4.1363,4.1293,4.0752,4.0067,3.9263,3.8588,3.7868,0.0,3.7159,3.7235,3.7348,3.7414,3.7532,3.7667,3.773,3.7836,3.8057,3.8929,3.9428,3.9761,4.0638,4.0555,4.0039,3.9926,3.935,3.8707,3.8781,3.935,4.0139,4.0883,4.1727,4.2561,4.3304,4.3506,4.3506,4.3506,4.3558,4.3634,4.3763,4.3843,4.3913,4.3981,4.3997,4.4005,4.4005,4.4005,4.4005,4.4005,4.3355,4.2853,4.2816,4.2155,4.1356,4.0483,4.0408,4.0055,3.9175,3.842,3.8001,3.7986,3.6547,3.5742,3.5866,3.5119,3.4827,3.5079,3.5283,3.5427,3.5482,3.5617,3.5654,3.5596,3.5596,3.5558,2.8297,0.0,3.164,3.2368,3.2429,3.2107,0.0,3.0632,3.0048,2.9888,2.8763,2.7807,2.7807,2.7807,2.8069,2.8874,0.0,3.0927,3.3039,0.0,0.0,3.8722,3.9888,4.0969,4.19,4.1331,4.121,4.1935,4.1314,4.0912,4.0912,4.0912,4.0912,4.0912,4.0942,4.0977,4.0977,4.1099,4.0862,4.0255,3.9667,3.8957,3.8143,3.743,3.6993,3.6819,3.6819,3.6851,3.6933,3.6952,3.7079,3.7234,3.7253,3.7384,3.7648,3.8526,3.9354,4.0194,4.118,4.1513,4.1339,4.0245,3.935,3.881,3.9423,4.0175,4.0865,4.104,4.2121,4.3267,4.3451,4.3506,4.3506,4.3506,4.3505,4.3558,4.3634,4.3744,4.3835,4.3905,4.3958,4.4005,4.4005,4.4005,4.4005,4.4005,4.3838,4.3503,4.2872,4.263,4.1969,4.0557,4.0408,4.0055,3.9175,3.8934,3.8551,3.7958,3.7043,3.6261,3.5687,3.5039,3.4742,3.486,3.5808,3.6324,3.6392,3.7082,3.7061,3.6423,3.6423,3.6096,2.8044,2.9245,3.0371,3.1116,3.1539,3.1691,3.1285,3.0886,3.0589,3.0589,0.0,2.834,2.834,2.834,2.8484,2.8925,3.0263,0.0,0.0,0.0,3.8642,3.906,4.0158,4.1193,0.0,4.1331,4.121,4.1935,4.1314,4.0912,4.0912,4.0912,4.0912,4.0912,4.0912,4.0912,4.0912,4.0971,4.0597,3.979,3.9136,3.8406,3.7643,3.687,3.6513,3.6513,3.6513,3.6575,3.6667,3.6667,3.6751,3.6928,3.6928,3.7238,3.7782,3.8724,3.9684,4.0665,4.1742,4.1814,4.1262,4.0181,3.931,3.8854,3.9669,4.0469,4.1168,4.1544,4.2543,4.3506,4.3506,4.3506,4.3506,4.3506,4.3506,4.3513,4.3582,4.3711,4.3829,4.3899,4.3942,4.4005,4.4005,4.4005,4.4005,4.4005,4.4005,4.3838,4.341,4.3355,4.2723,4.1114,4.0947,4.0446,3.9212,3.9101,3.8767,3.7949,3.719,3.6403,3.5621,3.4893,3.462,3.4807,3.5926,3.6553,3.6654,3.7536,3.7735,3.7292,3.7292,3.7061,2.8299,2.8824,2.9204,3.0057,3.0649,3.1021,3.1021,0.0,0.0,0.0,0.0,0.0,0.0,2.918,0.0,0.0,0.0,0.0,3.5912,3.7688,3.9002,3.9629,4.0503,0.0,4.178,4.1366,4.1279,4.1797,4.1245,4.0912,4.0912,4.0912,4.0912,4.0912,4.0912,4.0912,4.0912,4.0912,4.0434,3.9508,3.8899,3.8157,3.7295,3.6611,3.6301,3.6301,0.0,0.0,3.6471,3.6471,3.6534,3.6633,3.6633,3.7095,3.7906,3.8989,3.9928,4.0847,4.2157,4.1803,4.0681,4.0088,3.9344,3.8865,3.979,4.0561,4.1315,4.2369,4.3065,4.3506,4.3506,4.3506,4.3506,4.3506,4.3506,4.3523,4.3565,4.3703,4.382,4.3875,4.3953,4.4005,4.4005,4.4005,4.4005,4.4005,4.4005,4.4005,4.4005,4.4005,4.3429,4.195,4.1672,4.0984,3.9435,3.9175,3.8804,3.8135,3.7324,3.6502,3.564,3.4782,3.4482,3.4782,3.5846,3.6445,3.6577,3.7582,3.8051,3.8,3.8119,3.8123,2.6987,2.8011,2.9331,3.0683,3.0649,3.0267,3.0267,3.0267,0.0,0.0,0.0,0.0,0.0,3.001,3.0251,0.0,0.0,3.5781,0.0,0.0,3.956,3.9681,0.0,4.1624,4.1119,4.1521,4.1607,4.1119,4.0963,4.0912,4.0912,4.0912,4.0912,4.0912,4.0912,4.0912,4.0912,4.0912,4.0175,3.8778,3.8657,3.7864,3.6473,3.6353,3.6301,3.6301,0.0,3.6311,3.6332,3.6332,3.6332,3.6353,3.6353,3.6502,3.6901,3.8367,3.9184,3.9844,4.189,4.1729,4.0632,4.0693,3.9802,3.8975,4.0479,4.1012,4.1562,4.3727,4.3938,4.3506,4.3506,4.3506,4.3506,4.3506,4.3506,4.3496,4.3505,4.3669,4.3804,4.3812,4.3913,4.4005,4.4005,4.4005,4.4005,4.4005,4.4005,4.4005,4.4005,4.4005,4.3633,4.2705,4.1999,4.1226,4.0278,3.951,3.9045,3.8915,3.8154,3.7072,3.5659,3.4864,3.4545,3.4713,3.5775,3.6348,3.6426,3.8101,3.8577,3.7924,3.8727,3.8703,2.7723,2.8468,2.9348,3.0828,3.0954,3.0683,3.0683,3.0683,3.0683,0.0,0.0,0.0,0.0,0.0,3.0976,3.3058,0.0,3.6522,3.7411,3.9158,4.0348,0.0,0.0,4.2332,4.1573,4.1797,4.1693,4.0963,4.0912,4.0912,4.0912,4.0912,4.0912,4.0912,4.0912,4.0693,4.0262,4.0244,3.9692,3.8606,3.8606,3.7795,3.6301,3.6301,3.6301,3.6301,0.0,3.6301,3.6301,3.6301,3.6301,3.6301,3.6301,3.6591,3.7236,3.8879,3.9988,4.0761,4.156,4.1554,4.1098,4.0467,4.0132,4.0131,4.0875,4.1397,4.2076,4.3626,4.4103,4.425,4.4672,4.447,4.4268,4.4699,4.413,4.3616,4.4048,4.3965,4.3796,4.3796,4.3905,4.4005,4.4005,4.4005,4.4005,4.4005,4.4005,4.4005,4.4005,4.4005,4.3689,4.289,4.2463,4.1746,4.0501,4.0037,3.9424,3.8513,3.8098,3.7189,3.5603,3.5266,3.4912,3.4552,3.5551,3.6154,3.6306,3.7671,3.8184,3.7905,3.8347,3.8354,2.8637,2.9128,2.9525,3.0659,3.0937,3.0946,3.0949,3.0976,3.0959,3.1014,0.0,0.0,0.0,3.1065,0.0,3.4892,3.6425,3.7724,3.8974,4.048,4.1447,4.1447,4.2637,4.3069,4.209,4.2176,4.1912,4.0981,4.0912,4.0912,4.0912,4.0912,4.0912,4.0912,4.0912,4.0589,3.9986,3.9784,3.9244,3.8347,3.8347,3.764,3.6301,3.6301,3.6301,3.6301,3.6301,3.6301,3.6301,3.6301,3.6301,3.6301,3.6301,3.6784,3.7672,3.9055,4.0263,4.1195,4.1,4.1038,4.0972,4.0012,4.0069,4.06,4.0985,4.1525,4.2268,4.3451,4.436,4.5085,4.5516,4.5296,4.514,4.5755,4.4956,4.424,4.4847,4.4648,4.4296,4.411,4.4185,4.4204,4.4034,4.4005,4.4005,4.4005,4.4005,4.4005,4.4005,4.4005,4.3763,4.315,4.2909,4.2155,4.0538,4.0408,3.9777,3.829,3.7993,3.7343,3.6105,3.5944,3.559,3.4966,3.5756,3.6241,3.6403,3.7224,3.7719,3.7841,3.7897,3.8043,2.8764,2.9508,3.0057,3.0149,3.0183,3.0194,3.0255,3.0274,3.0311,3.0439,0.0,0.0,0.0,3.3333,3.5152,3.6066,3.8663,4.0607,4.071,0.0,4.3034,4.3034,4.3741,4.3638,4.2142,4.2689,4.2499,4.1015,4.0912,4.0912,4.0912,4.0912,4.0912,4.0912,4.0912,4.0865,4.0814,4.0072,3.8985,3.7581,3.7581,3.7139,3.6301,3.6301,3.6301,3.6301,3.6301,3.6301,3.6301,3.6301,3.6301,3.6301,3.6301,3.6784,3.7534,3.7856,3.8601,3.9546,4.0019,3.9868,3.9494,3.9655,3.9318,3.914,4.0645,4.114,4.1672,4.3966,4.5186,4.5663,4.4975,4.5296,4.5828,4.5883,4.581,4.5736,4.5792,4.5882,4.5731,4.5043,4.4969,4.48,4.4119,4.4005,4.4005,4.4005,4.4005,4.4005,4.4005,4.4005,4.3986,4.3912,4.3243,4.2155,4.0538,4.0408,4.0,3.9064,3.8302,3.7845,3.7733,3.7073,3.6696,3.6627,3.6813,3.6957,3.7034,3.7304,3.7514,3.7727,3.7833,3.8366,2.8052,2.8458,2.8889,2.9862,3.0129,3.0415,3.1407,3.166,3.1844,3.2388,3.2772,0.0,0.0,0.0,3.5604,3.6846,3.8795,4.0486,4.1452,4.2516,4.3362,4.3828,4.4527,4.4389,4.2896,4.3017,4.2568,4.1015,4.0912,4.0912,4.0912,4.0912,4.0912,4.0912,4.0912,4.0658,4.0158,3.9399,3.8502,3.7502,3.7502,3.7088,3.6301,3.6301,3.6301,3.6301,3.6301,3.6301,3.6301,3.6301,3.6301,3.6301,3.6301,3.6784,3.7517,3.7717,3.8444,3.9307,3.934,3.9661,3.9929,3.9181,3.9509,4.0314,4.092,4.1452,4.2241,4.4168,4.5278,4.5957,4.6149,4.6425,4.6773,4.7269,4.6636,4.6049,4.6535,4.636,4.6026,4.5781,4.5404,4.5033,4.4843,4.4358,4.4005,4.4005,4.4005,4.4005,4.4005,4.4005,4.4005,4.4005,4.328,4.2556,4.195,4.0984,4.026,3.9925,3.9101,3.842,3.7912,3.7623,3.7246,3.675,3.6876,3.6974,3.7039,3.7246,3.7445,3.7637,3.7789,3.8046,2.7968,2.8188,2.8484,2.9798,3.0196,3.0732,3.2537,3.2808,3.2909,3.3719,3.3927,3.4066,3.4387,0.0,0.0,0.0,3.9296,4.0796,4.1849,4.2689,4.3379,4.3897,4.4402,4.4216,4.2948,4.2827,4.2292,4.0998,4.0912,4.0791,4.0538,4.052,4.04,4.0175,4.0158,3.9917,3.9365,3.8623,3.8002,3.7502,3.7243,3.6818,3.6301,3.6301,3.6301,3.6301,3.6301,3.6301,3.6301,3.6301,3.6301,3.6301,3.6301,3.6628,3.7144,3.7328,3.7875,3.8507,3.8453,3.8977,3.9561,3.8721,3.9294,4.0374,4.093,4.1489,4.2314,4.4186,4.5278,4.6085,4.6902,4.7278,4.7617,4.8168,4.7462,4.6819,4.7361,4.7123,4.6755,4.6612,4.6164,4.5704,4.5363,4.4804,4.4321,4.4042,4.4005,4.4005,4.4005,4.4005,4.4005,4.4005,4.3503,4.3076,4.2816,4.1783,4.0947,4.0427,3.9851,3.9138,3.8302,3.8284,3.803,3.7473,3.7578,3.7667,3.7754,3.7662,3.7729,3.7913,3.7765,3.7904,2.8764,2.8976,2.9163,3.0002,3.0291,3.1017,3.3375,3.3343,3.308,3.3963,3.4121,3.4345,3.5087,3.6467,0.0,3.8485,4.0503,4.1987,4.2004,4.2689,4.3189,4.3189,4.3189,4.2879,4.2073,4.2004,4.1693,4.0946,4.0894,4.0538,3.9733,3.9681,3.9353,3.8623,3.8606,3.8606,3.8606,3.7864,3.7502,3.7484,3.6691,3.6301,3.6301,3.6301,3.6301,3.6301,3.6301,3.6301,3.6301,3.6301,3.6301,3.6301,3.6301,3.6301,3.6311,3.6444,3.6636,3.6851,3.7262,3.7631,3.796,3.8295,3.8446,3.881,4.0557,4.1095,4.159,4.4003,4.5278,4.6085,4.6902,4.7709,4.8296,4.8296,4.8296,4.8296,4.8296,4.8296,4.8124,4.7535,4.7396,4.6949,4.5559,4.5305,4.5016,4.4135,4.4005,4.4005,4.4005,4.4005,4.4005,4.4005,4.4005,4.367,4.2872,4.2797,4.2118,4.052,4.0408,4.0018,3.9138,3.9101,3.9101,3.9101,3.917,3.9263,3.9405,3.8665,3.8423,3.8587,3.7862,3.8057,2.7436,2.7521,2.7836,2.9174,0.0,0.0,3.3385,3.42,3.5011,0.0,3.6398,3.5897,3.6674,3.7191,0.0,3.8485,4.0072,4.14,4.1935,4.2211,4.2568,4.3138,4.3189,4.2879,4.2073,4.2004,4.1469,4.0158,4.0055,3.9727,3.8968,3.8933,3.883,3.8606,3.8606,3.8606,3.8606,3.7864,3.7502,3.7484,3.6691,3.6301,3.6301,3.6301,3.6301,3.6301,3.6301,3.6301,3.6301,3.6301,3.6301,3.6301,3.6301,3.6301,3.6311,3.6444,3.6636,3.6831,3.7108,3.7449,3.7801,3.8035,3.8261,3.8647,3.9835,4.0614,4.1489,4.3332,4.4837,4.6085,4.6902,4.7709,4.8296,4.8296,4.8296,4.8296,4.8296,4.8296,4.8261,4.82,4.7748,4.7302,4.6979,4.6015,4.522,4.496,4.4395,4.4005,4.4005,4.4005,4.4005,4.4005,4.4005,4.3893,4.3652,4.3132,4.2593,4.2118,4.104,4.0018,3.9138,3.9101,3.9101,3.9101,3.9261,3.936,3.9405,3.932,3.9332,3.9448,3.9317,3.9479,2.6952,2.713,2.7683,2.8955,3.014,3.1749,3.4658,0.0,0.0,0.0,3.7864,3.7364,3.7847,3.8174,0.0,3.8968,4.0089,4.1067,4.1504,4.1279,4.1262,4.1745,4.155,4.1188,4.0693,4.0641,4.0262,3.9319,3.9261,3.8951,3.8192,3.8157,3.8019,3.7709,3.7691,3.7691,3.7691,3.7243,3.7019,3.7019,3.6525,3.6301,3.6301,3.6301,3.6301,3.6301,3.6301,3.6301,3.6301,3.6301,3.6301,3.6301,3.6301,3.6301,3.6311,3.6391,3.6527,3.6718,3.6881,3.7166,3.7513,3.7757,3.8018,3.8432,3.9418,4.0347,4.1392,4.3039,4.4663,4.6085,4.6902,4.7709,4.8296,4.8296,4.8296,4.8296,4.8296,4.8296,4.8343,4.8466,4.8172,4.781,4.763,4.6844,4.603,4.5406,4.4562,4.4005,4.4005,4.4005,4.4005,4.4005,4.4005,4.4005,4.4005,4.3559,4.3132,4.2816,4.1597,4.0501,3.9647,3.9287,3.9101,3.9101,3.9261,3.9353,3.9405,3.9552,3.9674,3.9764,3.9837,3.9965,2.7181,2.7546,2.834,2.9274,3.0787,0.0,3.6749,3.7553,3.7754,3.8623,0.0,3.8692,3.8692,3.9192,3.9595,3.9595,4.021,4.0687,4.0687,4.0055,3.9595,3.9595,3.902,3.8606,3.8606,3.8606,3.8571,3.8502,3.8502,3.8174,3.7433,3.7381,3.7019,3.6232,3.6197,3.6163,3.6094,3.6163,3.6197,3.6197,3.6266,3.6301,3.6301,3.6301,3.6301,3.6301,3.6301,3.6301,3.6301,3.6301,3.6301,3.6301,3.6301,3.6301,3.6301,3.6301,3.6374,3.6523,3.6633,3.6859,3.7127,3.7457,3.773,3.8162,3.9158,4.0137,4.1224,4.2838,4.4442,4.5865,4.6672,4.7526,4.8186,4.8186,4.8241,4.8296,4.8296,4.8296,4.8343,4.8457,4.8541,4.8393,4.7806,4.7689,4.7173,4.5639,4.4674,4.4116,4.4116,4.4061,4.4005,4.4005,4.4005,4.4005,4.4005,4.4005,4.3689,4.2965,4.2155,4.1356,4.0538,3.9602,3.9101,3.9101,3.917,3.9256,3.9373,3.9463,3.9608,3.9796,3.9802,3.9963,2.7879,2.804,0.0,3.0058,3.2454,3.5135,3.776,3.7916,3.8047,4.0003,3.9899,3.9457,3.9457,3.9123,3.8847,3.8847,3.8985,3.9089,3.9089,3.8951,3.8847,3.8847,3.8692,3.8606,3.8606,3.8606,3.8364,3.7778,3.7743,3.7381,3.6594,3.6559,3.6208,3.5466,3.5449,3.5156,3.4586,3.5156,3.5449,3.5449,3.6025,3.6301,3.6301,3.6301,3.6301,3.6301,3.6301,3.6301,3.6301,3.6301,3.6301,3.6301,3.6301,3.6301,3.6301,3.6301,3.6374,3.6502,3.6534,3.667,3.6901,3.7127,3.7467,3.7854,3.8293,3.919,4.0282,4.1317,4.2782,4.4204,4.5012,4.6269,4.7351,4.7351,4.7838,4.8296,4.8296,4.8296,4.8306,4.8343,4.8429,4.8486,4.8411,4.7964,4.7309,4.6374,4.5547,4.5016,4.5016,4.4413,4.4005,4.4005,4.4005,4.4005,4.4005,4.4005,4.3931,4.3745,4.2983,4.2192,4.1374,3.9907,3.9101,3.9101,3.917,3.921,3.9249,3.9412,3.9864,4.0572,4.0677,4.1112,2.8706,2.8973,0.0,3.1825,0.0,3.5276,3.7553,3.7778,3.7944,3.9485,3.9744,3.9698,3.9698,3.9399,3.902,3.8657,3.8606,3.8606,3.8606,3.8295,3.8071,3.8071,3.7726,3.7491,3.7491,3.7491,3.7346,3.695,3.6932,3.6587,3.5801,3.5766,3.5449,3.4707,3.4673,3.4483,3.4103,3.4483,3.4673,3.469,3.5432,3.5956,3.6301,3.6301,3.6301,3.6301,3.6301,3.6301,3.6301,3.6301,3.6301,3.6301,3.6301,3.6301,3.6301,3.6301,3.6343,3.6402,3.6402,3.6516,3.6697,3.6891,3.7222,3.7586,3.7949,3.88,3.9781,4.0366,4.1956,4.3598,4.4011,4.5324,4.6535,4.6535,4.7434,4.8296,4.8296,4.8296,4.8296,4.8296,4.8401,4.8522,4.8596,4.8065,4.752,4.7117,4.6056,4.5295,4.5295,4.4544,4.4005,4.4005,4.4005,4.4005,4.4005,4.4005,4.4005,4.4005,4.3243,4.2612,4.2184,4.0958,3.9918,3.912,3.9135,3.917,3.9197,3.9725,4.0268,4.0822,4.1293,4.1819,2.9551,3.0052,3.1225,3.3359,3.4086,0.0,3.6829,3.7295,3.7536,3.8416,3.9089,3.9508,3.9508,3.9416,3.9123,3.8502,3.8295,3.8209,3.8209,3.7674,3.7295,3.7295,3.6708,3.6301,3.6301,3.6301,3.6249,3.6111,3.6111,3.5783,3.5052,3.5018,3.4673,3.3914,3.3896,3.3827,3.3689,3.3827,3.3896,3.3896,3.4655,3.5328,3.5921,3.5921,3.6059,3.6301,3.6301,3.6301,3.6301,3.6301,3.6301,3.6301,3.6301,3.6301,3.6301,3.6301,3.6301,3.6301,3.6322,3.6412,3.6544,3.6768,3.7046,3.7382,3.7827,3.86,3.9374,3.9765,4.1323,4.2937,4.3212,4.4378,4.5516,4.5663,4.6819,4.7911,4.8058,4.8095,4.8131,4.826,4.841,4.8523,4.8578,4.8212,4.7906,4.7906,4.6531,4.5517,4.5517,4.4618,4.4005,4.4005,4.4005,4.4005,4.4005,4.4005,4.4005,4.4005,4.3373,4.2946,4.2816,4.2166,4.1089,3.9565,3.9398,3.9277,3.9183,4.0072,4.066,4.0971,4.1888,4.2479,3.0224,0.0,3.185,0.0,3.4059,3.5294,0.0,0.0,3.6881,0.0,3.8675,3.8744,3.8744,3.8226,3.776,3.7657,3.707,3.6611,3.6611,3.6525,3.6456,3.6456,3.637,3.6301,3.6301,3.6301,3.6042,3.5387,3.5345,3.5018,3.4293,3.4241,3.3879,3.3093,3.3059,3.2748,3.212,3.2748,3.3059,3.3076,3.3879,3.4293,3.4397,3.4397,3.5087,3.6301,3.6301,3.6301,3.6301,3.6301,3.6301,3.6301,3.6301,3.6301,3.6301,3.6301,3.6301,3.6311,3.6433,3.6492,3.6554,3.6878,3.7124,3.7372,3.7802,3.817,3.8657,3.9557,4.0083,4.0697,4.2103,4.313,4.4002,4.4681,4.5571,4.6416,4.7122,4.7259,4.7471,4.815,4.8458,4.8578,4.8596,4.8675,4.8742,4.8742,4.7367,4.6345,4.6345,4.4971,4.4005,4.4005,4.4005,4.4005,4.4005,4.4005,4.4005,4.4005,4.3893,4.3522,4.2835,4.2705,4.2211,4.1282,4.0576,3.9851,3.9115,4.0051,4.0864,4.1603,4.2657,4.3561,3.1085,3.1355,3.1881,0.0,3.3404,3.4111,3.4887,3.5069,3.538,3.6467,3.6691,3.6967,3.7812,3.7709,3.7346,3.6898,3.618,3.568,3.568,3.5328,3.5069,3.5069,3.5069,3.5069,3.5069,3.5069,3.4931,3.4604,3.4586,3.4259,3.3473,3.3431,3.3076,3.2317,3.2283,3.2127,3.18,3.2127,3.249,3.2904,3.2835,3.3258,3.4069,3.3628,3.4034,3.5087,3.549,3.568,3.5725,3.6128,3.6301,3.6301,3.6301,3.6301,3.6301,3.6301,3.6301,3.6322,3.6444,3.6502,3.6564,3.6898,3.7134,3.739,3.7784,3.8089,3.8413,3.8937,3.947,4.0055,4.0763,4.1552,4.2241,4.2608,4.3305,4.4103,4.4911,4.6149,4.7333,4.8131,4.842,4.856,4.8587,4.875,4.8848,4.89,4.7534,4.6494,4.6494,4.5045,4.4005,4.4005,4.4005,4.4005,4.4005,4.4005,4.4005,4.4005,4.4005,4.3838,4.3485,4.3466,4.3095,4.2296,4.104,4.0204,3.9832,4.0697,4.1317,4.1739,4.3219,4.4158,0.0,0.0,3.1754,3.2406,3.2747,3.3059,0.0,0.0,3.4259,0.0,3.4931,3.5276,3.6415,3.6794,3.6656,3.587,3.5276,3.4931,3.4931,3.4448,3.4103,3.4103,3.4103,3.4103,3.4103,3.4103,3.4017,3.381,3.3793,3.3448,3.2662,3.2628,3.2369,3.1817,3.18,3.18,3.18,3.18,3.2076,3.261,3.2059,3.2396,3.35,3.2886,3.2938,3.3569,3.4517,3.4931,3.4983,3.5725,3.6025,3.6042,3.6232,3.6301,3.6301,3.6301,3.6301,3.6322,3.6492,3.6544,3.6606,3.698,3.7193,3.741,3.7828,3.8105,3.8322,3.8462,3.903,3.9651,3.9853,4.0359,4.0846,4.104,4.1562,4.2323,4.3534,4.5544,4.7278,4.7874,4.8272,4.8522,4.8596,4.8715,4.8822,4.8891,4.7534,4.6494,4.6494,4.5045,4.4005,4.4005,4.4005,4.4005,4.4005,4.4005,4.4005,4.4005,4.4005,4.4005,4.4005,4.4005,4.3726,4.3113,4.1727,4.091,4.0706,4.1505,4.1924,4.2027,4.3601,4.4411,0.0,3.1439,0.0,3.1659,3.2294,3.2921,0.0,0.0,3.4103,3.4155,3.4155,3.4172,3.4259,3.4845,3.5087,3.4328,3.4172,3.4155,3.4155,3.4121,3.4103,3.4103,3.4103,3.4103,3.4103,3.4103,3.3776,3.3024,3.2955,3.2645,3.1913,3.1852,3.1834,3.18,3.18,3.18,3.18,3.18,3.1817,3.1852,3.1817,3.1834,3.193,3.1869,3.1869,3.199,3.3517,3.4155,3.4207,3.4949,3.5259,3.5328,3.6025,3.6301,3.6301,3.6301,3.6301,3.6332,3.6602,3.6692,3.6766,3.7231,3.7392,3.7476,3.7948,3.8188,3.8322,3.8462,3.8619,3.8946,3.9706,3.9926,4.0157,4.092,4.1132,4.1801,4.4131,4.592,4.7113,4.7149,4.7877,4.8522,4.8596,4.8715,4.8822,4.8891,4.7534,4.6494,4.6494,4.5045,4.4005,4.4005,4.4005,4.4005,4.4005,4.4005,4.4005,4.4005,4.4005,4.4005,4.4005,4.4005,4.3986,4.3949,4.3113,4.2303,4.1542,4.2352,4.2749,4.2768,4.3751,4.4278,0.0,0.0,0.0,3.1589,3.1906,3.2179,3.2179,3.2421,3.2758,3.3231,3.3327,3.3327,3.3327,3.3965,3.4414,3.4138,3.3672,3.3327,3.3327,3.293,3.262,3.262,3.262,3.262,3.262,3.262,3.249,3.2214,3.2179,3.2076,3.18,3.18,3.18,3.18,3.18,3.18,3.18,3.18,3.18,3.18,3.18,3.18,3.18,3.18,3.18,3.1834,3.2378,3.2886,3.3386,3.4172,3.4483,3.4569,3.5311,3.5587,3.5645,3.6128,3.6301,3.6322,3.6513,3.6623,3.6753,3.7056,3.7317,3.7577,3.7872,3.8172,3.8385,3.8478,3.8601,3.8781,3.9056,3.9129,3.9331,4.0139,4.0322,4.0855,4.2745,4.4425,4.5865,4.6892,4.7361,4.7822,4.8476,4.8642,4.8714,4.8883,4.7534,4.6494,4.6494,4.5045,4.4005,4.4005,4.4005,4.4005,4.4005,4.4005,4.4005,4.4005,4.4005,4.4005,4.4005,4.4005,4.4005,4.4005,4.3726,4.3169,4.237,4.2649,4.2797,4.2824,4.3762,4.4222,3.1312,0.0,0.0,0.0,0.0,3.1736,3.1791,0.0,3.1938,3.2421,3.2524,3.2524,3.2524,3.2972,3.3327,3.3327,3.2879,3.2524,3.2524,3.211,3.18,3.18,3.18,3.18,3.18,3.18,3.18,3.18,3.18,0.0,3.18,3.18,3.18,3.18,3.18,3.1679,3.143,3.143,3.143,3.143,3.143,3.1558,3.18,3.18,3.18,3.18,3.18,3.2076,3.2593,3.3379,3.3707,3.3776,3.4535,3.4983,3.5259,3.5749,3.6094,3.6322,3.6444,3.6554,3.6684,3.6958,3.7241,3.754,3.7846,3.8147,3.8393,3.8478,3.8601,3.8699,3.8699,3.8699,3.8836,3.9368,3.9706,4.0183,4.1258,4.2965,4.4681,4.603,4.6727,4.7325,4.8043,4.8412,4.8577,4.8486,4.7332,4.6401,4.6122,4.4878,4.4005,4.4005,4.4005,4.4005,4.4005,4.4005,4.4005,4.4005,4.4005,4.4005,4.4005,4.4005,4.4005,4.4005,4.4005,4.3745,4.3206,4.3206,4.3206,4.3225,4.3844,4.4161,0.0,0.0,0.0,0.0,0.0,0.0,3.1738,0.0,3.1775,3.1775,3.1775,3.1765,3.18,3.18,3.18,3.18,3.18,3.18,3.18,3.18,3.18,3.18,3.18,3.18,3.18,3.18,3.18,3.18,3.18,3.18,3.18,3.18,3.18,3.18,3.18,3.1464,3.074,3.0722,3.0722,3.0722,3.0722,3.1102,3.18,3.18,3.18,3.18,3.18,3.18,3.1852,3.2576,3.2869,3.2955,3.3758,3.45,3.5138,3.519,3.5645,3.6294,3.6444,3.6502,3.6557,3.6962,3.7184,3.7382,3.7836,3.8129,3.8322,3.8454,3.8601,3.8699,3.8699,3.8699,3.8699,3.8699,3.9294,3.9871,3.989,4.1744,4.3653,4.4498,4.5938,4.7095,4.7279,4.7997,4.8355,4.7704,4.6964,4.6205,4.5406,4.4544,4.4005,4.4005,4.4005,4.4005,4.4005,4.4005,4.4005,4.4005,4.4005,4.4005,4.4005,4.4005,4.4005,4.4005,4.4005,4.4005,4.4005,4.4005,4.4005,4.4005,4.4005,4.407,3.1268,0.0,0.0,0.0,0.0,0.0,0.0,0.0,3.0998,3.0998,3.0998,3.1171,3.1696,3.18,3.18,3.18,3.18,3.18,3.18,3.18,3.18,3.18,3.18,3.18,3.18,3.18,3.18,0.0,3.18,3.18,3.18,3.18,3.18,3.18,3.18,3.1696,3.1489,3.1499,3.1499,3.1499,3.1499,3.1602,3.18,3.18,3.18,3.18,3.18,3.18,3.1817,3.2024,3.2093,3.2179,3.2938,3.3352,3.3662,3.4783,3.5328,3.5587,3.616,3.6423,3.6523,3.6629,3.6891,3.7204,3.7486,3.7844,3.8195,3.8374,3.8562,3.8699,3.8699,3.8699,3.8699,3.8699,3.8865,3.9184,3.978,4.0422,4.1487,4.3451,4.4663,4.5782,4.7077,4.7536,4.7708,4.7611,4.6964,4.6205,4.5406,4.4544,4.4005,4.4005,4.4005,4.4005,4.4005,4.4005,4.4005,4.4005,4.4005,4.4005,4.4005,4.4005,4.4005,4.4005,4.4005,4.4005,4.4005,4.4005,4.4005,4.4005,4.4005,4.407,0.0,0.0,0.0,0.0,0.0,0.0,3.1048,3.0778,3.072,0.0,3.0912,3.0929,3.1662,3.18,3.18,3.18,3.18,3.18,3.18,3.1541,3.1343,3.1343,3.1041,3.0834,3.0834,3.0834,3.0834,3.0834,3.0834,3.0834,3.0834,3.0834,3.0989,3.1326,3.1343,3.1343,3.1343,3.1343,3.1343,3.1343,3.1343,3.1489,3.18,3.18,3.18,3.18,3.18,3.18,3.18,3.18,3.18,3.1834,3.2265,3.2628,3.3059,3.4293,3.4949,3.5311,3.6042,3.6343,3.6423,3.6482,3.6721,3.7011,3.7215,3.7623,3.8043,3.8228,3.8473,3.8699,3.8699,3.8699,3.8699,3.8699,3.8699,3.8836,3.9294,3.9669,4.0514,4.2607,4.3644,4.4635,4.5983,4.6846,4.7166,4.6588,4.646,4.6007,4.4896,4.4302,4.4005,4.4005,4.4005,4.4005,4.4005,4.4005,4.4005,4.4005,4.4339,4.4376,4.4023,4.4358,4.4376,4.4005,4.4005,4.4005,4.4005,4.4005,4.4005,4.4005,4.4005,4.4028,0.0,0.0,0.0,0.0,0.0,0.0,3.1429,3.0954,3.0716,0.0,3.1145,3.0929,3.1662,3.18,3.18,3.18,3.18,3.18,3.18,3.124,3.0791,3.0705,3.0058,2.9601,2.9506,2.9498,2.9498,2.9498,2.9498,2.9498,2.9498,2.9498,2.9834,3.0533,3.0653,3.0705,3.0705,3.0774,3.0826,3.0826,3.0826,3.1171,3.18,3.18,3.18,3.18,3.18,3.18,3.18,3.18,3.18,3.18,3.18,3.2196,3.2869,3.3672,3.4448,3.519,3.5921,3.6232,3.6322,3.6433,3.6616,3.6801,3.7001,3.7438,3.7881,3.8086,3.8401,3.8673,3.8699,3.8699,3.8699,3.8699,3.8699,3.8699,3.8699,3.9258,4.022,4.1735,4.2772,4.3616,4.4425,4.5937,4.6569,4.5209,4.5672,4.5644,4.4193,4.4005,4.4042,4.4135,4.4135,4.4135,4.4135,4.4228,4.4246,4.4153,4.4952,4.5053,4.4191,4.4886,4.4886,4.4023,4.4005,4.4005,4.4005,4.4005,4.4005,4.4005,4.4005,4.4005,0.0,0.0,0.0,0.0,0.0,0.0,3.0611,3.0493,3.0544,0.0,3.0729,3.0929,3.1662,3.18,3.18,3.18,3.18,3.18,3.18,3.1688,3.1378,3.0774,3.0567,3.0213,2.9549,2.9498,2.9498,2.9498,2.9498,2.9498,2.9498,2.9498,2.9567,2.973,3.036,3.0705,3.0705,3.1292,3.1585,3.1585,3.1585,3.1671,3.18,3.18,3.18,3.18,3.18,3.18,3.18,3.18,3.18,3.18,3.18,3.1886,3.211,3.2852,3.3638,3.4414,3.5156,3.5801,3.6301,3.6332,3.6444,3.6606,3.6791,3.7156,3.7613,3.8176,3.843,3.8567,3.8666,3.8699,3.8699,3.8699,3.8699,3.8699,3.8699,3.8817,3.9221,4.0183,4.1534,4.2782,4.3598,4.4641,4.5289,4.5043,4.5191,4.5014,4.4119,4.4005,4.4265,4.4971,4.5053,4.5053,4.5053,4.5639,4.5732,4.5082,4.5815,4.59,4.509,4.522,4.4886,4.4023,4.4005,4.4005,4.4005,4.4005,4.4005,4.4005,4.4005,4.4005,0.0,0.0,0.0,3.12,0.0,0.0,0.0,3.0537,3.0475,3.0914,3.0784,3.0831,3.1562,3.1746,3.18,3.18,3.18,3.1662,3.1309,3.0903,3.0386,2.9644,2.9222,2.8842,2.8437,2.8747,2.911,2.9463,2.9161,2.8954,2.8954,2.861,2.8575,2.8937,2.9334,2.973,3.0093,3.0472,3.0851,3.1257,3.1257,3.1438,3.18,3.18,3.18,3.18,3.18,3.18,3.18,3.18,3.18,3.18,3.18,3.18,3.1886,3.2628,3.3413,3.4207,3.4949,3.568,3.6301,3.6301,3.6391,3.6523,3.6626,3.6993,3.7514,3.8093,3.835,3.8496,3.865,3.8699,3.8699,3.8699,3.8699,3.8699,3.8699,3.8699,3.8817,3.9221,4.0589,4.1966,4.2772,4.3954,4.4695,4.4339,4.4727,4.4938,4.4594,4.4613,4.4971,4.5815,4.59,4.5732,4.5332,4.603,4.616,4.535,4.642,4.655,4.535,4.5685,4.5305,4.4023,4.4005,4.4005,4.4005,4.4005,4.4005,4.4005,4.4005,4.4005,0.0,0.0,0.0,0.0,0.0,3.122,0.0,0.0,0.0,3.1323,3.1051,0.0,0.0,0.0,0.0,0.0,0.0,0.0,0.0,3.0041,0.0,2.8506,2.7989,2.7617,2.7341,2.798,2.8644,2.9239,2.8747,2.8403,2.8403,2.7696,2.7558,2.8161,2.8334,2.8696,2.9274,2.9429,2.9834,3.0481,3.0636,3.1016,3.1593,3.174,3.18,3.18,3.18,3.18,3.18,3.18,3.18,3.18,3.18,3.18,3.1869,3.2472,3.3283,3.419,3.4776,3.5559,3.6301,3.6301,3.6412,3.6544,3.6588,3.6993,3.7532,3.7983,3.8234,3.8449,3.8643,3.8699,3.8699,3.8699,3.8699,3.8699,3.8699,3.8699,3.8755,3.8909,4.0112,4.1305,4.1966,4.3397,4.4276,4.3692,4.4256,4.482,4.5041,4.5195,4.5634,4.6599,4.6727,4.6401,4.561,4.6401,4.655,4.5584,4.7033,4.7218,4.561,4.5844,4.5379,4.4023,4.4005,4.4005,4.4005,4.4005,4.4005,4.4005,4.4005,4.4005,0.0,0.0,0.0,0.0,3.12,0.0,0.0,0.0,3.1203,3.1298,0.0,0.0,0.0,0.0,0.0,0.0,0.0,0.0,2.9834,3.0162,3.0032,2.8575,2.8903,2.8747,2.7428,2.798,2.8437,2.8523,2.8454,2.8403,2.8403,2.7696,2.7341,2.742,2.8058,2.8437,2.8523,2.9179,2.9558,2.9644,3.036,3.074,3.0843,3.1489,3.18,3.18,3.18,3.18,3.18,3.18,3.18,3.18,3.18,3.18,3.18,3.1886,3.2844,3.4103,3.419,3.5138,3.6301,3.6301,3.6464,3.6725,3.697,3.728,3.7658,3.8,3.8234,3.8449,3.8643,3.8699,3.8699,3.8699,3.8699,3.8699,3.8699,3.8699,3.8909,3.9633,4.0479,4.1132,4.1232,4.258,4.3624,4.36,4.3699,4.4054,4.4894,4.5078,4.5729,4.7304,4.7529,4.7237,4.642,4.7757,4.798,4.6457,4.7868,4.8036,4.642,4.5026,4.4191,4.4005,4.4005,4.4005,4.4005,4.4005,4.4005,4.4005,4.4005,4.4005,0.0,0.0,0.0,0.0,0.0,0.0,3.12,0.0,3.1242,0.0,0.0,0.0,0.0,0.0,0.0,0.0,3.1746,0.0,0.0,0.0,3.0437,0.0,0.0,0.0,2.861,2.8472,2.8954,3.0265,2.9144,2.8592,2.9023,2.7937,2.7307,2.7307,2.76,2.7755,2.7755,2.8075,2.8437,2.8868,2.9196,2.9592,3.0024,3.0809,3.1154,3.1188,3.161,3.18,3.18,3.18,3.18,3.18,3.18,3.18,3.18,3.18,3.2775,3.4103,3.4103,3.5069,3.6311,3.6391,3.6492,3.6636,3.695,3.7222,3.7503,3.7932,3.8196,3.8403,3.8635,3.8699,3.8699,3.8699,3.8699,3.8699,3.8699,3.8699,3.8946,3.9743,4.0561,4.125,4.1727,4.2745,4.3515,4.3549,4.3573,4.3928,4.4827,4.5411,4.6208,4.7472,4.8052,4.804,4.7247,4.824,4.8407,4.7274,4.7386,4.72,4.6531,4.4896,4.4005,4.4005,4.4005,4.4005,4.4005,4.4005,4.4005,4.4005,4.4005,4.4005,3.12,0.0,0.0,0.0,0.0,0.0,0.0,0.0,0.0,0.0,0.0,0.0,0.0,0.0,0.0,0.0,0.0,3.1487,0.0,3.1153,0.0,0.0,0.0,0.0,0.0,2.861,2.9092,3.0731,2.9334,2.8627,2.9179,2.7989,2.7307,2.7307,2.7307,2.7307,2.7307,2.7307,2.7558,2.8092,2.8299,2.8678,2.923,3.0231,3.0705,3.074,3.1472,3.18,3.18,3.18,3.18,3.18,3.18,3.18,3.18,3.18,3.2775,3.4103,3.4103,3.5069,3.6322,3.6502,3.6544,3.6616,3.6978,3.723,3.7457,3.7906,3.8179,3.8379,3.8645,3.8699,3.8699,3.8699,3.8699,3.8699,3.8699,3.8865,3.9276,4.0065,4.0891,4.1672,4.2488,4.3121,4.3506,4.3506,4.3531,4.3877,4.4732,4.5427,4.6279,4.741,4.8093,4.8256,4.7749,4.8444,4.8649,4.8073,4.707,4.6494,4.6494,4.4896,4.4005,4.4005,4.4005,4.4005,4.4005,4.4005,4.4005,4.4005,4.4005,4.4005,0.0,0.0,0.0,3.12,0.0,0.0,0.0,0.0,3.12,0.0,0.0,0.0,0.0,0.0,0.0,3.1507,0.0,0.0,0.0,0.0,0.0,0.0,0.0,0.0,0.0,2.7989,2.8437,0.0,2.8437,2.842,2.8437,2.7713,2.7307,2.7307,2.7307,2.7307,2.7307,2.7307,2.7307,2.7341,2.8058,2.842,2.8489,3.0015,3.0705,3.074,3.1472,3.18,3.18,3.18,3.18,3.18,3.18,3.18,3.18,3.18,3.2775,3.4103,3.4103,3.5069,3.6343,3.6613,3.6692,3.6773,3.7163,3.7438,3.7658,3.7991,3.8234,3.8449,3.8643,3.8699,3.8699,3.8699,3.8699,3.8699,3.8699,3.9313,4.0102,4.092,4.1709,4.2525,4.3322,4.3469,4.3506,4.3506,4.3496,4.3781,4.4599,4.4843,4.5574,4.722,4.7558,4.7663,4.7693,4.8444,4.889,4.8872,4.7386,4.6494,4.6494,4.4896,4.4005,4.4005,4.4005,4.4005,4.4005,4.4005,4.4005,4.4005,4.4005,4.4005,0.0,0.0,3.12,3.12,0.0,0.0,0.0,0.0,0.0,0.0,0.0,0.0,0.0,0.0,0.0,3.1361,0.0,0.0,0.0,0.0,0.0,0.0,0.0,0.0,0.0,0.0,0.0,0.0,2.8213,2.7885,2.8368,2.7696,2.7307,2.7307,2.7764,2.7782,2.7307,2.779,2.779,2.7307,2.754,2.7669,2.7713,2.9213,2.9903,2.9972,3.1248,3.18,3.18,3.18,3.18,3.18,3.18,3.18,3.18,3.18,3.2775,3.4241,3.5225,3.5559,3.5607,3.5768,3.5471,3.5106,3.547,3.6065,3.6693,3.7131,3.7771,3.8387,3.8645,3.8699,3.8699,3.8699,3.8699,3.8854,3.9386,3.9706,4.0294,4.1635,4.2113,4.2561,4.3359,4.3506,4.3506,4.3506,4.3506,4.3598,4.3873,4.4405,4.5027,4.5685,4.6777,4.7512,4.7626,4.841,4.8909,4.8909,4.7386,4.6494,4.6494,4.4896,4.4005,4.4005,4.4005,4.4005,4.4005,4.4005,4.4005,4.4005,4.4005,4.4005,3.12,3.12,0.0,3.12,3.12,0.0,3.12,0.0,0.0,0.0,0.0,0.0,0.0,0.0,0.0,3.1264,0.0,0.0,0.0,2.9764,0.0,0.0,0.0,0.0,0.0,0.0,0.0,2.8644,2.7842,2.7514,0.0,2.7566,2.742,2.7678,2.8144,2.8178,2.7696,2.8161,2.8023,2.7307,2.7307,2.7307,2.7359,2.8834,2.9498,2.9592,3.1127,3.18,3.18,3.18,3.18,3.18,3.18,3.18,3.18,3.18,3.2775,3.4259,3.549,3.5594,3.5166,3.5017,3.4624,3.4256,3.4604,3.5345,3.6166,3.6633,3.7462,3.8279,3.8562,3.8666,3.8699,3.8699,3.8699,3.8927,3.9724,4.0128,4.0726,4.2047,4.2525,4.2892,4.3414,4.3506,4.3506,4.3506,4.3506,4.3506,4.3506,4.3956,4.4432,4.4859,4.5868,4.6675,4.7093,4.7706,4.8054,4.8054,4.6791,4.6067,4.6067,4.4729,4.4005,4.4005,4.4005,4.4005,4.4005,4.4005,4.4005,4.4005,4.4005,4.4005]}]]